     2.11           OBSERVATION DATA    G (GPS)             RINEX VERSION / TYPE
teqc 2010Oct21 OPUS Account 20111027 15:06:28UTC            PGM / RUN BY / DATE
W 1524                                                      MARKER NAME
3002                                                        MARKER NUMBER
CSMIDDLETON NGS                                             OBSERVER / AGENCY
0220280359 TRIMBLE 5700 NP 2.32 / SP 2.32                   REC # / TYPE / VERS
11885611 TRM41249.00 NONE                                   ANT # / TYPE
  -761600.9551 -5536876.9052  3062923.7593                  APPROX POSITION XYZ
        1.9990        0.0000        0.0000                  ANTENNA: DELTA H/E/N
     1     1                                                WAVELENGTH FACT L1/2
     5    L1    L2    C1    P1    P2                        # / TYPES OF OBSERV
    15                                                      LEAP SECONDS
  2011     8    14     0     0   30.0000000     GPS         TIME OF FIRST OBS
                                                            END OF HEADER
 11  8 14  0  0 30.0000000  0  8G09G12G02G17G10G05G28G04
 -35854460.66057 -27230830.87154  22668270.8364                   22668270.2734
 -20722329.89157 -15935151.53954  22826976.8284                   22826974.8554
 -46552808.99657 -36233790.16456  20984651.2664                   20984647.4344
 -47721590.88357 -37152381.69955  22499587.8754                   22499585.5634
 -36930567.44957 -27562068.65655  21505581.8134                   21505579.7344
  -9904450.78956  -7676534.07053  23833491.3594                   23833494.1684
 -39933133.46956 -31095538.59853  23816258.9924                   23816258.3324
 -63652657.25858 -49516715.12556  20671968.1564                   20671966.6334
 11  8 14  0  1  0.0000000  0  8G09G12G02G17G10G05G28G04
 -35896336.87147 -27263461.73044  22660302.3524                   22660301.9654
 -20903052.03547 -16075973.98845  22792587.1724                   22792584.8634
 -46675789.55947 -36329619.13346  20961249.2584                   20961244.9654
 -47772957.79347 -37192407.88344  22489813.4924                   22489810.3674
 -37076384.66847 -27675692.40245  21477833.3834                   21477832.3444
 -10102720.33646  -7831029.53943  23795761.9304                   23795764.8714
 -39931402.07045 -31094189.57443  23816588.6174                   23816588.8364
 -63690242.36748 -49546002.22746  20664815.9454                   20664814.0704
 11  8 14  0  1 30.0000000  0  8G09G12G02G17G10G05G28G04
 -35937724.09847 -27295711.55944  22652426.5704                   22652426.0664
 -21083532.36347 -16216608.00045  22758243.0314                   22758240.3594
 -46798371.97747 -36425137.85946  20937922.2194                   20937918.0204
 -47824186.41447 -37232326.29744  22480064.9924                   22480062.0984
 -37221671.64547 -27788902.96945  21450186.6094                   21450184.7704
 -10300915.86746  -7985467.35243  23758046.5784                   23758048.6484
 -39929382.49646 -31092615.95342  23816973.0704                   23816972.8554
 -63727450.59848 -49574995.65246  20657735.8524                   20657733.5314
 11  8 14  0  2  0.0000000  0  8G09G12G02G17G10G05G28G04
 -35978627.62947 -27327584.50044  22644642.9844                   22644642.7194
 -21263770.84847 -16357053.55545  22723944.4064                   22723942.2734
 -46920559.36748 -36520348.77046  20914670.7114                   20914666.3324
 -47875278.57447 -37272138.38344  22470342.1954                   22470339.5864
 -37366427.96547 -27901700.04745  21422639.8674                   21422638.1604
 -10499037.34846  -8139847.42644  23720344.5314                   23720347.2344
 -39927079.09446 -31090821.17242  23817411.4304                   23817410.6254
 -63764286.79748 -49603699.18446  20650725.7114                   20650723.8484
 11  8 14  0  2 30.0000000  0  8G09G12G02G17G10G05G28G04
 -36019049.76247 -27359082.33244  22636951.5634                   22636951.0514
 -21443764.03147 -16497307.96145  22689692.2974                   22689690.7464
 -47042351.38747 -36615251.59846  20891494.5634                   20891490.5594
 -47926233.21147 -37311843.32845  22460645.6564                   22460643.5204
 -37510650.99247 -28014081.58245  21395194.4694                   21395193.8484
 -10697081.16846  -8294166.99244  23682658.4384                   23682660.2934
 -39924492.69146 -31088805.86343  23817904.3444                   23817902.8714
 -63800752.91848 -49632114.34846  20643786.5394                   20643784.9144
 11  8 14  0  3  0.0000000  0  8G09G12G02G17G10G05G28G04
 -36058993.87147 -27390207.68744  22629350.0784                   22629349.7774
 -21623509.67247 -16637369.47745  22655487.7194                   22655486.0394
 -47163748.69147 -36709846.85546  20868393.3204                   20868388.8914
 -47977050.12147 -37351440.94945  22450975.5234                   22450973.5514
 -37654338.29747 -28126045.65645  21367852.4224                   21367850.9414
 -10895044.96146  -8448424.19544  23644986.5004                   23644988.7344
 -39921625.37546 -31086571.65642  23818449.4534                   23818449.1604
 -63836851.52348 -49660243.13746  20636917.0004                   20636915.3134
 11  8 14  0  3 30.0000000  0  8G09G12G02G17G10G05G28G04
 -36098464.06247 -27420963.73444  22621838.5234                   22621838.7664
 -21803006.87547 -16777237.40645  22621331.3204                   22621328.5634
 -47284753.22347 -36804136.06246  20845366.6804                   20845362.8594
 -48027730.12947 -37390931.86745  22441332.0704                   22441329.9304
 -37797488.72747 -28237591.40645  21340611.4224                   21340610.1994
 -11092927.26646  -8602617.89544  23607330.8054                   23607333.1374
 -39918480.57846 -31084121.25842  23819047.7424                   23819047.7034
 -63872586.20748 -49688088.34446  20630117.5164                   20630115.4264
 11  8 14  0  4  0.0000000  0  8G09G12G02G17G10G05G28G04
 -36137461.85247 -27451351.73044  22614417.2504                   22614417.5044
 -21982251.61747 -16916908.62145  22587222.5394                   22587219.7734
 -47405363.81247 -36898118.29346  20822416.0314                   20822411.4104
 -48078271.08647 -37430314.44545  22431714.3984                   22431712.0944
 -37940098.20747 -28348715.61745  21313473.9144                   21313472.1764
 -11290723.44546  -8756744.52744  23569691.1724                   23569693.1954
 -39915058.41046 -31081454.67643  23819699.1484                   23819698.9884
 -63907958.02348 -49715650.79746  20623386.0864                   20623384.2934
 11  8 14  0  4 30.0000000  0  8G09G12G02G17G10G05G28G04
 -36175992.10947 -27481375.37544  22607085.5234                   22607085.8054
 -22161242.98047 -17056382.39145  22553160.7504                   22553158.2664
 -47525582.72747 -36991795.33646  20799538.3594                   20799534.5474
 -48128674.14847 -37469589.58245  22422122.5634                   22422120.5004
 -38082166.36347 -28459418.03145  21286439.1174                   21286437.5044
 -11488432.52346  -8910803.26644  23532067.4614                   23532069.8524
 -39911362.62946 -31078574.92243  23820402.2034                   23820402.6054
 -63942971.27348 -49742933.85246  20616723.7034                   20616721.6054
 11  8 14  0  5  0.0000000  0  8G09G12G02G17G10G05G28G04
 -36214059.14546 -27511038.07444  22599842.4144                   22599842.6334
 -22339979.25847 -17195657.37545  22519148.1094                   22519146.4414
 -47645411.59847 -37085168.44146  20776734.7974                   20776732.0234
 -48178940.19547 -37508757.96545  22412557.6954                   22412555.4574
 -38223691.75047 -28569697.51645  21259507.8364                   21259506.1804
 -11686053.07847  -9064793.05544  23494462.0004                   23494464.0904
 -39907396.29346 -31075484.34042  23821157.2974                   23821157.8914
 -63977629.19148 -49769940.02346  20610128.0864                   20610126.5124
 11  8 14  0  5 30.0000000  0  8G09G12G02G17G10G05G28G04
 -36251666.10247 -27540342.27044  22592685.5784                   22592685.9694
 -22518458.79747 -17334732.30945  22485184.7974                   22485182.7304
 -47764851.25848 -37178238.26646  20754006.5864                   20754003.0784
 -48229068.89847 -37547819.28945  22403018.2424                   22403016.0984
 -38364672.21147 -28679552.37545  21232680.3444                   21232678.3444
 -11883582.34447  -9218711.68444  23456873.1724                   23456875.0164
 -39903161.61745 -31072184.66442  23821962.3284                   23821963.3014
 -64011934.65648 -49796671.54746  20603600.1724                   20603597.9534
 11  8 14  0  6  0.0000000  0  8G09G12G02G17G10G05G28G04
 -36288816.50846 -27569290.72344  22585615.7424                   22585616.3244
 -22696679.63347 -17473605.64845  22451270.4454                   22451268.2464
 -47883903.08247 -37271005.87946  20731352.0634                   20731348.3524
 -48279060.28547 -37586773.65645  22393505.4144                   22393503.1214
 -38505106.21147 -28788981.41045  21205956.2424                   21205954.8484
 -12081018.06247  -9372557.44944  23419303.3284                   23419304.2934
 -39898660.87945 -31068677.67642  23822819.5164                   23822819.6374
 -64045890.75848 -49823130.85246  20597138.9384                   20597136.8674
 11  8 14  0  6 30.0000000  0  8G09G12G02G17G10G05G28G04
 -36325512.48047 -27597885.05544  22578633.4224                   22578633.1024
 -22874637.38747 -17612273.98045  22417406.5004                   22417404.6524
 -48002565.72747 -37363470.23846  20708771.8834                   20708767.7894
 -48328912.60547 -37625619.64145  22384018.8984                   22384016.4964
 -38644989.82847 -28897981.59445  21179337.5634                   21179335.6564
 -12278355.91846  -9526326.96144  23381749.2344                   23381751.6024
 -39893894.59046 -31064963.78142  23823725.5864                   23823726.6764
 -64079498.42648 -49849318.64146  20590742.9534                   20590741.3554
 11  8 14  0  7  0.0000000  0  8G09G12G02G17G10G05G28G04
 -36361759.81247 -27626129.80544  22571736.1564                   22571735.4924
 -23052332.72747 -17750737.86745  22383592.1254                   22383589.6254
 -48120842.84848 -37455634.19546  20686263.9844                   20686259.6994
 -48378628.10247 -37664358.97745  22374557.9304                   22374556.2384
 -38784323.71147 -29006553.41045  21152823.3524                   21152821.5124
 -12475595.85946  -9680020.17644  23344216.5084                   23344217.5784
 -39888867.63746 -31061046.74643  23824683.4774                   23824683.2464
 -64112763.04748 -49875239.12146  20584412.8204                   20584411.3364
 11  8 14  0  7 30.0000000  0  8G09G12G02G17G10G05G28G04
 -36397559.98046 -27654026.10944  22564923.4534                   22564923.6094
 -23229762.11747 -17888994.47745  22349828.2814                   22349826.1844
 -48238733.80148 -37547497.24646  20663830.2504                   20663826.0084
 -48428205.06647 -37702990.39845  22365123.4454                   22365122.0354
 -38923104.26247 -29114694.07045  21126413.7274                   21126412.4534
 -12672733.91446  -9833633.98043  23306701.9774                   23306703.0274
 -39883580.69546 -31056927.19143  23825689.3204                   23825689.6414
 -64145685.84048 -49900893.24646  20578148.4454                   20578146.5044
 11  8 14  0  8  0.0000000  0  8G09G12G02G17G10G05G28G04
 -36432918.42646 -27681578.22344  22558195.0234                   22558194.6994
 -23406925.03947 -18027043.46145  22316114.8674                   22316113.0474
 -48356241.19948 -37639061.41046  20641469.4064                   20641465.1454
 -48477645.12947 -37741515.12945  22355715.5634                   22355714.1254
 -39061331.22347 -29222403.33645  21100109.7194                   21100108.5664
 -12869769.21546  -9987167.74244  23269207.4144                   23269208.2114
 -39878037.92246 -31052608.23043  23826744.2114                   23826745.0044
 -64178271.12948 -49926284.37546  20571947.5554                   20571945.3364
 11  8 14  0  8 30.0000000  0  8G09G12G02G17G10G05G28G04
 -34892415.12546 -26481186.12544  22851342.3134                   22851343.0314
 -22008390.95747 -16937276.60545  22582247.4614                   22582245.4104
 -46897939.59448 -36502722.46946  20918974.8204                   20918970.8054
 -46951524.00047 -36552329.84845  22646127.0634                   22646125.2384
 -37623575.92647 -28102074.50445  21373705.5634                   21373704.4384
 -11491270.46146  -8913012.64844  23531526.6254                   23531527.9734
 -38296819.56246 -29820490.14143  24127640.0084                   24127640.8324
 -62635098.39848 -48723812.12546  20865603.7114                   20865601.1524
 11  8 14  0  9  0.0000000  0  8G09G12G02G17G10G05G28G04
 -34926895.01246 -26508053.64544  22844781.2114                   22844781.3714
 -22185008.54347 -17074900.65645  22548638.5084                   22548635.7894
 -47014677.20748 -36593686.81646  20896760.6644                   20896755.9924
 -47000683.69947 -36590636.12145  22636772.2424                   22636770.3794
 -37760684.97347 -28208912.68045  21347614.5704                   21347613.1054
 -11688087.59447  -9066376.40644  23494073.5784                   23494074.5084
 -38290766.75046 -29815773.70342  24128792.2424                   24128793.3594
 -62667011.68748 -48748679.62146  20859530.4774                   20859528.7544
 11  8 14  0  9 30.0000000  0  8G09G12G02G17G10G05G28G04
 -34960942.30546 -26534584.07044  22838302.1804                   22838303.4104
 -22361351.78147 -17212310.93045  22515081.4534                   22515079.2734
 -47131033.07048 -36684353.69146  20874618.4774                   20874614.4064
 -47049704.64847 -36628834.29744  22627444.1254                   22627441.4774
 -37897233.51247 -28315314.09045  21321630.4454                   21321629.0394
 -11884793.54347  -9219653.59044  23456641.8594                   23456641.9064
 -38284463.40246 -29810862.12143  24129991.9844                   24129992.9534
 -62698594.74248 -48773289.79746  20853520.7424                   20853518.3794
 11  8 14  0 10  0.0000000  0  8G09G12G02G17G10G05G28G04
 -34994561.63747 -26560781.02344  22831905.5784                   22831905.2624
 -22537419.78547 -17349506.73445  22481576.1954                   22481574.3914
 -47247008.88348 -36774724.44146  20852549.3364                   20852544.7734
 -47098587.89547 -36666925.15245  22618142.0634                   22618139.9224
 -38033221.20747 -28421278.48845  21295752.6254                   21295750.9924
 -12081386.26647  -9372842.49644  23419231.3444                   23419231.8444
 -38277913.05146 -29805758.00442  24131239.5864                   24131239.5554
 -62729851.36748 -48797645.62146  20847572.3204                   20847570.1604
 11  8 14  0 10 30.0000000  0  8G09G12G02G17G10G05G28G04
 -35027753.09446 -26586644.55544  22825589.9064                   22825588.5084
 -22713206.61747 -17486483.43745  22448125.4614                   22448122.9454
 -47362602.30548 -36864797.21146  20830552.5554                   20830548.0784
 -47147329.62547 -36704905.73044  22608866.8134                   22608864.4804
 -38168642.47747 -28526801.50845  21269982.9224                   21269981.0594
 -12277859.97347  -9525938.68044  23381843.6334                   23381843.9494
 -38271114.89546 -29800460.79742  24132532.2274                   24132533.0204
 -62760780.72347 -48821746.43746  20841686.8914                   20841684.7624
 11  8 14  0 11  0.0000000  0  8G09G12G02G17G10G05G28G04
 -35060520.28547 -26612177.51244  22819353.9144                   22819353.5514
 -22888710.17247 -17623239.39545  22414728.4454                   22414726.1054
 -47477814.34848 -36954572.80946  20808628.3204                   20808623.8364
 -47195929.69547 -36742775.93445  22599618.7114                   22599615.9884
 -38303495.88747 -28631882.03145  21244321.1254                   21244319.8364
 -12474212.53547  -9678940.46144  23344478.2194                   23344479.1954
 -38264071.51645 -29794972.55942  24133871.7034                   24133873.0314
 -62791385.94148 -48845594.66846  20835863.0554                   20835860.9064
 11  8 14  0 11 30.0000000  0  8G09G12G02G17G10G05G28G04
 -35092868.49647 -26637383.98044  22813197.4844                   22813198.7894
 -23063929.99647 -17759774.27745  22381384.9694                   22381382.3484
 -47592647.74648 -37044053.37146  20786776.3364                   20786771.6954
 -47244389.50847 -36780536.85244  22590396.3914                   22590394.6564
 -38437781.02747 -28736519.76245  21218767.3754                   21218765.8014
 -12670442.85547  -9831846.99644  23307136.5554                   23307137.6174
 -38256786.59446 -29789296.09042  24135258.8524                   24135259.9844
 -62821671.29348 -48869193.65646  20830099.8984                   20830097.7034
 11  8 14  0 12  0.0000000  0  8G09G12G02G17G10G05G28G04
 -35124797.77747 -26662264.00844  22807122.7114                   22807122.1334
 -23238860.76647 -17896083.92245  22348096.5554                   22348094.3714
 -47707100.49648 -37133237.31246  20764996.4694                   20764992.4924
 -47292705.67647 -36818185.85245  22581203.0234                   22581200.5354
 -38571493.28947 -28840711.08245  21193323.1174                   21193321.4574
 -12866545.09047  -9984653.72344  23269819.4454                   23269821.2034
 -38249259.39545 -29783430.87142  24136692.5704                   24136692.1914
 -62851636.50847 -48892543.16846  20824397.3754                   20824395.5554
 11  8 14  0 12 30.0000000  0  8G09G12G02G17G10G05G28G04
 -35156313.56646 -26686821.83244  22801125.1484                   22801124.9924
 -23413502.26247 -18032168.14845  22314863.3284                   22314861.0984
 -47821175.37948 -37222126.81246  20743289.0634                   20743284.4414
 -47340880.14147 -36855724.41845  22572034.7734                   22572033.4144
 -38704632.30547 -28944455.73445  21167987.8204                   21167985.8244
 -13062518.71547 -10137360.23444  23232527.6954                   23232527.3484
 -38241493.98445 -29777379.94142  24138169.4774                   24138170.7464
 -62881286.01647 -48915646.70746  20818755.5474                   20818753.2034
 11  8 14  0 13  0.0000000  0  8G09G12G02G17G10G05G28G04
 -35187419.87147 -26711060.56244  22795206.1644                   22795205.8094
 -23587852.29747 -18168025.26245  22281685.4454                   22281683.0904
 -47934873.48448 -37310722.72346  20721652.6334                   20721648.3134
 -47388912.82047 -36893152.52345  22562894.7584                   22562892.9734
 -38837196.86747 -29047752.76645  21142761.0704                   21142759.4774
 -13258361.47347 -10289964.77344  23195258.5864                   23195259.7624
 -38233492.84846 -29771145.43742  24139692.3594                   24139692.4454
 -62910622.97348 -48938506.69546  20813173.1724                   20813170.6764
 11  8 14  0 13 30.0000000  0  8G09G12G02G17G10G05G28G04
 -35218117.55146 -26734980.90644  22789364.6094                   22789364.6994
 -23761906.44147 -18303651.79745  22248563.5084                   22248562.2544
 -48048193.31648 -37399023.86346  20700088.5084                   20700084.6454
 -47436800.94947 -36930467.97345  22553782.0704                   22553780.1764
 -38969182.79347 -29150598.90645  21117644.9144                   21117643.5434
 -13454068.04347 -10442463.20744  23158017.4774                   23158017.4064
 -38225256.12946 -29764727.35243  24141259.9224                   24141260.2114
 -62939647.45347 -48961123.18046  20807649.8204                   20807647.9534
 11  8 14  0 14  0.0000000  0  8G09G12G02G17G10G05G28G04
 -35248411.41046 -26758586.57444  22783598.8134                   22783600.5434
 -23935662.92247 -18439046.40245  22215499.3364                   22215497.2114
 -48161136.84048 -37487031.78146  20678596.3984                   20678591.5044
 -47484544.93047 -36967671.10544  22544696.6334                   22544694.4304
 -39100589.27747 -29252993.52345  21092639.1644                   21092637.3524
 -13649637.02346 -10594854.41844  23120801.8524                   23120802.4144
 -38216787.03146 -29758128.14542  24142870.6024                   24142871.7464
 -62968363.24248 -48983499.13346  20802185.4844                   20802183.2584
 11  8 14  0 14 30.0000000  0  8G09G12G02G17G10G05G28G04
 -35278303.57446 -26781879.23044  22777911.0944                   22777911.2624
 -24109118.78147 -18574206.75845  22182491.9224                   22182489.4844
 -48273703.78948 -37574746.26646  20657175.6484                   20657171.2504
 -47532143.35947 -37004760.83644  22535638.6724                   22535637.0164
 -39231413.51247 -29354934.47345  21067743.5554                   21067741.8674
 -13845064.40647 -10747135.29744  23083612.5864                   23083613.0354
 -38208086.54746 -29751348.67642  24144527.3444                   24144527.5044
 -62996771.73847 -49005635.63745  20796779.8284                   20796777.3914
 11  8 14  0 15  0.0000000  0  8G09G12G02G17G10G05G28G04
 -35307799.19547 -26804862.89544  22772298.6094                   22772298.9144
 -24282273.08247 -18709132.14545  22149541.2814                   22149538.8594
 -48385896.96947 -37662169.50046  20635825.7194                   20635821.2304
 -47579597.98847 -37041738.48844  22526608.2274                   22526606.6414
 -39361655.47747 -29456421.68045  21042959.7034                   21042958.0394
 -14040349.17647 -10899305.03544  23046451.1254                   23046452.0554
 -38199158.64146 -29744392.01242  24146226.1644                   24146226.3164
 -63024877.09847 -49027535.93046  20791431.1094                   20791429.5164
 11  8 14  0 15 30.0000000  0  8G09G12G02G17G10G05G28G04
 -35336900.22746 -26827539.10244  22766760.7814                   22766761.4414
 -24455121.62547 -18843819.27745  22116649.4454                   22116647.2234
 -48497715.70748 -37749300.95346  20614547.5474                   20614542.8444
 -47626906.66847 -37078602.44144  22517606.7194                   22517604.1724
 -39491311.92647 -29557452.66445  21018287.1804                   21018285.3524
 -14235487.06247 -11051360.35544  23009317.4614                   23009317.6524
 -38190004.13746 -29737258.73443  24147968.0234                   24147968.6994
 -63052680.66447 -49049201.06645  20786139.9614                   20786138.1524
 11  8 14  0 16  0.0000000  0  8G09G12G02G17G10G05G28G04
 -35365608.69946 -26849909.41444  22761297.5634                   22761298.1214
 -24627661.40647 -18978265.82845  22083816.1414                   22083814.0594
 -48609159.50848 -37836140.24646  20593340.6414                   20593335.8164
 -47674067.78147 -37115351.39544  22508632.6024                   22508629.7974
 -39620379.53547 -29658024.79745  20993725.8284                   20993724.3914
 -14430473.93447 -11203297.98444  22972212.7274                   22972212.8364
 -38180623.84045 -29729949.52342  24149753.0474                   24149753.9614
 -63080183.57847 -49070631.92645  20780906.5944                   20780904.7584
 11  8 14  0 16 30.0000000  0  8G09G12G02G17G10G05G28G04
 -35393928.44146 -26871976.82444  22755909.2584                   22755909.3284
 -24799890.38747 -19112470.17245  22051041.9454                   22051040.0044
 -48720229.48048 -37922688.25446  20572204.2114                   20572200.1884
 -47721081.48847 -37151985.50844  22499685.5084                   22499683.4924
 -39748856.91447 -29758137.00045  20969277.7504                   20969275.9924
 -14625307.68447 -11355116.33244  22935136.8984                   22935137.2384
 -38171020.24245 -29722466.30542  24151580.0234                   24151582.0864
 -63107388.83647 -49091830.82846  20775729.6024                   20775727.8164
 11  8 14  0 17  0.0000000  0  8G09G12G02G17G10G05G28G04
 -35421860.94146 -26893742.48044  22750594.3444                   22750594.1954
 -24971803.72747 -19246428.59445  22018328.0704                   22018325.7774
 -48830924.89548 -38008944.38746  20551139.5314                   20551135.2814
 -47767945.09447 -37188502.63344  22490767.3984                   22490765.2234
 -39876740.30947 -29857786.38345  20944942.4064                   20944940.4654
 -14819983.41447 -11506811.51644  22898090.9924                   22898091.5474
 -38161193.60545 -29714809.39142  24153449.5234                   24153452.7034
 -63134297.05147 -49112798.28145  20770609.3914                   20770607.2114
 11  8 14  0 17 30.0000000  0  7G09G12G02G17G10G05G04
 -33873989.69146 -25687609.09044  23045143.9694                   23045144.3404
 -23567974.22747 -18152535.43745  22285467.8284                   22285465.4924
 -47365823.85548 -36867307.18046  20829939.1254                   20829934.5204
 -46239237.32847 -35997301.80144  22781670.6174                   22781668.8484
 -38428604.80547 -28729369.08645  21220513.5944                   21220511.3914
 -13439072.81247 -10430777.11744  23160870.1024                   23160870.1914
 -61585490.54747 -47905936.08646  21065337.2814                   21065335.2074
 11  8 14  0 18  0.0000000  0  7G09G12G02G17G10G05G04
 -33901156.99246 -25708778.50844  23039973.7344                   23039974.0514
 -23739248.32847 -18285995.73445  22252875.4064                   22252873.2734
 -47475771.54747 -36952980.67246  20809016.3134                   20809012.1484
 -46285798.03547 -36033582.89144  22772810.8594                   22772808.8204
 -38555294.30547 -28828088.14845  21196405.1484                   21196403.1604
 -13633422.89547 -10582218.57044  23123885.8914                   23123886.4534
 -61611810.84047 -47926445.41446  21060328.9304                   21060326.9104
 11  8 14  0 18 30.0000000  0  7G09G12G02G17G10G05G04
 -33927942.48446 -25729650.41444  23034876.8134                   23034877.7704
 -23910195.00047 -18419200.91845  22220345.4774                   22220343.6844
 -47585342.60548 -37038360.68446  20788166.2344                   20788161.6254
 -46332203.02047 -36069742.66844  22763979.8674                   22763978.2734
 -38681380.31647 -28926336.96545  21172411.9064                   21172410.0314
 -13827602.16047 -10733526.93444  23086934.5704                   23086935.2074
 -61637837.08247 -47946725.61346  21055376.1094                   21055374.2234
 11  8 14  0 19  0.0000000  0  7G09G12G02G17G10G05G04
 -33954347.32046 -25750225.69544  23029852.9224                   23029853.0434
 -24080809.45747 -18552147.21545  22187878.1094                   22187875.9304
 -47694535.44547 -37123445.98446  20767387.1724                   20767382.8554
 -46378449.16446 -36105778.64844  22755179.9304                   22755177.8364
 -38806858.68447 -29024112.28545  21148534.6954                   21148532.0084
 -14021605.10247 -10884697.89544  23050016.7344                   23050017.9534
 -61663569.04347 -47966776.50445  21050479.5704                   21050477.8794
 11  8 14  0 19 30.0000000  0  7G09G12G02G17G10G05G04
 -33980372.92246 -25770505.45744  23024899.7274                   23024901.0044
 -24251087.14847 -18684831.10945  22155476.1884                   22155473.6174
 -47803348.82447 -37208235.59046  20746681.0234                   20746675.9414
 -46424533.82847 -36141688.78944  22746410.0944                   22746408.7114
 -38931725.68047 -29121411.21545  21124772.6804                   21124770.9224
 -14215426.87947 -11035727.68044  23013134.0394                   23013134.5204
 -61689007.11348 -47986598.38346  21045638.8444                   21045637.2384
 11  8 14  0 20  0.0000000  0  7G09G12G02G17G10G05G04
 -34006020.34446 -25790490.53944  23020019.7584                   23020019.8674
 -24421023.44547 -18817248.99645  22123137.9534                   22123135.4144
 -47911781.15647 -37292728.28946  20726046.5164                   20726042.4264
 -46470454.57447 -36177471.21944  22737671.8984                   22737670.0044
 -39055977.47747 -29218230.77045  21101128.1254                   21101126.1914
 -14409061.84047 -11186611.89544  22976285.8134                   22976286.5004
 -61714151.75847 -48006191.61746  21040854.0864                   21040852.1884
 11  8 14  0 20 30.0000000  0  7G09G12G02G17G10G05G04
 -34031298.91846 -25810188.21944  23015209.3134                   23015209.0904
 -24590621.18447 -18949403.07045  22090864.3444                   22090862.0434
 -48019839.41447 -37376929.49246  20705483.8204                   20705479.6884
 -46516216.08646 -36213129.54344  22728963.9454                   22728962.2974
 -39179618.14847 -29314574.11745  21077600.2584                   21077598.2344
 -14602513.49647 -11337353.28544  22939473.4694                   22939473.5554
 -61739010.68447 -48025562.21945  21036123.4774                   21036121.6484
 11  8 14  0 21  0.0000000  0  7G09G12G02G17G10G05G04
 -34056212.62946 -25829601.55544  23010468.2814                   23010468.8984
 -24759878.94547 -19081292.21145  22058655.5784                   22058653.5124
 -48127525.19547 -37460840.46546  20684991.6954                   20684987.2974
 -46561818.84047 -36248664.18445  22720286.3754                   22720284.0044
 -39302646.65647 -29410440.45345  21054188.4774                   21054186.5204
 -14795779.38347 -11487949.90244  22902696.1564                   22902695.8714
 -61763587.37547 -48044712.89545  21031446.9304                   21031444.6254
 11  8 14  0 21 30.0000000  0  7G09G12G02G17G10G05G04
 -34080763.36747 -25848732.09444  23005796.5864                   23005797.0394
 -24928792.78947 -19212913.37145  22026513.3054                   22026510.4064
 -48234837.97347 -37544460.78946  20664570.8364                   20664567.0944
 -46607260.88747 -36284073.60245  22711638.6644                   22711637.1214
 -39425060.25847 -29505827.64145  21030894.1724                   21030892.2894
 -14988855.09847 -11638398.33644  22865955.0944                   22865954.3054
 -61787882.74647 -48063644.36345  21026823.8054                   21026821.7194
 11  8 14  0 22  0.0000000  0  7G09G12G02G17G10G05G04
 -34104956.29347 -25867583.81244  23001193.7974                   23001193.5704
 -25097362.05547 -19344266.01645  21994435.1724                   21994432.9064
 -48341780.49247 -37627792.59046  20644220.4844                   20644216.3444
 -46652543.33247 -36319358.65644  22703022.2424                   22703020.4924
 -39546859.11747 -29600735.80545  21007716.5944                   21007714.1174
 -15181739.84847 -11788697.98844  22829250.2344                   22829250.1724
 -61811900.73847 -48082359.55945  21022252.6954                   21022250.9064
 11  8 14  0 22 30.0000000  0  7G09G12G02G17G10G05G04
 -34128797.32046 -25886161.29344  22996656.1724                   22996656.7464
 -25265586.73847 -19475350.16845  21962423.0084                   21962420.1094
 -48448355.79747 -37710838.25046  20623939.9304                   20623935.5124
 -46697668.51647 -36354521.14844  22694434.7504                   22694432.8134
 -39668043.95747 -29695165.52345  20984655.7504                   20984653.7544
 -15374433.16447 -11938848.46144  22792581.4924                   22792581.6804
 -61835646.25857 -48100862.48055  21017733.8984                   21017731.6954
 11  8 14  0 23  0.0000000  0  7G09G12G02G17G10G05G04
 -34152286.23046 -25904464.42644  22992186.4304                   22992187.0744
 -25433460.49247 -19606160.88745  21930477.5784                   21930474.8134
 -48554561.19947 -37793595.68446  20603729.3984                   20603724.9694
 -46742632.31647 -36389557.91044  22685878.8524                   22685876.7854
 -39788609.89847 -29789112.97745  20961713.0474                   20961710.2384
 -15566928.42647 -12088844.62144  22755950.4694                   22755950.9734
 -61859119.05547 -48119152.97745  21013267.3204                   21013265.6484
 11  8 14  0 23 30.0000000  0  7G09G12G02G17G10G05G04
 -34175427.94146 -25922497.02744  22987783.3364                   22987783.1644
 -25600982.24247 -19736697.28945  21898599.3834                   21898596.5354
 -48660399.45747 -37876067.04346  20583589.2194                   20583585.0274
 -46787435.33647 -36424469.41044  22677352.4534                   22677351.0124
 -39908556.47347 -29882577.80145  20938888.9384                   20938885.6724
 -15759224.08247 -12238685.21944  22719358.1334                   22719357.7304
 -61882322.20347 -48137233.36345  21008851.2504                   21008849.9414
 11  8 14  0 24  0.0000000  0  7G09G12G02G17G10G05G04
 -34198227.96146 -25940263.34844  22983444.1254                   22983444.9104
 -25768151.91047 -19866959.34045  21866787.5704                   21866785.2974
 -48765873.30148 -37958254.43746  20563518.1024                   20563514.0904
 -46832079.03946 -36459256.73844  22668857.1094                   22668855.4844
 -40027884.37147 -29975560.54345  20916180.6334                   20916177.7344
 -15951319.44547 -12388369.79345  22682803.6024                   22682803.4144
 -61905259.89847 -48155106.89545  21004487.1724                   21004485.1644
 11  8 14  0 24 30.0000000  0  7G09G12G02G17G10G05G04
 -34220688.94546 -25957765.50044  22979170.3204                   22979170.8284
 -25934966.14847 -19996944.44145  21835043.8134                   21835041.3364
 -48870982.61747 -38040157.78146  20543516.5554                   20543512.5354
 -46876562.30546 -36493919.05544  22660392.1954                   22660390.9884
 -40146591.38347 -30068059.46945  20893591.2274                   20893589.0084
 -16143210.68447 -12537895.28145  22646287.5314                   22646286.9964
 -61927934.21547 -48172775.21145  21000172.1804                   21000170.6254
 11  8 14  0 25  0.0000000  0  7G09G12G02G17G10G05G04
 -34242815.51646 -25975007.03943  22974958.8984                   22974960.2194
 -26101423.33247 -20126651.29745  21803368.4454                   21803366.1804
 -48975729.52747 -38121778.74246  20523584.0474                   20523579.4964
 -46920885.54747 -36528456.69144  22651957.7274                   22651956.1334
 -40264677.42247 -30160074.52345  20871119.9924                   20871118.4024
 -16334896.08247 -12687260.37544  22609811.0314                   22609810.6054
 -61950348.33647 -48190240.76245  20995906.9304                   20995905.0594
 11  8 14  0 25 30.0000000  0  7G09G12G02G17G10G05G04
 -34264609.94746 -25991989.77744  22970811.5394                   22970813.3444
 -26267519.97747 -20256077.22345  21771761.2734                   21771758.9734
 -49080114.34448 -38203117.55546  20503720.4774                   20503715.9264
 -46965047.10246 -36562868.30944  22643554.5554                   22643552.2194
 -40382139.96947 -30251603.73845  20848767.7664                   20848765.2384
 -16526371.30147 -12836461.70345  22573374.6484                   22573373.8244
 -61972503.66847 -48207504.66845  20991691.1724                   20991689.2734
 11  8 14  0 26  0.0000000  0  7G09G12G02G17G10G05G04
 -32710655.01646 -24781115.86344  23266520.0864                   23266520.8674
 -24857827.84047 -19157615.80545  22040016.9384                   22040014.9184
 -47608714.18447 -37056571.96546  20783718.2274                   20783714.1054
 -45433625.31646 -35369552.67244  22934973.8754                   22934972.9384
 -38923553.47747 -29115042.80545  21126327.1334                   21126325.4964
 -15142207.42247 -11757892.29745  22836772.4534                   22836771.8054
 -60418981.74647 -46996968.11345  21287316.2034                   21287314.7774
 11  8 14  0 26 30.0000000  0  7G09G12G02G17G10G05G04
 -32731795.90646 -24797589.35544  23262497.6174                   23262497.3364
 -25023196.36347 -19286474.35545  22008548.1804                   22008545.7274
 -47712377.25447 -37137348.37946  20763991.7034                   20763987.2774
 -45477462.88747 -35403711.85544  22926632.6414                   22926630.7854
 -39039764.64147 -29205596.93445  21104213.1024                   21104211.0904
 -15333254.94147 -11906760.35245  22800416.5314                   22800415.8984
 -60440626.88347 -47013834.44545  21283197.2894                   21283195.7194
 11  8 14  0 27  0.0000000  0  7G09G12G02G17G10G05G04
 -32752617.46546 -24813814.00444  23258535.7114                   23258535.9144
 -25188199.70347 -19415048.37145  21977149.0234                   21977146.6414
 -47815683.30548 -37217846.59046  20744333.4064                   20744329.2774
 -45521140.09846 -35437746.10544  22918320.9774                   22918318.6294
 -39155350.92247 -29295664.13345  21082217.7894                   21082216.0044
 -15524086.76647 -12055460.33245  22764101.7974                   22764101.6724
 -60462023.01647 -47030506.76645  21279126.4144                   21279123.9774
 11  8 14  0 27 30.0000000  0  7G09G12G02G17G10G05G04
 -32773120.96546 -24829790.81243  23254632.8674                   23254633.8634
 -25352832.69947 -19543333.79345  21945820.0554                   21945817.9024
 -47918631.30547 -37298065.80946  20724743.0394                   20724738.3324
 -45564654.18047 -35471653.20744  22910040.5704                   22910037.8324
 -39270308.60247 -29385241.52345  21060341.6094                   21060339.8754
 -15714697.27347 -12203987.82844  22727829.7504                   22727830.0784
 -60483170.15247 -47046985.04745  21275101.6564                   21275099.9384
 11  8 14  0 28  0.0000000  0  7G09G12G02G17G10G05G04
 -32793307.90646 -24845520.94944  23250791.4454                   23250792.4964
 -25517091.53147 -19671327.67245  21914563.2114                   21914560.4964
 -48021220.33247 -37378005.30946  20705220.9304                   20705216.3874
 -45608002.70346 -35505431.33644  22901791.3134                   22901789.7504
 -39384634.66047 -29474326.74245  21038586.8914                   21038584.0124
 -15905081.96547 -12352339.37945  22691600.5164                   22691600.2934
 -60504068.57047 -47063269.53945  21271124.8984                   21271122.9024
 11  8 14  0 28 30.0000000  0  7G09G12G02G17G10G05G04
 -32813184.49247 -24861009.24643  23247009.4064                   23247010.6374
 -25680976.35947 -19799030.12545  21883376.9534                   21883374.3554
 -48123453.91848 -37457667.84046  20685767.0164                   20685762.3984
 -45651187.18447 -35539081.62144  22893573.7894                   22893572.1254
 -39498330.26247 -29562920.67645  21016951.3594                   21016948.4454
 -16095240.17647 -12500514.46545  22655415.3594                   22655414.1564
 -60524723.52747 -47079364.30545  21267194.5164                   21267192.1254
 11  8 14  0 29  0.0000000  0  7G09G12G02G17G10G05G04
 -32832753.67246 -24876258.02044  23243285.6094                   23243286.5594
 -25844483.56247 -19926438.30945  21852262.2504                   21852259.9414
 -48225332.09048 -37537053.43446  20666380.0314                   20666375.4184
 -45694207.07047 -35572603.64844  22885387.9694                   22885385.7734
 -39611393.74647 -29651022.05945  20995435.3284                   20995433.5864
 -16285168.60247 -12648510.50845  22619272.6484                   22619272.0204
 -60545136.56247 -47095270.55945  21263310.0554                   21263308.0864
 11  8 14  0 29 30.0000000  0  7G09G12G02G17G10G05G04
 -32852020.17246 -24891270.94544  23239619.2734                   23239620.3754
 -26007611.90247 -20053551.29345  21821220.0394                   21821217.5044
 -48326857.43047 -37616164.08646  20647060.1804                   20647055.8794
 -45737062.85946 -35605997.80144  22877232.5234                   22877230.4734
 -39723824.88747 -29738630.71145  20974041.0084                   20974038.5634
 -16474865.86347 -12796326.41445  22583174.0944                   22583173.6454
 -60565310.94947 -47110990.86345  21259470.8594                   21259469.0554
 11  8 14  0 30  0.0000000  0  7G09G12G02G17G10G05G04
 -32870988.11746 -24906051.20343  23236009.6954                   23236011.0594
 -26170360.18047 -20180368.10545  21790249.4614                   21790247.3634
 -48428031.56647 -37695001.08646  20627807.2424                   20627803.0514
 -45779754.83247 -35639264.32044  22869108.6724                   22869106.2544
 -39835623.38747 -29825746.40645  20952766.3594                   20952764.1844
 -16664329.41047 -12943960.20745  22547120.7274                   22547119.8554
 -60585250.16047 -47126527.90245  21255676.1094                   21255674.7344
 11  8 14  0 30 30.0000000  0  7G09G12G02G17G10G05G04
 -32889658.89547 -24920599.95743  23232456.7114                   23232457.6764
 -26332723.82447 -20306885.21945  21759352.9694                   21759350.8914
 -48528853.55947 -37773563.66446  20608621.6884                   20608617.3524
 -45822280.73446 -35672401.44544  22861016.0314                   22861013.8794
 -39946786.50847 -29912367.00845  20931612.6024                   20931609.7734
 -16853554.96947 -13091408.57445  22511112.3134                   22511111.8714
 -60604954.53147 -47141881.95745  21251927.0084                   21251925.1804
 11  8 14  0 31  0.0000000  0  7G09G12G02G17G10G05G04
 -32908036.47746 -24934920.21143  23228960.5234                   23228960.9454
 -26494700.99247 -20433101.15645  21728529.8984                   21728527.7234
 -48629325.20347 -37851853.25046  20589502.0944                   20589497.8094
 -45864640.20346 -35705408.87944  22852955.2344                   22852953.9844
 -40057313.47747 -29998491.89545  20910579.7584                   20910577.9614
 -17042539.78547 -13238669.32845  22475149.4454                   22475148.8714
 -60624426.80947 -47157055.17245  21248221.1954                   21248220.0784
 11  8 14  0 31 30.0000000  0  8G09G12G02G17G10G05G25G04
 -32926126.81247 -24949016.63344  23225517.3914                   23225518.5164
 -26656291.45747 -20559015.79345  21697780.5864                   21697777.6884
 -48729449.71547 -37929872.35246  20570449.6804                   20570445.1094
 -45906835.33246 -35738288.27044  22844925.7114                   22844924.3404
 -40167205.65247 -30084122.13745  20889668.5004                   20889665.8054
 -17231283.15647 -13385741.96545  22439232.3674                   22439231.7274
   4442331.25056   3501992.84453  24589959.4924                   24589962.2274
 -60643671.77347 -47172051.24245  21244559.0004                   21244557.1604
 11  8 14  0 32  0.0000000  0  8G09G12G02G17G10G05G25G04
 -32943936.17646 -24962894.12944  23222129.0394                   23222129.3444
 -26817495.54347 -20684629.33645  21667103.7974                   21667101.1954
 -48829230.66048 -38007623.71946  20551461.5944                   20551457.5984
 -45948868.38346 -35771041.33644  22836926.7894                   22836924.8714
 -40276464.41847 -30169258.81245  20868876.7424                   20868874.6684
 -17419784.87147 -13532626.30145  22403361.7114                   22403361.3594
   4247972.99245   3350545.05143  24552973.6804                   24552976.4144
 -60662694.33647 -47186874.02045  21240938.9694                   21240937.3164
 11  8 14  0 32 30.0000000  0  8G09G12G02G17G10G05G25G04
 -32961470.05146 -24976556.99643  23218792.3984                   23218793.6214
 -26978312.44547 -20809941.16445  21636501.5394                   21636499.5744
 -48928671.36747 -38085109.96946  20532538.7034                   20532534.3444
 -45990740.44146 -35803668.98844  22828959.2274                   22828957.6334
 -40385090.94547 -30253902.83645  20848205.8364                   20848203.4264
 -17608044.14847 -13679321.72745  22367537.7894                   22367536.3134
   4053741.50846   3199195.98443  24516012.8754                   24516015.0354
 -60681498.52047 -47201526.65245  21237361.3204                   21237359.5394
 11  8 14  0 33  0.0000000  0  8G09G12G02G17G10G05G25G04
 -32978731.98846 -24990007.93044  23215507.2894                   23215508.3594
 -27138739.81247 -20934949.46945  21605972.7974                   21605970.7274
 -49027772.71148 -38162331.78146  20513680.4384                   20513675.7504
 -46032451.23046 -35836170.93744  22821021.9454                   22821020.2384
 -40493084.37547 -30338053.55945  20827655.1804                   20827653.4384
 -17796058.27047 -13825826.11745  22331758.7894                   22331758.6134
   3859638.98246   3047947.41743  24479076.8914                   24479077.8954
 -60700086.92247 -47216011.14545  21233823.9694                   21233822.2894
 11  8 14  0 33 30.0000000  0  8G09G12G02G17G10G05G25G04
 -32995726.37547 -25003250.42244  23212274.9224                   23212274.6844
 -27298776.68047 -21059653.47345  21575519.1724                   21575516.7194
 -49126536.73847 -38239290.74646  20494886.0474                   20494881.5044
 -46074001.24246 -35868547.61344  22813115.7424                   22813113.6954
 -40600444.48847 -30421710.76645  20807225.1644                   20807223.4184
 -17983825.10947 -13972137.84045  22296028.5864                   22296027.4884
   3665666.75846   2896800.31343  24442164.8444                   24442166.1024
 -60718462.91447 -47230330.12145  21230327.0004                   21230325.6844
 11  8 14  0 34  0.0000000  0  8G09G12G02G17G10G05G25G04
 -33012453.68046 -25016284.78143  23209090.0634                   23209091.7774
 -27458417.37547 -21184048.77045  21545140.6254                   21545138.1524
 -49224961.72347 -38315985.52046  20476156.5394                   20476152.1524
 -46115386.94146 -35900796.21544  22805239.9844                   22805238.5204
 -40707167.27747 -30504871.37145  20786917.0084                   20786914.4694
 -18171338.99247 -14118252.43745  22260345.8364                   22260344.5944
   3471830.28146   2745758.98843  24405278.2344                   24405280.4924
 -60736625.51247 -47244482.82045  21226870.9614                   21226869.2584
 11  8 14  0 34 30.0000000  0  8G09G12G02G17G10G05G25G04
 -31453497.05146 -23801513.47744  23505750.0234                   23505751.4614
 -26042234.61747 -20080529.66445  21814631.5234                   21814628.7344
 -47747625.66047 -37164814.52746  20757284.1484                   20757279.5124
 -44581186.46146 -34705315.37544  23097189.1024                   23097187.1644
 -39237828.78947 -29359932.27745  21066522.8834                   21066520.5314
 -16783170.84047 -13036562.88345  22524505.2034                   22524504.2934
   4853558.21546   3822430.21943  24668212.9224                   24668214.8754
 -59179156.83247 -46030870.88745  21523247.3984                   21523245.4064
 11  8 14  0 35  0.0000000  0  8G09G12G02G17G10G05G25G04
 -31469698.16046 -23814137.84443  23502667.3364                   23502668.1564
 -26201073.73847 -20204300.34045  21784404.9144                   21784402.9494
 -47845373.21548 -37240981.41846  20738683.4774                   20738678.6914
 -44622239.28946 -34737304.62944  23089377.1484                   23089375.1524
 -39343272.48447 -29442096.16845  21046457.3134                   21046455.0634
 -16970167.60947 -13182274.53145  22488920.8914                   22488920.3164
   4660002.89546   3671607.95743  24631379.8054                   24631382.2704
 -59196897.27347 -46044694.64145  21519871.5704                   21519869.8554
 11  8 14  0 35 30.0000000  0  8G09G12G02G17G10G05G25G04
 -31485639.60246 -23826559.85244  23499634.0314                   23499634.9064
 -26359506.15247 -20327754.11345  21754256.0554                   21754254.1054
 -47942781.50447 -37316883.95746  20720147.2194                   20720142.6254
 -44663123.19946 -34769162.22344  23081596.5234                   23081595.8054
 -39448072.88347 -29523758.80145  21026514.6024                   21026512.1994
 -17156899.30947 -13327779.64545  22453387.0084                   22453386.0704
   4466593.85246   3520899.67243  24594575.7664                   24594577.3954
 -59214427.96547 -46058354.96545  21516535.5554                   21516533.2544
 11  8 14  0 36  0.0000000  0  8G09G12G02G17G10G05G25G04
 -31501326.62546 -23838783.64844  23496648.6884                   23496650.2584
 -26517531.56647 -20450890.75445  21724185.5554                   21724182.5744
 -48039853.38747 -37392524.35246  20701674.9774                   20701670.5474
 -44703839.43746 -34800889.16844  23073848.2584                   23073846.5744
 -39552231.44147 -29604921.30145  21006693.8834                   21006691.4064
 -17343364.83647 -13473077.35245  22417903.8674                   22417902.4574
   4273331.54746   3370305.71543  24557798.9064                   24557800.3594
 -59231753.06647 -46071855.10545  21513238.9924                   21513237.2704
 11  8 14  0 36 30.0000000  0  8G09G12G02G17G10G05G25G04
 -31516763.15646 -23850812.23844  23493711.3284                   23493713.0004
 -26675148.09047 -20573708.74645  21694191.4064                   21694189.0124
 -48136590.88348 -37467904.19146  20683266.4844                   20683261.4654
 -44744388.13346 -34832485.54744  23066131.6484                   23066130.4924
 -39655748.08247 -29685583.59045  20986995.1484                   20986992.5274
 -17529562.21147 -13618166.11745  22382471.4304                   22382470.6484
   4080217.68446   3219827.44142  24521050.1414                   24521052.1024
 -59248875.45747 -46085197.27045  21509980.4534                   21509978.4964
 11  8 14  0 37  0.0000000  0  8G09G12G02G17G10G05G25G04
 -31531950.99646 -23862647.06644  23490822.1174                   23490823.3204
 -26832351.63747 -20696204.95745  21664276.5164                   21664274.5984
 -48232993.05148 -37543022.74246  20664921.5474                   20664917.3134
 -44784766.91846 -34863949.55944  23058448.2734                   23058446.7734
 -39758620.04747 -29765743.53945  20967419.7194                   20967417.0514
 -17715486.52047 -13763042.08645  22347091.0554                   22347090.1214
   3887256.80946   3069468.35243  24484330.8984                   24484332.2234
 -59265795.32447 -46098381.62145  21506760.6724                   21506759.2504
 11  8 14  0 37 30.0000000  0  8G09G12G02G17G10G05G25G04
 -31546893.51246 -23874290.70344  23487977.9924                   23487979.2034
 -26989139.38347 -20818377.16845  21634441.1884                   21634438.4844
 -48329060.90648 -37617880.78946  20646640.6334                   20646636.0274
 -44824974.87546 -34895280.44544  23050797.4534                   23050795.2344
 -39860846.50847 -29845400.49645  20947966.6334                   20947963.8134
 -17901135.05147 -13907703.16045  22311763.3284                   22311762.4774
   3694451.42646   2919230.40243  24447642.2584                   24447642.7704
 -59282514.73447 -46111409.78945  21503579.5164                   21503577.5634
 11  8 14  0 38  0.0000000  0  8G09G12G02G17G10G05G25G04
 -31561592.71546 -23885744.75843  23485182.0394                   23485182.0434
 -27145507.55547 -20940222.45345  21604685.1564                   21604682.6644
 -48424794.33248 -37692478.23446  20628423.1564                   20628418.2464
 -44865010.43046 -34926477.00044  23043179.2734                   23043176.5664
 -39962425.50847 -29924552.94545  20928636.4694                   20928634.0394
 -18086503.23847 -14052145.79345  22276488.9384                   22276487.3634
   3501805.34446   2769116.57443  24410982.6724                   24410984.2344
 -59299034.59447 -46124282.44545  21500435.7814                   21500434.5824
 11  8 14  0 38 30.0000000  0  8G09G12G02G17G10G05G25G04
 -31576054.38346 -23897013.73043  23482429.3524                   23482429.3714
 -27301456.17247 -21061740.81645  21575009.1644                   21575006.4454
 -48520196.42248 -37766817.50446  20610268.4224                   20610264.1994
 -44904874.89547 -34957540.23444  23035593.6724                   23035591.4654
 -40063357.98447 -30003201.60945  20909429.4144                   20909427.1294
 -18271590.19947 -14196369.30545  22241267.8984                   22241266.4964
   3309318.81346   2619127.07043  24374353.3134                   24374354.9264
 -59315359.25847 -46137003.00045  21497329.9304                   21497327.8444
 11  8 14  0 39  0.0000000  0  8G09G12G02G17G10G05G25G04
 -31590283.03146 -23908101.12544  23479721.8754                   23479723.0634
 -27456983.91047 -21182931.23445  21545413.1174                   21545410.7774
 -48615269.35548 -37840900.28546  20592177.0784                   20592172.5084
 -44944568.79347 -34988470.58644  23028039.7034                   23028037.8954
 -40163644.82047 -30081347.17245  20890345.7424                   20890343.5004
 -18456394.66047 -14340372.67645  22206100.1414                   22206099.3054
   3116993.51646   2469263.26243  24337755.1644                   24337756.3954
 -59331492.07447 -46149574.05945  21494259.2034                   21494257.8134
 11  8 14  0 39 30.0000000  0  8G09G12G02G17G10G05G25G04
 -31604278.63746 -23919006.91443  23477058.5554                   23477059.9964
 -27612084.91847 -21303789.14145  21515898.2274                   21515895.9304
 -48710010.52348 -37914724.56246  20574148.0554                   20574143.5664
 -44984088.25447 -35019264.99644  23020519.0164                   23020518.2734
 -40263281.65247 -30158986.24645  20871385.5944                   20871383.0314
 -18640909.87147 -14484150.66045  22170988.2664                   22170987.1604
   2924835.21946   2319529.57843  24301187.8284                   24301190.4264
 -59347431.62147 -46161994.53945  21491225.6174                   21491224.7424
 11  8 14  0 40  0.0000000  0  8G09G12G02G17G10G05G25G04
 -31618046.46946 -23929735.22744  23474438.8134                   23474440.3484
 -27766758.77747 -21424314.20745  21486464.6724                   21486462.4104
 -48804423.04348 -37988292.73846  20556181.9924                   20556177.5634
 -45023435.12946 -35049924.94144  23013031.3834                   23013030.7114
 -40362269.95347 -30236119.97345  20852548.2344                   20852546.1214
 -18825134.98047 -14627702.57445  22135931.7894                   22135930.7544
   2732844.60946   2169926.56343  24264654.6094                   24264656.0594
 -59363182.02047 -46174267.60945  21488228.7584                   21488227.1954
 11  8 14  0 40 30.0000000  0  8G09G12G02G17G10G05G25G04
 -31631589.79746 -23940288.59443  23471861.5164                   23471863.0864
 -27921002.79347 -21544504.33245  21457113.0784                   21457110.6094
 -48898508.20347 -38061605.84446  20538278.3444                   20538273.7974
 -45062608.30946 -35080449.53944  23005576.8444                   23005576.0554
 -40460608.91847 -30312747.72745  20833835.5474                   20833833.0904
 -19009066.66047 -14771025.85245  22100929.7664                   22100929.2974
   2541024.22746   2020456.19943  24228151.5314                   24228154.1094
 -59378745.16847 -46186394.77745  21485267.7034                   21485265.9774
 11  8 14  0 41  0.0000000  0  8G09G12G02G17G10G05G25G04
 -31644913.42646 -23950670.75043  23469325.7584                   23469326.9804
 -28074815.89547 -21664358.69945  21427843.3054                   21427840.1134
 -48992268.17647 -38134665.53946  20520436.1094                   20520431.3674
 -45101608.55146 -35110839.37944  22998155.0864                   22998154.3164
 -40558299.12547 -30388869.94545  20815245.4304                   20815243.2464
 -19192703.50847 -14914119.39545  22065985.1644                   22065983.9454
   2349375.48046   1871119.59043  24191682.1024                   24191684.4924
 -59394124.41447 -46198378.64145  21482340.4144                   21482339.5234
 11  8 14  0 41 30.0000000  0  8G09G12G02G17G10G05G25G04
 -31658019.18446 -23960883.14843  23466832.4454                   23466833.8404
 -28228194.24647 -21783874.29745  21398656.0704                   21398653.8054
 -49085702.39847 -38207471.42246  20502656.3674                   20502651.8954
 -45140433.75446 -35141092.83644  22990767.6094                   22990766.2814
 -40655338.82047 -30464485.27345  20796779.4614                   20796777.2464
 -19376040.89847 -15056979.59445  22031097.4064                   22031095.9104
   2157902.33646   1721919.77343  24155246.0394                   24155248.1374
 -59409320.31647 -46210219.62145  21479449.1094                   21479447.6334
 11  8 14  0 42  0.0000000  0  8G09G12G02G17G10G05G25G04
 -31670911.97746 -23970929.60543  23464378.6254                   23464380.0944
 -28381137.06647 -21903050.53945  21369552.3674                   21369549.6134
 -49178813.38747 -38280025.42646  20484937.7894                   20484933.2344
 -45179084.84846 -35171210.62144  22983412.8524                   22983411.0554
 -40751728.54747 -30539594.13745  20778436.6724                   20778435.2034
 -19559077.65247 -15199605.53545  21996266.4614                   21996264.8634
   1966605.94146   1572857.73044  24118843.1254                   24118845.5864
 -59424336.59047 -46221920.65645  21476592.2504                   21476589.8404
 11  8 14  0 42 30.0000000  0  8G09G12G02G17G10G05G25G04
 -31683594.77046 -23980812.41443  23461965.6804                   23461967.1844
 -28533640.74247 -22021884.59845  21340532.2664                   21340529.2304
 -49271601.78147 -38352328.05946  20467280.7504                   20467275.9414
 -45217560.42246 -35201191.62944  22976091.3834                   22976089.1844
 -40847467.34047 -30614195.77745  20760218.5234                   20760216.3204
 -19741809.91447 -15341994.20345  21961493.5164                   21961492.4534
   1775489.52046   1423935.93443  24082474.6174                   24082477.6684
 -59439174.45347 -46233482.65245  21473768.1724                   21473766.3444
 11  8 14  0 43  0.0000000  0  8G09G12G02G17G10G05G25G04
 -30120651.72746 -22762934.83643  23759383.4534                   23759385.2034
 -27110279.63347 -20912772.05145  21611388.7114                   21611386.0044
 -47788646.57847 -37196778.55146  20749478.2194                   20749473.6254
 -43680440.19546 -34003435.70744  23268595.2274                   23268593.9884
 -39367132.70747 -29460688.25445  21041916.6254                   21041914.2384
 -18348810.30547 -14256539.85945  22226572.9454                   22226571.1524
   3159980.77046   2502760.39143  24345934.8754                   24345936.7504
 -57878416.68447 -45017307.79745  21770770.5234                   21770769.1174
 11  8 14  0 43 30.0000000  0  8G09G12G02G17G10G05G25G04
 -30132926.43046 -22772499.63743  23757048.4304                   23757050.1454
 -27261900.94547 -21030918.54345  21582536.3914                   21582533.5984
 -47880794.64147 -37268582.22746  20731942.6484                   20731938.3324
 -43718565.31646 -34033143.65644  23261340.6174                   23261339.0594
 -39461569.99647 -29534275.73845  21023945.7194                   21023943.6174
 -18530927.20347 -14398449.03145  22191916.6254                   22191915.4924
   2969230.18046   2354123.63744  24309636.8984                   24309637.7934
 -57892905.82847 -45028598.05145  21768013.1414                   21768011.8364
 11  8 14  0 44  0.0000000  0  8G09G12G02G17G10G05G25G04
 -30145003.02046 -22781910.09843  23754750.2734                   23754751.3914
 -27413077.98047 -21148718.82845  21553768.0554                   21553765.6094
 -47972624.91048 -37340138.27346  20714468.1024                   20714463.3634
 -43756515.01646 -34062714.90644  23254118.9614                   23254117.6954
 -39555356.58247 -29607356.17645  21006098.5394                   21006096.3984
 -18712732.66847 -14540115.53545  22157320.8674                   22157319.5164
   2778665.67246   2205631.95343  24273373.0944                   24273374.7974
 -57907224.29347 -45039755.30145  21765288.5474                   21765286.9494
 11  8 14  0 44 30.0000000  0  8G09G12G02G17G10G05G25G04
 -30156885.35546 -22791169.17243  23752489.2114                   23752490.3984
 -27563809.21547 -21266171.73446  21525084.7424                   21525082.2664
 -48064139.09047 -37411448.02746  20697053.9534                   20697048.9224
 -43794289.54346 -34092149.66444  23246930.1804                   23246929.3874
 -39648492.50847 -29679929.60245  20988375.1094                   20988373.5044
 -18894224.64547 -14681537.75845  22122783.1564                   22122782.5664
   2588289.18846   2057286.78143  24237145.9144                   24237146.6254
 -57921375.01647 -45050781.84845  21762595.6884                   21762594.2034
 11  8 14  0 45  0.0000000  0  8G09G12G02G17G10G05G25G04
 -30168576.37146 -22800279.15643  23750264.5704                   23750265.9144
 -27714091.77047 -21383275.02045  21496487.0864                   21496484.7234
 -48155338.00047 -37482512.10546  20679698.6484                   20679693.9064
 -43831887.60246 -34121446.90644  23239775.5784                   23239775.0004
 -39740977.02747 -29751995.44145  20970776.3834                   20970774.2734
 -19075399.36347 -14822712.76245  22088307.0704                   22088305.9344
   2398103.80546   1909090.48043  24200954.3054                   24200955.8594
 -57935359.35247 -45061678.74245  21759934.2734                   21759933.2074
 11  8 14  0 45 30.0000000  0  8G09G12G02G17G10G05G25G04
 -30180077.38346 -22809241.08243  23748076.6804                   23748077.1684
 -27863921.37947 -21500025.34845  21467975.4064                   21467973.2584
 -48246220.63747 -37553329.73846  20662404.2344                   20662399.6414
 -43869306.89146 -34150604.81244  23232656.1884                   23232654.8484
 -39832808.13747 -29823552.13745  20953301.5474                   20953299.3594
 -19256252.14147 -14963636.90645  22053891.6484                   22053890.3674
   2208114.05146   1761046.60543  24164800.1954                   24164801.9064
 -57949177.47347 -45072446.09845  21757304.9384                   21757303.6454
 11  8 14  0 46  0.0000000  0  8G09G12G02G17G10G05G25G04
 -30191393.01246 -22818058.60243  23745922.8054                   23745924.0704
 -28013296.75047 -21616421.73846  21439550.0944                   21439547.4494
 -48336789.05547 -37623902.52346  20645169.8754                   20645165.4694
 -43906547.73046 -34179623.68444  23225568.3444                   23225567.5554
 -39923986.49247 -29894600.18045  20935950.6254                   20935948.9614
 -19436781.27747 -15104308.86745  22019537.9924                   22019537.6214
   2018321.48046   1613156.41843  24128683.9384                   24128684.6604
 -57962832.44147 -45083086.33245  21754706.5164                   21754704.9774
 11  8 14  0 46 30.0000000  0  8G09G12G02G17G10G05G25G04
 -30202527.71146 -22826735.07043  23743803.9454                   23743805.8054
 -28162216.73047 -21732463.27345  21411211.4924                   21411208.8754
 -48427045.63347 -37694232.31646  20627994.4694                   20627990.1994
 -43943610.86746 -34208504.07444  23218516.1804                   23218514.6604
 -40014512.77747 -29965140.12545  20918723.8754                   20918721.6374
 -19616984.93747 -15244727.20345  21985246.6564                   21985244.7894
   1828727.52046   1465420.92243  24092605.1094                   24092606.5634
 -57976327.23847 -45093601.76245  21752138.9924                   21752137.0594
 11  8 14  0 47  0.0000000  0  8G09G12G02G17G10G05G25G04
 -30213484.09046 -22835272.61743  23741719.1024                   23741721.0084
 -28310677.93747 -21848147.30546  21382960.0784                   21382957.9304
 -48516990.41047 -37764319.14546  20610879.0474                   20610874.3164
 -43980494.66446 -34237244.73444  23211497.1884                   23211495.6564
 -40104385.78947 -30035171.03545  20901622.1804                   20901619.9144
 -19796859.11347 -15384888.80545  21951017.6094                   21951016.7154
   1639335.71946   1317843.03543  24056564.8524                   24056566.6484
 -57989662.95347 -45103993.21945  21749601.2504                   21749599.4264
 11  8 14  0 47 30.0000000  0  8G09G12G02G17G10G05G25G04
 -30224269.25846 -22843676.73443  23739666.7814                   23739668.5594
 -28458681.99247 -21963475.11345  21354795.9614                   21354793.8164
 -48606628.30147 -37834166.82846  20593821.0864                   20593816.3634
 -44017202.54746 -34265848.32044  23204512.3284                   23204510.5664
 -40193609.41447 -30104695.91445  20884642.7504                   20884640.9064
 -19976404.93047 -15524794.53945  21916850.9384                   21916849.9344
   1450145.04746   1170421.81643  24020563.4844                   24020564.7034
 -58002845.54747 -45114265.35545  21747092.5634                   21747090.9574
 11  8 14  0 48  0.0000000  0  8G09G12G02G17G10G05G25G04
 -30234884.46546 -22851948.41843  23737647.3524                   23737648.9064
 -28606224.60947 -22078443.36345  21326719.7894                   21326717.2934
 -48695958.50847 -37903774.76246  20576822.0784                   20576817.7304
 -44053731.82046 -34294312.70344  23197561.2584                   23197559.3014
 -40282181.09047 -30173712.78545  20867788.8204                   20867786.1994
 -20155617.73047 -15664440.79745  21882748.0004                   21882746.2664
   1261160.07046   1023160.85543  23984600.7734                   23984601.6844
 -58015874.72347 -45124417.95745  21744613.4774                   21744611.4264
 11  8 14  0 48 30.0000000  0  8G09G12G02G17G10G05G25G04
 -30245331.78546 -22860089.29743  23735658.4614                   23735660.9384
 -28753302.21147 -22193049.27346  21298731.8594                   21298729.0864
 -48784980.77747 -37973142.73446  20559881.4844                   20559877.4694
 -44090080.62946 -34322636.45344  23190643.8204                   23190642.2774
 -40370099.24247 -30242220.41445  20851058.2344                   20851055.9184
 -20334493.04747 -15803824.07045  21848708.6254                   21848707.3834
   1072384.84446    876063.35944  23948677.4224                   23948679.0704
 -58028751.11347 -45134451.52045  21742162.9454                   21742161.0634
 11  8 14  0 49  0.0000000  0  8G09G12G02G17G10G05G25G04
 -30255615.00846 -22868102.27343  23733701.6254                   23733704.2584
 -28899912.88347 -22307291.34446  21270832.8834                   21270830.1134
 -48873696.46947 -38042271.83246  20542999.7504                   20542994.8364
 -44126248.75846 -34350819.42644  23183761.3524                   23183759.7814
 -40457364.06247 -30310218.94145  20834452.0474                   20834449.8164
 -20513028.04747 -15942942.16445  21814734.6024                   21814733.4804
    883821.60946    729131.08243  23912794.9694                   23912797.1134
 -58041477.04347 -45144367.82845  21739741.4304                   21739739.6844
 11  8 14  0 49 30.0000000  0  8G09G12G02G17G10G05G25G04
 -30265738.81246 -22875991.03943  23731775.6954                   23731777.1684
 -29046055.71147 -22421168.84845  21243023.2504                   21243020.0514
 -48962108.09047 -38111163.98846  20526175.6644                   20526170.8134
 -44162236.65246 -34378861.93044  23176913.1334                   23176911.5514
 -40543977.31247 -30377709.76245  20817970.0164                   20817968.0084
 -20691221.82447 -16081794.37545  21780825.8054                   21780824.2934
    695471.71946    582365.03943  23876953.2194                   23876954.5824
 -58054055.84047 -45154169.49245  21737347.8284                   21737345.8834
 11  8 14  0 50  0.0000000  0  8G09G12G02G17G10G05G25G04
 -30275705.53146 -22883757.40243  23729879.6094                   23729880.6724
 -29191727.45347 -22534679.27745  21215302.1024                   21215299.3554
 -49050215.77347 -38179819.30546  20509409.1484                   20509404.4534
 -44198043.54347 -34406763.41844  23170099.8914                   23170098.2034
 -40629937.61347 -30444691.78945  20801612.6094                   20801610.3524
 -20869070.19947 -16220377.43445  21746982.1094                   21746980.3754
    507338.92246    435768.13743  23841152.8984                   23841154.1174
 -58066488.32047 -45163857.13744  21734981.6414                   21734980.1724
 11  8 14  0 50 30.0000000  0  8G09G12G02G17G10G05G25G04
 -30285518.00446 -22891403.57443  23728012.4144                   23728014.0084
 -29336924.91447 -22647820.13745  21187672.0234                   21187669.1374
 -49138020.40647 -38248238.48046  20492700.3984                   20492695.7464
 -44233667.97346 -34434522.69944  23163319.8914                   23163318.2664
 -40715244.55147 -30511164.70745  20785379.1804                   20785376.9694
 -21046569.75047 -16358688.68745  21713204.5004                   21713203.4734
    319426.19146    289342.72343  23805394.2734                   23805395.4654
 -58078775.96547 -45173431.92245  21732643.5704                   21732641.7814
 11  8 14  0 51  0.0000000  0  8G09G12G02G17G10G05G25G04
 -30295179.23846 -22898931.89843  23726173.0784                   23726175.9384
 -29481646.07047 -22760589.87146  21160132.3834                   21160129.9384
 -49225522.39147 -38316421.82046  20476049.3594                   20476044.6214
 -44269108.92247 -34462139.03544  23156576.2424                   23156574.3954
 -40799897.20747 -30577127.78545  20769270.3054                   20769267.7344
 -21223717.30147 -16496725.65645  21679494.7584                   21679493.1844
    131736.77746    143091.33643  23769677.7664                   23769679.2894
 -58090920.21947 -45182894.99645  21730332.3524                   21730331.1094
 11  8 14  0 51 30.0000000  0  8G09G12G02G17G10G05G25G04
 -30304693.89146 -22906346.03143  23724363.1484                   23724365.0124
 -29625890.00847 -22872987.71946  21132684.0704                   21132681.2464
 -49312724.36747 -38384371.39546  20459455.3834                   20459451.0594
 -44304367.43446 -34489613.23444  23149866.2664                   23149864.8364
 -40883897.21947 -30642582.32045  20753285.8134                   20753283.3054
 -21400511.43047 -16634487.25045  21645852.2974                   21645850.0594
    -55728.13747     -2985.12544  23734004.2034                   23734005.6374
 -58102924.31647 -45192248.84045  21728048.4304                   21728046.4384
 11  8 14  0 52  0.0000000  0  8G09G12G02G17G10G05G25G04
 -28738645.35546 -21686048.55143  24022372.0394                   24022374.4654
 -28194229.96947 -21757408.45745  21405119.6884                   21405116.8444
 -47824204.94547 -37224486.12146  20742711.5634                   20742706.5084
 -42764021.93046 -33289344.01644  23442984.2424                   23442983.0084
 -39391822.06247 -29479926.32445  21037217.8834                   21037215.9414
 -20001523.68747 -15544366.85545  21912070.3134                   21912068.8754
   1332460.08247   1078720.14544  23998168.6024                   23998168.9184
 -56539370.13747 -43973894.95744  22025582.5554                   22025581.0634
 11  8 14  0 52 30.0000000  0  8G09G12G02G17G10G05G25G04
 -28747876.58246 -21693241.84043  24020615.8364                   24020617.9024
 -28337512.23447 -21869056.96545  21377854.0474                   21377851.6174
 -47910809.74247 -37291970.37546  20726230.5944                   20726226.0354
 -42798913.23446 -33316532.07044  23436344.7734                   23436342.6374
 -39474516.53147 -29544363.53945  21021482.2584                   21021479.5904
 -20177602.23447 -15681570.83645  21878563.7344                   21878561.9654
   1145452.62146    933000.18444  23962581.3984                   23962583.0394
 -56551099.16447 -43983034.48045  22023350.8914                   22023349.3204
 11  8 14  0 53  0.0000000  0  8G09G12G02G17G10G05G25G04
 -28756972.48446 -21700329.68043  24018885.3134                   24018887.2704
 -28480311.68047 -21980329.23846  21350679.9384                   21350677.2814
 -47997118.78547 -37359224.16446  20709806.6414                   20709801.9144
 -42833621.77046 -33343577.72344  23429739.5474                   23429738.1374
 -39556559.62147 -29608293.19145  21005869.7734                   21005866.6604
 -20353319.97347 -15818493.68445  21845125.6954                   21845124.2464
    958676.57447    787460.47744  23927039.1024                   23927039.9024
 -56562694.81247 -43992070.07045  22021143.9144                   22021142.3284
 11  8 14  0 53 30.0000000  0  8G09G12G02G17G10G05G25G04
 -28765934.04346 -21707312.85543  24017180.1724                   24017182.1564
 -28622623.84047 -22091221.82046  21323599.1884                   21323595.8594
 -48083131.30548 -37426246.88346  20693439.0784                   20693434.7584
 -42868144.51646 -33370478.60244  23423170.6414                   23423169.2894
 -39637949.38747 -29671713.76645  20990381.3754                   20990379.1764
 -20528671.93047 -15955131.49645  21811757.2344                   21811755.3794
    772136.71547    642104.83244  23891541.7344                   23891543.1094
 -56574156.78147 -44001001.50445  22018963.1484                   22018961.1054
 11  8 14  0 54  0.0000000  0  8G09G12G02G17G10G05G25G04
 -28774766.07446 -21714195.04343  24015499.1644                   24015500.9774
 -28764448.39847 -22201734.45346  21296610.6644                   21296607.7584
 -48168850.00848 -37493040.66046  20677127.2274                   20677122.7304
 -42902482.50046 -33397235.48444  23416637.4384                   23416634.3014
 -39718687.50047 -29734626.55145  20975017.9144                   20975015.2424
 -20703656.69547 -16091483.19945  21778458.5944                   21778457.0234
    585834.28547    496934.20344  23856089.6334                   23856090.5274
 -56585488.22347 -44009831.21945  22016806.8834                   22016804.8364
 11  8 14  0 54 30.0000000  0  8G09G12G02G17G10G05G25G04
 -28783474.73446 -21720981.13343  24013842.5704                   24013843.4104
 -28905785.58247 -22311867.31646  21269715.1724                   21269712.7234
 -48254278.43447 -37559608.25446  20660870.7974                   20660866.1024
 -42936637.71946 -33423849.94944  23410136.7114                   23410135.2154
 -39798776.46547 -29797033.51645  20959777.4384                   20959774.7114
 -20878274.29747 -16227548.78545  21745230.1644                   21745228.4804
    399769.39147    351948.64143  23820682.0704                   23820683.4614
 -56596693.70747 -44018562.79344  22014674.3204                   22014672.3164
 11  8 14  0 55  0.0000000  0  8G09G12G02G17G10G05G25G04
 -28792061.30546 -21727672.06243  24012207.8914                   24012209.9654
 -29046631.46947 -22421617.35246  21242912.6414                   21242910.6804
 -48339415.84447 -37625949.07046  20644670.2274                   20644665.1294
 -42970608.00446 -33450320.29343  23403671.9224                   23403671.2854
 -39878214.64147 -29858933.37545  20944661.2734                   20944658.1454
 -21052520.10247 -16363324.66845  21712072.4694                   21712070.7894
    213946.53547    207151.68043  23785321.5394                   23785322.4414
 -56607773.34847 -44027196.31244  22012565.8284                   22012564.5474
 11  8 14  0 55 30.0000000  0  8G09G12G02G17G10G05G25G04
 -28800532.41046 -21734273.03943  24010596.0864                   24010598.1414
 -29186987.16447 -22530985.40646  21216204.0864                   21216201.9534
 -48424266.92247 -37692066.77346  20628523.1334                   20628518.7854
 -43004396.48046 -33476648.96943  23397242.6024                   23397241.2114
 -39957005.91447 -29920329.15245  20929667.2114                   20929664.7464
 -21226394.53947 -16498811.17645  21678984.4614                   21678983.3284
     28365.10947     62542.82843  23750006.6954                   23750007.6094
 -56618732.04747 -44035735.58644  22010480.8914                   22010478.8754
 11  8 14  0 56  0.0000000  0  8G09G12G02G17G10G05G25G04
 -28808888.64146 -21740784.43743  24009006.4064                   24009008.6914
 -29326848.09048 -22639967.94145  21189589.2974                   21189586.3554
 -48508829.89548 -37757959.98446  20612431.6024                   20612426.3674
 -43037999.28546 -33502833.02343  23390848.4144                   23390847.7384
 -40035147.57847 -29981218.73845  20914796.8284                   20914795.1994
 -21399892.09047 -16634004.00445  21645969.2504                   21645967.6844
   -156969.46147    -81873.69543  23714737.9614                   23714738.9304
 -56629568.94947 -44044179.94144  22008418.4384                   22008416.6054
 11  8 14  0 56 30.0000000  0  8G09G12G02G17G10G05G25G04
 -28817133.45746 -21747209.08643  24007437.3914                   24007439.8204
 -29466212.19147 -22748563.33246  21163069.2424                   21163066.5904
 -48593105.99648 -37823629.65246  20596393.5784                   20596389.3754
 -43071416.27046 -33528872.22743  23384489.5234                   23384488.4144
 -40112640.10947 -30041602.50045  20900050.9774                   20900048.6484
 -21573010.11347 -16768901.09445  21613025.9384                   21613024.1024
   -342054.59446   -226095.82844  23679517.5314                   23679518.8794
 -56640285.91847 -44052530.85245  22006379.5004                   22006377.4884
 11  8 14  0 57  0.0000000  0  8G09G12G02G17G10G05G25G04
 -28825269.51246 -21753548.93443  24005888.8364                   24005890.9654
 -29605076.52047 -22856769.28146  21136644.1094                   21136641.5354
 -48677095.75447 -37889076.19146  20580411.3524                   20580406.2194
 -43104646.14146 -33554765.60943  23378164.7114                   23378164.7974
 -40189482.99247 -30101480.05945  20885427.6954                   20885425.7114
 -21745745.19947 -16903499.78545  21580155.2274                   21580153.1994
   -526886.94547   -370120.96144  23644345.2504                   23644346.7114
 -56650884.20747 -44060789.28545  22004362.7974                   22004361.2934
 11  8 14  0 57 30.0000000  0  8G09G12G02G17G10G05G25G04
 -28833300.89546 -21759807.23443  24004360.8914                   24004363.0004
 -29743440.08647 -22964585.03946  21110314.5394                   21110311.9454
 -48760801.45347 -37954301.39546  20564482.4454                   20564477.8524
 -43137689.72346 -33580513.82843  23371877.3134                   23371876.2734
 -40265677.99247 -30160852.77045  20870928.5164                   20870926.3794
 -21918095.51247 -17037798.66045  21547358.3834                   21547356.1254
   -711464.70347   -513947.75044  23609221.3524                   23609222.5394
 -56661366.28147 -44068957.14845  22002367.6484                   22002366.5314
 11  8 14  0 58  0.0000000  0  8G09G12G02G17G10G05G25G04
 -28841230.94946 -21765986.55543  24002852.1804                   24002854.3834
 -29881300.85547 -23072008.99246  21084080.7034                   21084078.0784
 -48844224.03147 -38019305.97746  20548608.0704                   20548603.2854
 -43170546.21946 -33606116.30143  23365624.7734                   23365623.7234
 -40341225.01647 -30219720.56245  20856552.1174                   20856550.4844
 -22090058.54747 -17171795.76245  21514634.5084                   21514632.6604
   -895785.18746   -657574.02744  23574146.8204                   23574147.7384
 -56671734.04747 -44077035.94144  22000394.3364                   22000393.7274
 11  8 14  0 58 30.0000000  0  8G09G12G02G17G10G05G25G04
 -28849064.00446 -21772090.33643  24001362.2034                   24001364.2734
 -30018657.89147 -23179040.41446  21057942.0004                   21057939.6294
 -48927365.71147 -38084091.67246  20532786.0864                   20532781.8204
 -43203216.21146 -33631573.42643  23359408.4774                   23359406.7504
 -40416125.39847 -30278084.48445  20842299.3284                   20842297.1764
 -22261632.61747 -17305489.77745  21481985.2194                   21481983.5864
  -1079846.65247   -800998.52343  23539120.7114                   23539121.6684
 -56681990.18747 -44085027.77044  21998443.0164                   21998441.8914
 11  8 14  0 59  0.0000000  0  8G09G12G02G17G10G05G25G04
 -28856803.19146 -21778120.92643  23999888.5234                   23999891.0354
 -30155509.23047 -23285677.78146  21031900.5944                   21031897.9064
 -49010227.84847 -38148659.54746  20517018.5164                   20517013.4964
 -43235699.38746 -33656885.00044  23353228.1884                   23353225.1954
 -40490379.66047 -30335944.93445  20828168.8914                   20828167.2234
 -22432814.75047 -17438878.38345  21449410.5004                   21449408.4144
  -1263646.42247   -944219.07843  23504144.8444                   23504145.4844
 -56692136.46547 -44092933.96144  21996511.8754                   21996510.9494
 11  8 14  0 59 30.0000000  0  8G09G12G02G17G10G05G25G04
 -28864451.67646 -21784080.93043  23998432.7344                   23998435.1524
 -30291852.42647 -23391919.19546  21005955.3444                   21005952.3014
 -49092811.09448 -38213010.11746  20501303.4614                   20501298.4924
 -43267995.00446 -33682050.41844  23347082.1564                   23347079.6994
 -40563988.37547 -30393302.35245  20814161.8594                   20814159.9804
 -22603602.19147 -17571959.44145  21416910.6024                   21416908.8324
  -1447181.64146  -1087233.45743  23469218.8754                   23469219.2154
 -56702174.31047 -44100755.68344  21994601.8914                   21994600.8014
 11  8 14  1  0  0.0000000  0  8G09G12G02G17G10G05G25G04
 -28872014.19146 -21789973.88743  23996993.8054                   23996996.6564
 -30427686.85547 -23497764.17646  20980106.8204                   20980103.5234
 -49175118.09848 -38277145.43446  20485640.6954                   20485635.6804
 -43300103.72746 -33707070.19544  23340971.0164                   23340970.4264
 -40636953.23447 -30450158.06645  20800277.0784                   20800275.4494
 -22773993.27347 -17704731.64845  21384486.5234                   21384484.5164
  -1630450.80146  -1230040.53944  23434344.0554                   23434344.8954
 -56712107.15647 -44108495.56244  21992712.1094                   21992710.5084
 11  8 14  1  0 30.0000000  0  8G09G12G02G17G10G05G25G04
 -27304072.92646 -20568201.56243  24295363.8134                   24295366.6174
 -28987585.46947 -22375607.20346  21254149.1254                   21254145.7034
 -47681726.33247 -37113463.50846  20769823.5864                   20769819.0634
 -41756603.62146 -32504342.84044  23634690.2034                   23634689.0394
 -39133851.87947 -29278910.25445  21086307.6414                   21086305.6214
 -21368559.30947 -16609588.23045  21651931.3284                   21651929.5944
   -238024.49646   -145032.95744  23699313.9144                   23699314.5984
 -55146515.42647 -42888553.98044  22290634.4224                   22290632.9844
 11  8 14  1  1  0.0000000  0  8G09G12G02G17G10G05G25G04
 -27311472.05146 -20573967.25843  24293955.3054                   24293957.6804
 -29122395.77747 -22480654.15646  21228495.5234                   21228492.3554
 -47763483.27748 -37177170.20746  20754266.0164                   20754261.4304
 -41788336.84846 -32529070.02044  23628650.5944                   23628650.4454
 -39205529.80147 -29334763.16045  21072667.9384                   21072666.2584
 -21538149.37147 -16741736.28546  21619659.5084                   21619657.1414
   -420752.78546   -287418.56644  23664541.7734                   23664542.5434
 -55156241.77747 -42896132.96944  22288783.4534                   22288781.6684
 11  8 14  1  1 30.0000000  0  8G09G12G02G17G10G05G25G04
 -27318796.34846 -20579674.61742  24292561.7814                   24292563.8794
 -29256693.12947 -22585301.40646  21202939.0394                   21202936.2504
 -47844968.96148 -37240665.53146  20738760.1254                   20738754.6214
 -41819883.57046 -32553651.89144  23622648.1024                   23622647.5164
 -39276567.14547 -29390116.91845  21059150.2504                   21059148.4344
 -21707336.93747 -16873570.67645  21587464.0164                   21587461.9184
   -603208.56646   -429591.82843  23629821.0554                   23629822.2114
 -55165869.64147 -42903635.22344  22286951.8134                   22286949.8164
 11  8 14  1  2  0.0000000  0  8G09G12G02G17G10G05G25G04
 -27326048.96546 -20585326.19143  24291182.4614                   24291184.7854
 -29390475.44147 -22689547.31646  21177481.4534                   21177478.5554
 -47926184.57047 -37303950.40646  20723304.3984                   20723300.2934
 -41851243.10546 -32578087.88744  23616680.9064                   23616679.7584
 -39346964.37947 -29444971.89145  21045753.8754                   21045751.9414
 -21876119.22347 -17005089.27746  21555345.6644                   21555344.0314
   -785388.96547   -571550.53944  23595153.9224                   23595154.6644
 -55175400.50847 -42911061.87544  22285138.0704                   22285136.2034
 11  8 14  1  2 30.0000000  0  8G09G12G02G17G10G05G25G04
 -27333229.64146 -20590921.69943  24289815.9924                   24289818.7234
 -29523737.25847 -22793387.65246  21152122.1564                   21152119.5904
 -48007127.65648 -37367022.93746  20707902.0554                   20707896.8324
 -41882411.49646 -32602374.95744  23610748.7894                   23610748.4654
 -39416718.28147 -29499325.57445  21032480.1414                   21032477.9804
 -22044489.93447 -17136287.16445  21523305.6884                   21523304.1604
   -967287.77347   -713289.80944  23560539.6484                   23560541.0594
 -55184832.52347 -42918411.50044  22283342.7974                   22283341.3014
 11  8 14  1  3  0.0000000  0  8G09G12G02G17G10G05G25G04
 -27340345.75046 -20596466.89143  24288462.0944                   24288464.8324
 -29656480.88347 -22896824.21146  21126862.1024                   21126858.8324
 -48087803.37948 -37429887.13746  20692549.5554                   20692544.6994
 -41913392.59846 -32626516.11344  23604854.0784                   23604852.6214
 -39485833.94547 -29553181.91045  21019327.9534                   21019325.5984
 -22212450.71147 -17267165.63346  21491343.5084                   21491341.9064
  -1148906.38347   -854810.73044  23525978.2034                   23525979.6454
 -55194171.31647 -42925688.47344  22281565.6174                   22281564.1954
 11  8 14  1  3 30.0000000  0  8G09G12G02G17G10G05G25G04
 -27347399.22746 -20601963.30543  24287119.1954                   24287122.4534
 -29788703.21148 -22999854.55946  21101701.2504                   21101698.1484
 -48168211.53148 -37492542.82446  20677248.4304                   20677243.7344
 -41944184.34046 -32650509.73044  23598995.6024                   23598993.2074
 -39554310.49247 -29606540.24645  21006297.5004                   21006295.0394
 -22379997.45347 -17397721.46146  21459460.8594                   21459458.7114
  -1330240.70347   -996110.13344  23491472.2584                   23491472.8404
 -55203417.12947 -42932893.00444  22279806.3524                   22279805.1174
 11  8 14  1  4  0.0000000  0  8G09G12G02G17G10G05G25G04
 -27354394.31646 -20607414.28943  24285788.6724                   24285791.3164
 -29920403.49647 -23102478.13346  21076639.0084                   21076636.1374
 -48248354.54348 -37554991.93046  20661998.3134                   20661993.5164
 -41974787.78546 -32674356.58643  23593170.8914                   23593168.9574
 -39622150.09447 -29659402.26245  20993387.6174                   20993385.4304
 -22547129.04347 -17527953.80946  21427656.6024                   21427654.8244
  -1511289.27347  -1137186.86744  23457018.6024                   23457020.2154
 -55212573.01647 -42940027.45344  22278064.4534                   22278062.3484
 11  8 14  1  4 30.0000000  0  8G09G12G02G17G10G05G25G04
 -27361331.07446 -20612819.86742  24284468.9774                   24284470.9694
 -30051576.63348 -23204690.94146  21051677.9924                   21051674.9384
 -48328230.48048 -37617232.91046  20646797.8134                   20646793.1414
 -42005199.24246 -32698053.86343  23587384.3524                   23587382.1094
 -39689350.44947 -29711766.17245  20980599.6024                   20980597.8364
 -22713839.50047 -17657858.00046  21395933.1024                   21395930.5634
  -1692046.33247  -1278036.46144  23422621.8444                   23422622.9804
 -55221637.43447 -42947090.65244  22276339.1484                   22276337.9844
 11  8 14  1  5  0.0000000  0  8G09G12G02G17G10G05G25G04
 -27368210.77746 -20618180.92643  24283161.2194                   24283163.4224
 -30182218.85948 -23306490.06645  21026817.4064                   21026814.5864
 -48407838.79748 -37679265.36346  20631649.0864                   20631644.0634
 -42035415.97746 -32721599.35943  23581632.7194                   23581632.6914
 -39755910.00047 -29763630.73845  20967933.7194                   20967931.9494
 -22880124.10247 -17787430.35946  21364289.8524                   21364287.9224
  -1872507.10947  -1418655.16844  23388281.5864                   23388282.2734
 -55230609.94547 -42954082.23044  22274631.8984                   22274630.1844
 11  8 14  1  5 30.0000000  0  8G09G12G02G17G10G05G25G04
 -27375040.05546 -20623502.73842  24281860.1644                   24281864.1054
 -30312331.71548 -23407876.68746  21002057.9384                   21002054.8054
 -48487183.44948 -37741092.36346  20616550.3984                   20616545.5314
 -42065441.79746 -32744996.10943  23575920.1724                   23575918.9414
 -39821832.91047 -29814999.23445  20955389.5314                   20955387.0664
 -23045983.90247 -17916671.68746  21332727.7584                   21332725.7384
  -2052672.22347  -1559043.50844  23353997.1644                   23353998.2894
 -55239495.74647 -42961006.25444  22272941.3134                   22272939.2464
 11  8 14  1  6  0.0000000  0  8G09G12G02G17G10G05G25G04
 -27381822.70746 -20628788.22743  24280570.1254                   24280572.8554
 -30441914.07447 -23508849.95746  20977399.4454                   20977395.8324
 -48566266.63748 -37802715.62546  20601501.0784                   20601496.5204
 -42095276.38346 -32768243.85243  23570241.5554                   23570241.6484
 -39887121.01247 -29865873.07445  20942965.5084                   20942963.2934
 -23211416.90648 -18045580.46146  21301246.5864                   21301244.5784
  -2232539.55547  -1699199.81644  23319769.8444                   23319770.6914
 -55248296.73047 -42967864.17244  22271266.0474                   22271264.4064
 11  8 14  1  6 30.0000000  0  8G09G12G02G17G10G05G25G04
 -27388561.85546 -20634039.84442  24279288.3444                   24279291.0664
 -30570964.22747 -23609408.50446  20952841.7664                   20952838.4064
 -48645089.31648 -37864135.87546  20586501.9534                   20586497.2194
 -42124919.09446 -32791342.06643  23564602.3914                   23564600.6994
 -39951774.71147 -29916252.57045  20930662.0084                   20930659.9924
 -23376420.40247 -18174154.55946  21269847.2814                   21269845.2814
  -2412106.40647  -1839121.96944  23285599.1024                   23285599.9884
 -55257014.48447 -42974657.23444  22269607.3754                   22269605.2424
 11  8 14  1  7  0.0000000  0  8G09G12G02G17G10G05G25G04
 -27395259.00046 -20639258.71943  24278013.5554                   24278016.4414
 -30699479.16048 -23709550.01246  20928385.5864                   20928382.7814
 -48723651.25448 -37925352.96546  20571551.8674                   20571547.5124
 -42154368.37946 -32814289.59843  23558998.0634                   23558996.3834
 -40015793.65647 -29966137.44945  20918479.7034                   20918477.4694
 -23540990.71147 -18302391.10546  21238530.9774                   21238528.7704
  -2591368.68047  -1978806.80944  23251486.4064                   23251487.3284
 -55265649.22747 -42981385.61344  22267963.7504                   22267962.5594
 11  8 14  1  7 30.0000000  0  8G09G12G02G17G10G05G25G04
 -27401917.61746 -20644447.59443  24276746.5234                   24276750.1684
 -30827456.82848 -23809272.87946  20904032.6254                   20904029.8794
 -48801953.91848 -37986368.00846  20556651.1644                   20556646.8204
 -42183623.89846 -32837086.09443  23553430.4454                   23553430.2664
 -40079179.09447 -30015528.68445  20906417.8594                   20906415.3054
 -23705125.36747 -18430288.18746  21207296.6414                   21207294.5474
  -2770323.82047  -2118252.30144  23217432.9144                   23217433.6684
 -55274202.80147 -42988050.75044  22266336.2664                   22266334.9454
 11  8 14  1  8  0.0000000  0  8G09G12G02G17G10G05G25G04
 -27408543.50846 -20649610.96943  24275487.0944                   24275489.3794
 -30954898.16847 -23908577.80946  20879781.5314                   20879778.5904
 -48880001.16848 -38047184.04746  20541799.6804                   20541794.5004
 -42212688.20346 -32859733.59043  23547899.7974                   23547899.1414
 -40141934.58247 -30064429.06245  20894476.0164                   20894473.1454
 -23868824.60948 -18557845.98846  21176146.0164                   21176143.8484
  -2948971.89547  -2257458.53544  23183436.7814                   23183438.2774
 -55282679.35247 -42994655.85244  22264723.1414                   22264722.0274
 11  8 14  1  8 30.0000000  0  8G09G12G02G17G10G05G25G04
 -27415136.82046 -20654748.90243  24274232.4064                   24274235.3284
 -31081799.03148 -24007461.60246  20855632.8914                   20855630.7074
 -48957791.13747 -38107799.59446  20526996.3054                   20526992.1644
 -42241557.86346 -32882229.42443  23542405.1174                   23542405.6684
 -40204057.95747 -30112836.88345  20882654.6724                   20882652.0474
 -24032082.85247 -18685060.14846  21145078.5784                   21145076.5514
  -3127307.18047  -2396421.01644  23149500.8204                   23149501.8094
 -55291077.49247 -43001199.85544  22263125.2664                   22263124.5314
 11  8 14  1  9  0.0000000  0  8G09G12G02G17G10G05G25G04
 -27421705.03546 -20659867.27043  24272982.0554                   24272985.6334
 -31208161.84448 -24105926.12946  20831586.7974                   20831584.3594
 -49035329.16848 -38168218.82046  20512241.1414                   20512237.0664
 -42270236.44946 -32904576.36343  23536948.9694                   23536948.3284
 -40265554.55147 -30160756.28545  20870952.0234                   20870949.3914
 -24194901.81247 -18811932.02046  21114095.1094                   21114093.2384
  -3305331.20746  -2535140.96944  23115624.0784                   23115624.5514
 -55299402.96147 -43007687.23444  22261541.0164                   22261539.3874
 11  8 14  1  9 30.0000000  0  8G09G12G02G17G10G05G25G04
 -25852829.03946 -19437366.74642  24571530.0554                   24571533.4104
 -29758558.58647 -22976365.15246  21107437.1334                   21107434.6954
 -47537191.85948 -37000839.08646  20797327.7194                   20797322.6644
 -40723300.91446 -31699172.06243  23831321.1484                   23831319.4224
 -38751001.12947 -28980584.77745  21159161.5634                   21159159.3444
 -22781851.64848 -17710853.91846  21382990.0864                   21382987.8554
  -1907613.23447  -1446010.02044  23381600.7814                   23381601.7034
 -53732235.05947 -41786517.44544  22559763.6254                   22559761.6524
 11  8 14  1 10  0.0000000  0  8G09G12G02G17G10G05G25G04
 -25859351.74646 -19442449.63742  24570288.7664                   24570292.4924
 -29883835.53547 -23073983.55146  21083597.6804                   21083595.6094
 -47614224.86347 -37060864.78146  20782668.3134                   20782664.1724
 -40751592.13746 -31721217.18443  23825937.6564                   23825936.1914
 -38811242.33247 -29027525.96945  21147698.2894                   21147696.3834
 -22943780.39147 -17837032.10546  21352175.9694                   21352173.8634
  -2085001.94947  -1584234.93444  23347844.9454                   23347845.3554
 -53740415.18747 -41792891.57844  22558206.5944                   22558204.6604
 11  8 14  1 10 30.0000000  0  8G09G12G02G17G10G05G25G04
 -25865857.28146 -19447519.11342  24569050.9844                   24569054.4964
 -30008567.78148 -23171177.50446  21059861.9614                   21059859.0044
 -47691007.89148 -37120695.69546  20768057.1724                   20768052.8444
 -40779689.89146 -31743111.53943  23820591.9534                   23820589.6024
 -38870858.59047 -29073980.16845  21136353.6024                   21136351.5944
 -23105261.08247 -17962861.17246  21321446.9774                   21321444.8364
  -2262069.73447  -1722209.77744  23314149.9064                   23314150.6414
 -53748525.59047 -41799211.35944  22556662.8834                   22556661.3324
 11  8 14  1 11  0.0000000  0  8G09G12G02G17G10G05G25G04
 -25872348.84045 -19452577.66842  24567815.5394                   24567819.9694
 -30132754.13348 -23267946.08646  21036230.2584                   21036227.4304
 -47767542.42648 -37180332.98446  20753493.2664                   20753488.9224
 -40807593.79746 -31764854.85943  23815280.4064                   23815279.6414
 -38929851.00847 -29119948.26645  21125127.5004                   21125125.1214
 -23266291.45347 -18088339.33246  21290804.0004                   21290801.8134
  -2438814.17247  -1859932.67244  23280516.2114                   23280516.9574
 -53756568.09447 -41805478.24244  22555132.6804                   22555130.7114
 11  8 14  1 11 30.0000000  0  8G09G12G02G17G10G05G25G04
 -25878830.47745 -19457628.52742  24566582.1884                   24566586.6764
 -30256393.65648 -23364288.55546  21012702.3284                   21012699.6804
 -47843830.59448 -37239778.28146  20738976.0394                   20738971.7974
 -40835304.87146 -31786447.91043  23810007.3674                   23810005.4924
 -38988221.65247 -29165431.85545  21114020.1724                   21114017.6454
 -23426869.87547 -18213465.32846  21260246.9064                   21260244.4884
  -2615233.48447  -1997402.20344  23246944.8444                   23246945.7034
 -53764545.01647 -41811694.03144  22553614.8134                   22553613.0594
 11  8 14  1 12  0.0000000  0  8G09G12G02G17G10G05G25G04
 -25885304.93745 -19462673.75842  24565350.8984                   24565354.6844
 -30379484.89847 -23460203.78546  20989279.4064                   20989276.1684
 -47919873.23448 -37299032.27346  20724505.5634                   20724500.9774
 -40862822.03546 -31807889.86743  23804771.1884                   23804769.6604
 -39045971.45347 -29210431.68445  21103030.8834                   21103028.1374
 -23586993.96947 -18338237.30146  21229776.5164                   21229774.1254
  -2791324.76247  -2134616.11344  23213436.4924                   23213436.1724
 -53772457.88347 -41817859.89144  22552108.5864                   22552107.1604
 11  8 14  1 12 30.0000000  0  8G09G12G02G17G10G05G25G04
 -25891773.71945 -19467714.58242  24564119.4614                   24564123.7154
 -30502024.34847 -23555689.05146  20965960.3834                   20965957.5434
 -47995669.93048 -37358094.62146  20710082.5164                   20710077.6644
 -40890143.94146 -31829179.71543  23799571.7344                   23799570.4494
 -39103100.09047 -29254947.48045  21092159.3204                   21092157.2704
 -23746659.39147 -18462651.87146  21199392.9614                   21199390.5394
  -2967083.63747  -2271571.03544  23179990.1094                   23179990.5664
 -53780305.96947 -41823975.26244  22550615.4144                   22550613.9414
 11  8 14  1 13  0.0000000  0  8G09G12G02G17G10G05G25G04
 -25898240.91845 -19472754.18042  24562889.4454                   24562893.2734
 -30624011.80148 -23650744.17646  20942746.9224                   20942744.4414
 -48071222.75448 -37416966.94146  20695704.2504                   20695699.9414
 -40917271.19145 -31850317.87143  23794408.3834                   23794408.2934
 -39159609.59047 -29298980.83645  21081406.2814                   21081403.6844
 -23905865.38347 -18586708.43446  21169096.8984                   21169094.6564
  -3142508.50847  -2408265.70744  23146607.6724                   23146608.0314
 -53788092.21947 -41830042.45344  22549133.6644                   22549132.3754
 11  8 14  1 13 30.0000000  0  8G09G12G02G17G10G05G25G04
 -25904708.62145 -19477794.12542  24561658.9304                   24561662.7664
 -30745444.65648 -23745367.15646  20919639.1564                   20919636.2074
 -48146532.01648 -37475649.48846  20681373.8364                   20681369.1174
 -40944202.08246 -31871302.99643  23789284.3834                   23789284.2384
 -39215500.21947 -29342531.94545  21070770.6954                   21070768.3834
 -24064608.37947 -18710404.23446  21138889.4774                   21138886.9414
  -3317595.77747  -2544697.31244  23113289.2974                   23113290.0704
 -53795817.07846 -41836061.80144  22547663.7274                   22547662.9104
 11  8 14  1 14  0.0000000  0  8G09G12G02G17G10G05G25G04
 -25911182.40245 -19482838.80943  24560426.8364                   24560431.3594
 -30866323.71147 -23839558.60246  20896636.3364                   20896634.0354
 -48221601.06248 -37534144.85246  20667089.0474                   20667083.9024
 -40970939.08646 -31892137.03943  23784196.1094                   23784195.5004
 -39270775.78947 -29385603.79345  21060252.0944                   21060249.6844
 -24222888.30547 -18833739.20346  21108769.6334                   21108767.1374
  -3492345.16447  -2680865.60944  23080035.5704                   23080036.5164
 -53803484.25047 -41842036.22744  22546205.0394                   22546203.7074
 11  8 14  1 14 30.0000000  0  8G09G12G02G17G10G05G25G04
 -25917664.40245 -19487889.90642  24559193.3984                   24559197.7194
 -30986646.84848 -23933316.85946  20873739.7344                   20873736.5514
 -48296430.78548 -37592453.71546  20652849.1804                   20652844.8204
 -40997480.95746 -31912819.00043  23779145.7664                   23779145.7624
 -39325436.46547 -29428196.50845  21049850.1334                   21049847.4964
 -24380702.21947 -18956711.03146  21078738.7274                   21078736.4694
  -3666753.22747  -2816767.94144  23046847.4304                   23046847.4694
 -53811094.43047 -41847966.20344  22544756.3834                   22544754.8014
 11  8 14  1 15  0.0000000  0  8G09G12G02G17G10G05G25G04
 -25924157.78545 -19492949.89842  24557958.0084                   24557962.5634
 -31106412.78948 -24026640.94546  20850949.0314                   20850945.8094
 -48371022.12548 -37650576.82446  20638654.7814                   20638650.7384
 -41023827.27346 -31933348.59443  23774132.7814                   23774132.0314
 -39379483.77047 -29470311.26645  21039565.4304                   21039563.2074
 -24538047.78148 -19079317.91846  21048796.7194                   21048794.7344
  -3840817.19947  -2952402.15644  23013724.0234                   23013724.3914
 -53818648.93447 -41853852.82844  22543318.9304                   22543317.3714
 11  8 14  1 15 30.0000000  0  8G09G12G02G17G10G05G25G04
 -25930667.57045 -19498022.66442  24556719.0004                   24556724.5944
 -31225621.98448 -24119531.20346  20828265.1174                   20828261.4224
 -48445377.79348 -37708516.30946  20624504.7664                   20624500.6294
 -41049979.73046 -31953727.11343  23769156.0004                   23769155.0354
 -39432920.83247 -29511950.50845  21029396.9384                   21029394.3834
 -24694924.26247 -19201559.28146  21018944.0634                   21018941.9694
  -4014536.32447  -3087767.69144  22980666.4924                   22980666.7584
 -53826151.20347 -41859698.75044  22541892.1094                   22541889.8094
 11  8 14  1 16  0.0000000  0  8G09G12G02G17G10G05G25G04
 -25937197.34845 -19503111.05542  24555477.9694                   24555482.6024
 -31344273.50447 -24211986.89846  20805685.4774                   20805682.6954
 -48519499.83648 -37766273.74646  20610400.6644                   20610395.7424
 -41075938.58246 -31973954.79343  23764217.2584                   23764215.4104
 -39485749.79747 -29553115.90645  21019343.8834                   21019340.9304
 -24851330.46147 -19323434.19546  20989180.4144                   20989178.8094
  -4187908.59447  -3222862.91444  22947674.6804                   22947674.9494
 -53833603.10947 -41865505.44144  22540473.1174                   22540471.5744
 11  8 14  1 16 30.0000000  0  8G09G12G02G17G10G05G25G04
 -25943748.08245 -19508215.71142  24554230.8524                   24554236.6914
 -31462363.74647 -24304005.25046  20783213.7194                   20783210.8554
 -48593387.33248 -37823848.41046  20596339.7034                   20596335.4224
 -41101701.29746 -31994029.62543  23759314.0234                   23759312.7034
 -39537969.92647 -29593806.89845  21009406.8914                   21009404.2584
 -25007261.86748 -19444939.13746  20959507.8914                   20959505.7894
  -4360929.37547  -3357684.27044  22914749.6174                   22914749.9064
 -53841004.05147 -41871272.38744  22539064.9534                   22539062.9734
 11  8 14  1 17  0.0000000  0  8G09G12G02G17G10G05G25G04
 -25950323.86745 -19513339.87942  24552978.9694                   24552985.9384
 -31579892.73447 -24395586.27046  20760848.9774                   20760845.5004
 -48667042.49648 -37881242.04346  20582323.8444                   20582319.5434
 -41127269.45746 -32013952.87943  23754449.0944                   23754446.8714
 -39589583.79347 -29634025.46945  20999584.7274                   20999582.3524
 -25162717.53147 -19566073.37946  20929925.8054                   20929923.5704
  -4533597.14147  -3492230.55944  22881891.8674                   22881892.8324
 -53848356.75447 -41877001.78944  22537665.9224                   22537664.3594
 11  8 14  1 17 30.0000000  0  8G09G12G02G17G10G05G25G04
 -25956926.516 5                  24551723.469
 -31696858.19147 -24486728.16846  20738591.2894                   20738588.0234
 -48740465.27748 -37938454.59446  20568351.7274                   20568347.2504
 -41152641.26646 -32033723.12143  23749620.7584                   23749618.8594
 -39640591.69147 -29673771.87145  20989878.4614                   20989875.5474
 -25317694.15247 -19686834.33646  20900434.3674                   20900432.4264
  -4705908.15247  -3626498.85544  22849102.2814                   22849102.8164
 -53855661.18746 -41882693.57444  22536275.6094                   22536274.3984
 11  8 14  1 18  0.0000000  0  8G09G12G02G17G10G05G25G04
 -24388139.477 5                  24850253.578
 -30237835.60948 -23349827.44146  21016233.6564                   21016230.5514
 -47238235.39848 -36767885.85946  20854217.1724                   20854212.3054
 -39602396.60946 -30825740.25443  24044621.9774                   24044620.2624
 -38115574.33647 -28485446.63745  21280079.1334                   21280076.8484
 -23896765.07847 -18579616.82446  21170828.1644                   21170826.0984
  -3302434.84447  -2532883.28144  23116173.9774                   23116175.3524
 -52287499.33247 -40660749.25444  22834687.1254                   22834685.6414
 11  8 14  1 18 30.0000000  0  8G09G12G02G17G10G05G25G04
 -24394806.488 5                  24848986.047
 -30353671.28947 -23440089.00046  20994190.7894                   20994187.6094
 -47311199.10947 -36824740.68446  20840332.4694                   20840327.5394
 -39627376.60946 -30845205.19143  24039867.7584                   24039867.1914
 -38165376.50047 -28524253.50845  21270602.3524                   21270599.8164
 -24050778.54747 -18699627.27346  21141520.4384                   21141518.6134
  -3474025.96947  -2666590.62544  23083521.5234                   23083522.5824
 -52294713.02047 -40666370.32844  22833314.3284                   22833312.7584
 11  8 14  1 19  0.0000000  0  8G09G12G02G17G10G05G25G04
 -24401510.641 5                  24847708.945
 -30468940.43048 -23529909.10246  20972255.8444                   20972252.5004
 -47383935.04348 -36881418.02746  20826491.3284                   20826486.8554
 -39652160.75446 -30864517.52343  24035151.8594                   24035150.6844
 -38214578.20747 -28562592.48045  21261239.7894                   21261237.0514
 -24204307.28547 -18819260.02046  21112305.0084                   21112302.7464
  -3645253.56647  -2800014.69944  23050937.8594                   23050938.8204
 -52301883.80947 -40671957.97344  22831949.3364                   22831947.9694
 11  8 14  1 19 30.0000000  0  8G09G12G02G17G10G05G25G04
 -24408254.254 5                  24846426.820
 -30583641.17648 -23619286.30146  20950429.2114                   20950426.1644
 -47456443.75848 -36937918.30946  20812693.0784                   20812689.0554
 -39676748.00046 -30883676.37943  24030473.4224                   24030471.6214
 -38263180.51247 -28600464.38745  21251990.8364                   21251988.4774
 -24357348.44947 -18938512.83246  21083182.0234                   21083180.2734
  -3816114.28547  -2933152.90644  23018424.7114                   23018424.8404
 -52309011.91846 -40677512.37544  22830592.8204                   22830591.7814
 11  8 14  1 20  0.0000000  0  8G09G12G02G17G10G05G25G04
 -24415039.125 5                  24845134.852
 -30697771.44147 -23708218.96146  20928710.6954                   20928707.7624
 -47528725.60548 -36994241.82446  20798938.5234                   20798934.1214
 -39701137.18446 -30902680.95743  24025831.6804                   24025830.8164
 -38311184.05147 -28637869.73445  21242855.6094                   21242853.9654
 -24509899.33247 -19057383.59846  21054152.4144                   21054150.1484
  -3986604.60247  -3066002.50044  22985981.2344                   22985982.0744
 -52316098.10547 -40683034.09444  22829244.8674                   22829243.6454
 11  8 14  1 20 30.0000000  0  8G09G12G02G17G10G05G25G04
 -24421872.22315                  24843833.664
 -30811333.78948 -23796709.10246  20907100.6644                   20907097.5984
 -47600785.33248 -37050392.25046  20785226.1024                   20785221.3364
 -39725331.81246 -30921533.98043  24021228.6884                   24021226.4924
 -38358593.77347 -28674812.37145  21233833.8754                   21233831.9924
 -24661961.21147 -19175873.34046  21025216.1724                   21025213.7704
  -4156725.67247  -3198564.35244  22953608.1884                   22953608.9614
 -52323147.35546 -40688527.03144  22827903.1954                   22827902.1524
 11  8 14  1 21  0.0000000  0  8G09G12G02G17G10G05G25G04
 -24428754.05545 -18290400.93452  24842525.0944                   24842531.9774
 -30924324.70747 -23884753.96546  20885599.1254                   20885596.4184
 -47672621.87548 -37106368.75446  20771556.1724                   20771551.1804
 -39749329.60946 -30940233.54343  24016661.3204                   24016659.9844
 -38405409.43747 -28711292.10545  21224925.7894                   21224923.6214
 -24813529.89547 -19293978.76646  20996373.5234                   20996371.5044
  -4326472.65647  -3330834.71144  22921306.0944                   22921307.2974
 -52330158.63346 -40693990.39844  22826568.6804                   22826567.7074
 11  8 14  1 21 30.0000000  0  8G09G12G02G17G10G05G25G04
 -24435685.93745 -18295802.62142  24841205.5704                   24841213.4574
 -31036741.32047 -23972351.32046  20864206.6484                   20864203.6884
 -47744234.80148 -37162171.01246  20757927.8674                   20757924.2664
 -39773128.46946 -30958778.13343  24012133.4144                   24012131.3794
 -38451630.75847 -28747308.70745  21216129.6174                   21216127.8524
 -24964601.44147 -19411696.79746  20967625.5704                   20967623.4144
  -4495841.15647  -3462810.12944  22889076.1024                   22889077.3954
 -52337131.51246 -40699423.83244  22825243.1254                   22825241.2624
 11  8 14  1 22  0.0000000  0  8G09G12G02G17G10G05G25G04
 -24442670.30945 -18301245.30142  24839877.9384                   24839884.4224
 -31148582.23047 -24059500.07846  20842924.0004                   20842920.8014
 -47815624.77748 -37217799.54346  20744343.0634                   20744338.7154
 -39796728.03546 -30977167.45343  24007642.1644                   24007641.2544
 -38497259.12947 -28782863.27745  21207447.2504                   21207444.8954
 -25115173.72747 -19529025.80946  20938972.5234                   20938970.1414
  -4664828.25447  -3594488.34044  22856918.9614                   22856920.0824
 -52344066.94546 -40704828.09044  22823922.4924                   22823921.4454
 11  8 14  1 22 30.0000000  0  8G09G12G02G17G10G05G25G04
 -24449712.89845 -18306733.24642  24838538.6564                   24838545.0004
 -31259849.10948 -24146201.53946  20821750.6564                   20821748.1454
 -47886795.52047 -37273257.24646  20730800.2814                   20730795.0594
 -39820130.64846 -30995403.30143  24003189.6024                   24003187.1994
 -38542299.16847 -28817959.40645  21198876.2974                   21198874.0744
 -25265247.32047 -19645966.23046  20910414.8674                   20910412.3284
  -4833434.11347  -3725869.49244  22824835.4384                   22824835.5904
 -52350968.96946 -40710206.32444  22822609.4534                   22822608.1024
 11  8 14  1 23  0.0000000  0  8G09G12G02G17G10G05G25G04
 -24456814.66045 -18312267.32042  24837186.7114                   24837193.6844
 -31370538.65247 -24232453.13346  20800687.6254                   20800684.1524
 -47957746.29348 -37328543.54346  20717298.5394                   20717293.7464
 -39843334.03546 -31013483.88343  23998773.0944                   23998772.1024
 -38586750.35547 -28852596.69545  21190417.5164                   21190415.4344
 -25414818.37547 -19762515.06646  20881952.2274                   20881949.5784
  -5001654.26647  -3856950.09444  22792823.7504                   22792824.4104
 -52357836.92246 -40715557.99643  22821301.6334                   22821301.0164
 11  8 14  1 23 30.0000000  0  7G12G02G17G10G05G25G04
 -31480652.61747 -24318256.20746  20779733.6094                   20779730.6524
 -48028480.95747 -37383661.47346  20703838.2814                   20703833.4534
 -39866341.11746 -31031411.49243  23994396.0084                   23994394.5394
 -38630616.79347 -28886778.32445  21182069.8914                   21182067.5514
 -25563887.21147 -19878672.56246  20853585.1644                   20853582.9654
  -5169488.62547  -3987730.03544  22760886.0554                   22760886.4494
 -52364674.52746 -40720886.02344  22820001.4774                   22819999.9224
 11  8 14  1 24  0.0000000  0  7G12G02G17G10G05G25G04
 -31590187.53548 -24403608.08646  20758889.4304                   20758886.8794
 -48098998.43447 -37438610.13746  20690419.1644                   20690414.5704
 -39889148.91046 -31049183.78943  23990055.0864                   23990054.3914
 -38673898.27047 -28920504.14145  21173833.8984                   21173831.5354
 -25712449.85247 -19994435.62146  20825314.5554                   20825312.2464
  -5336932.42647  -4118205.65644  22729022.2344                   22729022.4264
 -52371480.80146 -40726189.64144  22818706.2504                   22818704.3014
 11  8 14  1 24 30.0000000  0  7G12G02G17G10G05G25G04
 -31699138.87147 -24488505.21946  20738156.8914                   20738153.9454
 -48169296.16047 -37493387.56646  20677042.0394                   20677037.1994
 -39911754.05546 -31066798.22743  23985753.5864                   23985752.5784
 -38716592.87147 -28953772.65245  21165709.3284                   21165706.8054
 -25860500.21547 -20109799.50046  20797141.5554                   20797138.9884
  -5503979.53947  -4248372.17644  22697234.0234                   22697234.3444
 -52378253.30946 -40731466.94944  22817417.3594                   22817415.4454
 11  8 14  1 25  0.0000000  0  7G12G02G17G10G05G25G04
 -31807504.03948 -24572945.60946  20717535.3984                   20717532.8054
 -48239373.94547 -37547993.60946  20663706.3594                   20663701.6684
 -39934154.59446 -31084253.15243  23981490.1174                   23981489.9494
 -38758700.53947 -28986583.81245  21157696.5474                   21157694.1844
 -26008034.99247 -20224761.62946  20769066.6094                   20769064.3554
  -5670625.62147  -4378226.19144  22665521.8984                   22665523.1644
 -52384991.58646 -40736717.57844  22816135.6564                   22816133.8134
 11  8 14  1 25 30.0000000  0  7G12G02G17G10G05G25G04
 -31915282.34447 -24656928.70746  20697026.0004                   20697023.6334
 -48309232.31248 -37602428.69546  20650413.0164                   20650408.2114
 -39956350.52046 -31101548.70743  23977267.4224                   23977265.5634
 -38800223.42247 -29018939.30145  21149795.0634                   21149792.3524
 -26155052.73848 -20339320.87146  20741089.8204                   20741087.8204
  -5836868.45747  -4507765.99644  22633887.0314                   22633888.5554
 -52391697.13747 -40741942.69544  22814859.1174                   22814857.4964
 11  8 14  1 26  0.0000000  0  7G12G02G17G10G05G25G04
 -32022475.62548 -24740455.92646  20676627.7814                   20676625.1294
 -48378875.65248 -37656696.23046  20637159.8594                   20637155.3634
 -39978344.62546 -31118686.99643  23973081.6954                   23973080.0124
 -38841166.53147 -29050843.00045  21142003.4844                   21142001.4184
 -26301554.40247 -20453477.97746  20713211.6954                   20713209.3054
  -6002708.54347  -4636991.94544  22602328.5004                   22602329.5274
 -52398373.93447 -40747145.39844  22813588.5314                   22813587.5944
 11  8 14  1 26 30.0000000  0  7G12G02G17G10G05G25G04
 -32129082.40648 -24823526.13746  20656341.2504                   20656338.5704
 -48448304.79748 -37710796.85246  20623948.3984                   20623943.6094
 -40000136.09046 -31135667.32843  23968935.1804                   23968933.0354
 -38881530.97747 -29082295.80545  21134322.2034                   21134319.8954
 -26447537.16447 -20567230.73846  20685432.0164                   20685429.3914
  -6168142.70347  -4765901.62144  22570847.5554                   22570847.7734
 -52405022.89146 -40752326.42644  22812324.3524                   22812322.3834
 11  8 14  1 27  0.0000000  0  7G12G02G17G10G05G25G04
 -30659681.03547 -23678538.05146  20935959.3134                   20935955.9534
 -46942100.94948 -36537131.50046  20910569.0704                   20910564.6764
 -38446307.16046 -29924891.55943  24264618.8134                   24264616.9694
 -37345899.76247 -27885700.03545  21426543.4144                   21426540.6604
 -25017576.89548 -19452975.94946  20957544.1414                   20957541.7664
  -4757745.40647  -3666890.67644  22839237.5554                   22839237.5274
 -50836227.27346 -39529888.26644  23110854.6804                   23110854.1644
 11  8 14  1 27 30.0000000  0  7G12G02G17G10G05G25G04
 -30765115.94948 -23760695.10546  20915895.5004                   20915892.6054
 -47011108.08648 -36590903.28546  20897437.8594                   20897432.7704
 -38467697.32846 -29941559.21542  24260548.2974                   24260546.3324
 -37385115.98847 -27916258.10545  21419080.9224                   21419078.5704
 -25162519.99647 -19565918.58246  20929962.7114                   20929960.3954
  -4922363.72347  -3795164.61344  22807911.5944                   22807911.8554
 -50842827.15646 -39535031.04344  23109599.2734                   23109597.8014
 11  8 14  1 28  0.0000000  0  7G12G02G17G10G05G25G04
 -30869965.48848 -23842396.03946  20895943.1564                   20895940.6024
 -47079908.10948 -36644513.69546  20884345.7894                   20884340.6954
 -38488888.33246 -29958071.69543  24256515.4774                   24256514.1994
 -37423763.06647 -27946372.69545  21411726.5944                   21411724.1214
 -25306943.08647 -19678456.01646  20902479.6414                   20902477.6374
  -5086572.43447  -3923119.39544  22776663.2974                   22776663.7344
 -50849406.18746 -39540157.59044  23108347.3984                   23108346.0204
 11  8 14  1 28 30.0000000  0  7G12G02G17G10G05G25G04
 -30974229.08647 -23923640.38346  20876102.6954                   20876099.7424
 -47148502.42248 -36697963.78946  20871292.3284                   20871287.5274
 -38509880.51646 -29974429.24243  24252521.4224                   24252520.2274
 -37461843.03147 -27976045.37145  21404480.0554                   21404477.4614
 -25450844.22747 -19790586.73046  20875096.4144                   20875094.0004
  -5250369.26247  -4050753.21144  22745494.0004                   22745494.3364
 -50855966.05546 -39545269.20344  23107099.1334                   23107097.5004
 11  8 14  1 29  0.0000000  0  7G12G02G17G10G05G25G04
 -31077906.24248 -24004427.76246  20856373.3204                   20856371.0004
 -47216891.93748 -36751254.31646  20858277.8674                   20858273.5474
 -38530673.95346 -29990631.89543  24248564.4224                   24248563.0204
 -37499357.78547 -28005277.62945  21397341.1414                   21397338.3324
 -25594221.48847 -19902309.23046  20847812.6954                   20847809.9734
  -5413751.77347  -4178064.20345  22714403.8594                   22714404.0434
 -50862507.65646 -39550366.56244  23105854.3594                   23105852.7424
 11  8 14  1 29 30.0000000  0  7G12G02G17G10G05G25G04
 -31180997.51248 -24084758.60546  20836755.7894                   20836753.0594
 -47285079.11347 -36804387.16846  20845302.7974                   20845298.1214
 -38551269.90245 -30006680.68743  24244644.7504                   24244644.4694
 -37536310.93047 -28034072.25845  21390309.3134                   21390306.7384
 -25737074.58247 -20013623.28146  20820628.2344                   20820626.0984
  -5576718.87147  -4305051.50445  22683392.2584                   22683392.3634
 -50869033.63746 -39555451.74643  23104612.5864                   23104610.9844
 11  8 14  1 30  0.0000000  0  7G12G02G17G10G05G25G04
 -31283498.90647 -24164629.80546  20817250.5784                   20817247.2464
 -47353062.18747 -36857360.97746  20832365.7664                   20832360.9104
 -38571664.97745 -30022573.01242  24240763.1414                   24240764.1884
 -37572701.31247 -28062428.37545  21383384.8524                   21383381.6604
 -25879398.65647 -20124525.12146  20793545.1484                   20793542.8204
  -5739264.98447  -4431710.76645  22652460.1484                   22652460.8284
 -50875541.87546 -39560523.12143  23103374.2424                   23103373.0984
 11  8 14  1 30 30.0000000  0  7G12G02G17G10G05G25G04
 -31385414.87947 -24244044.83246  20797856.1954                   20797853.7274
 -47420847.02347 -36910180.31246  20819466.8284                   20819462.0234
 -38591864.21945 -30038312.66042  24236919.2424                   24236920.7814
 -37608536.00847 -28090351.49245  21376565.3364                   21376562.5784
 -26021197.12948 -20235017.39146  20766561.3834                   20766559.5234
  -5901392.73447  -4558044.01645  22621608.2424                   22621608.6174
 -50882038.57446 -39565585.50043  23102137.2894                   23102136.0314
 11  8 14  1 31  0.0000000  0  7G12G02G17G10G05G25G04
 -31486739.87147 -24322999.34846  20778574.6884                   20778572.3444
 -47488430.43047 -36962842.69546  20806605.5314                   20806601.8594
 -38611863.14845 -30053896.25043  24233114.8914                   24233114.2624
 -37643812.69147 -28117839.78945  21369852.5164                   21369849.6294
 -26162463.74247 -20345095.23046  20739679.5084                   20739676.7234
  -6063095.21947  -4684045.90645  22590836.9384                   22590837.8014
 -50888520.40646 -39570636.27043  23100904.3524                   23100902.7304
 11  8 14  1 31 30.0000000  0  7G12G02G17G10G05G25G04
 -31587475.61747 -24401494.71546  20759405.5554                   20759402.7974
 -47555815.13347 -37015350.25446  20793783.2584                   20793778.7304
 -38631663.62546 -30069325.16043  24229346.7974                   24229346.2424
 -37678535.14547 -28144896.23445  21363244.4844                   21363242.5394
 -26303198.33647 -20454758.51646  20712898.5944                   20712896.0704
  -6224371.78547  -4809715.91045  22560147.7034                   22560147.8014
 -50894990.23446 -39575677.69143  23099673.2734                   23099671.2464
 11  8 14  1 32  0.0000000  0  7G12G02G17G10G05G25G04
 -31687620.73847 -24479529.84846  20740348.4614                   20740346.0164
 -47623002.19947 -37067703.80146  20780998.2114                   20780993.3794
 -38651265.18746 -30084599.16443  24225616.5784                   24225616.2114
 -37712705.18447 -28171522.23045  21356742.1094                   21356739.7734
 -26443399.23047 -20564005.92646  20686219.1024                   20686216.5864
  -6385219.53547  -4935051.77345  22529539.1254                   22529539.3204
 -50901448.50446 -39580710.13743  23098443.8134                   23098442.4264
 11  8 14  1 32 30.0000000  0  7G12G02G17G10G05G25G04
 -31787175.19947 -24557104.73846  20721403.8284                   20721400.9574
 -47689992.63347 -37119904.12146  20768250.3444                   20768245.5394
 -38670668.12946 -30099718.28943  24221924.1804                   24221923.8364
 -37746324.86747 -28197719.37145  21350344.8674                   21350341.9184
 -26583065.14147 -20672836.46146  20659641.2424                   20659639.0314
  -6545636.62147  -5060052.04345  22499012.4304                   22499012.7304
 -50907896.85546 -39585734.82443  23097217.4454                   23097215.4654
 11  8 14  1 33  0.0000000  0  7G12G02G17G10G05G25G04
 -31886140.13347 -24634220.25046  20702571.2664                   20702568.4264
 -47756789.69547 -37171953.77346  20755539.0004                   20755534.2234
 -38689874.41046 -30114684.21943  24218269.9844                   24218268.8244
 -37779398.69147 -28223491.16045  21344050.8284                   21344048.3834
 -26722196.27348 -20781250.29746  20633165.3834                   20633163.0044
  -6705622.57047  -5184716.38345  22468568.6954                   22468568.4694
 -50914338.53546 -39590754.35943  23095991.5314                   23095989.8054
 11  8 14  1 33 30.0000000  0  7G12G02G17G10G05G25G04
 -31984514.27747 -24710875.41046  20683851.6024                   20683848.4924
 -47823393.52347 -37223852.83646  20742864.6094                   20742859.8794
 -38708883.07446 -30129496.17643  24214652.2424                   24214651.1024
 -37811927.64147 -28248838.37945  21337860.4384                   21337858.3284
 -26860790.32047 -20889245.62546  20606791.9454                   20606789.5354
  -6865174.07047  -5309042.18045  22438206.5394                   22438206.0124
 -50920773.51246 -39595768.65643  23094766.7734                   23094765.3014
 11  8 14  1 34  0.0000000  0  8G29G12G02G17G10G05G25G04
  15417141.14856  12097293.94953  24519585.1564                   24519586.3054
 -32082303.17247 -24787074.53946  20665242.8364                   20665239.9264
 -47889811.64547 -37275607.20746  20730225.4614                   20730221.3914
 -38727700.22346 -30144158.88343  24211070.6804                   24211070.6174
 -37843920.18747 -28273767.63345  21331772.7894                   21331770.0784
 -26998851.98847 -20996826.10946  20580519.7344                   20580517.2424
  -7024294.92247  -5433032.41045  22407926.9304                   22407926.9734
 -50927209.03146 -39600783.36343  23093542.1644                   23093540.6414
 11  8 14  1 34 30.0000000  0  8G29G12G02G17G10G05G25G04
  15248461.94546  11965855.72743  24487485.4384                   24487486.8754
 -32179504.95747 -24862816.16846  20646746.0004                   20646743.1174
 -47956043.72747 -37327216.60546  20717622.1254                   20717617.7664
 -38746325.12946 -30158671.77043  24207526.8444                   24207526.3094
 -37875377.36347 -28298279.70345  21325787.0234                   21325784.4734
 -27136378.47348 -21103989.57846  20554349.2504                   20554346.7154
  -7182981.69547  -5556684.38745  22377730.0394                   22377730.7584
 -50933644.94546 -39605798.39843  23092317.5394                   23092315.9144
 11  8 14  1 35  0.0000000  0  8G29G12G02G17G10G05G25G04
  15079714.81346  11834364.53943  24455374.6174                   24455374.7624
 -32276119.92247 -24938100.54346  20628361.0784                   20628358.0474
 -48022091.31247 -37378682.25046  20705054.0004                   20705049.2464
 -38764757.80546 -30173034.92243  24204019.1484                   24204018.7464
 -37906301.70747 -28322376.58645  21319901.6334                   21319899.6134
 -27273368.64147 -21210735.12946  20528281.0394                   20528278.5084
  -7341232.40247  -5679996.56645  22347615.5634                   22347616.2194
 -50940082.71146 -39610814.89143  23091091.9774                   23091091.4024
 11  8 14  1 35 30.0000000  0  8G29G12G02G17G10G05G25G04
  14910901.69946  11702821.98443  24423250.0394                   24423250.3484
 -32372146.35947 -25012926.32846  20610087.8054                   20610084.5044
 -48087954.08247 -37430003.86746  20692520.5704                   20692516.0124
 -38782996.94946 -30187247.23443  24200549.3524                   24200547.1684
 -37936694.03547 -28346058.91045  21314118.6804                   21314116.5274
 -27409819.45748 -21317060.40246  20502315.1414                   20502312.4024
  -7499043.24247  -5802965.98045  22317584.8204                   22317585.6254
 -50946522.01246 -39615832.57843  23089867.3914                   23089865.4184
 11  8 14  1 36  0.0000000  0  8G29G12G02G17G10G05G25G04
  16317450.73046  12798834.27043  24690907.5474                   24690908.0274
 -30892158.19147 -23859688.78146  20891719.9774                   20891717.1094
 -46578209.09447 -36253579.19946  20979815.6484                   20979810.6884
 -37225620.19946 -28973706.92643  24496908.0234                   24496906.4654
 -36391133.50047 -27141726.02745  21608228.7814                   21608226.8404
 -25970302.92648 -20195359.18046  20776245.9224                   20776243.4924
  -6080984.68447  -4697985.22345  22587432.3054                   22587432.9264
 -49377541.46946 -38393250.38343  23388434.8674                   23388432.4804
 11  8 14  1 36 30.0000000  0  8G29G12G02G17G10G05G25G04
  16148509.05946  12667191.50043  24658759.1484                   24658759.3014
 -30987003.80947 -23933594.44546  20873671.3134                   20873668.2114
 -46643703.76647 -36304614.00446  20967352.2734                   20967347.6524
 -37243471.13346 -28987616.73443  24493511.2814                   24493509.5124
 -36420466.68747 -27164583.05145  21602647.1724                   21602644.4884
 -26105669.00047 -20300839.20346  20750486.8134                   20750484.5434
  -6237907.19547  -4820262.45745  22557570.8444                   22557571.3244
 -49383984.78546 -38398271.16043  23387208.9844                   23387207.0274
 11  8 14  1 37  0.0000000  0  8G29G12G02G17G10G05G25G04
  15979503.97746  12535499.28543  24626598.6094                   24626599.0984
 -31081258.57447 -24007039.71546  20855735.2034                   20855732.2974
 -46709015.59447 -36355506.33646  20954923.5864                   20954919.1804
 -37261127.56246 -29001374.98843  24490151.2424                   24490149.7544
 -36449273.62147 -27187030.00045  21597165.4454                   21597163.0044
 -26240490.52348 -20405894.90246  20724830.8984                   20724828.4844
  -6394381.93447  -4942190.75045  22527795.0704                   22527795.1254
 -49390431.60546 -38403294.68743  23385981.9384                   23385979.6134
 11  8 14  1 37 30.0000000  0  8G29G12G02G17G10G05G25G04
  15810435.45346  12403757.62543  24594424.9924                   24594426.0634
 -31174922.82447 -24080024.85246  20837911.3594                   20837909.1054
 -46774146.66047 -36406257.81246  20942529.8204                   20942524.9494
 -37278590.46945 -29014982.45342  24486827.5474                   24486826.8984
 -36477557.62147 -27209069.48045  21591782.9144                   21591780.9264
 -26374766.85547 -20510525.78546  20699278.8054                   20699276.6604
  -6550407.47747  -5063769.02745  22498104.1174                   22498103.9844
 -49396883.50446 -38408322.16443  23384753.7114                   23384751.9804
 11  8 14  1 38  0.0000000  0  8G29G12G02G17G10G05G25G04
  15641306.50046  12271968.90643  24562241.6804                   24562241.6604
 -31267993.77347 -24152547.66446  20820201.2034                   20820197.6954
 -46839095.68747 -36456867.43446  20930170.5234                   20930165.6994
 -37295857.63345 -29028437.41042  24483540.9534                   24483541.0664
 -36505318.31647 -27230701.18445  21586500.3834                   21586497.8554
 -26508494.01648 -20614728.73446  20673831.4844                   20673829.0594
  -6705979.09447  -5184993.58645  22468499.8984                   22468499.9494
 -49403339.24246 -38413352.63343  23383525.1334                   23383523.1334
 11  8 14  1 38 30.0000000  0  8G29G12G02G17G10G05G25G04
  15472117.02746  12140133.02743  24530045.0084                   24530045.3484
 -31360471.58247 -24224608.29346  20802602.8754                   20802600.0314
 -46903864.12147 -36507336.34446  20917845.2504                   20917840.7234
 -37312929.66045 -29041740.34842  24480292.6564                   24480293.2234
 -36532558.56247 -27251927.35545  21581316.9844                   21581314.4064
 -26641671.29348 -20718503.20746  20648488.5864                   20648486.0634
  -6861095.10247  -5305863.15245  22438982.1094                   22438982.1914
 -49409800.23846 -38418387.19143  23382295.5634                   23382294.2274
 11  8 14  1 39  0.0000000  0  8G29G12G02G17G10G05G25G04
  15302869.41446  12008251.81643  24497839.0394                   24497838.8444
 -31452353.99247 -24296204.97346  20785117.6254                   20785115.2074
 -46968451.12947 -36557663.88746  20905554.6094                   20905549.8364
 -37329804.80145 -29054889.75442  24477081.2584                   24477082.3244
 -36559279.19147 -27272748.61745  21576232.4064                   21576229.6564
 -26774295.50047 -20821846.71146  20623251.5004                   20623248.5274
  -7015751.45347  -5426374.53545  22409552.5314                   22409552.2304
 -49416265.64546 -38423425.19943  23381064.7974                   23381063.7464
 11  8 14  1 39 30.0000000  0  8G29G12G02G17G10G05G25G04
  15133564.47746  11876325.98443  24465621.5004                   24465621.1684
 -31543641.09047 -24367337.77746  20767746.6884                   20767744.1684
 -47032857.77047 -36607850.87546  20893298.2194                   20893293.9144
 -37346482.840 5                  24473908.859
 -36585482.19947 -27293166.53945  21571245.8914                   21571243.4734
 -26906365.55547 -20924758.40646  20598119.3834                   20598116.3364
  -7169945.65247  -5546525.79745  22380210.1024                   22380210.2154
 -49422736.04346 -38428467.10543  23379833.8754                   23379832.6094
 11  8 14  1 40  0.0000000  0  8G29G12G02G17G10G05G25G04
  14964202.32846  11744355.52042  24433393.4144                   24433392.1684
 -31634332.85547 -24438006.68746  20750488.5474                   20750486.0664
 -47097085.47747 -36657898.44146  20881076.1174                   20881071.8484
 -37362964.344 5                  24470772.102
 -36611170.36347 -27313183.27345  21566357.8054                   21566354.6954
 -27037880.10948 -21027237.24646  20573092.6884                   20573090.2384
  -7323676.05547  -5666315.66845  22350955.1254                   22350955.7274
 -49429213.23846 -38433514.30943  23378601.1884                   23378600.4964
 11  8 14  1 40 30.0000000  0  8G29G12G02G17G10G05G25G04
  14794781.32846  11612339.23443  24401153.2274                   24401153.1454
 -31724431.54747 -24508213.46146  20733343.4774                   20733340.4654
 -47161137.50447 -36707809.10946  20868887.7664                   20868883.0274
 -37379252.203 5                  24467672.281
 -36636348.45347 -27332802.55545  21561566.8444                   21561563.3834
 -27168840.55947 -21129284.32046  20548171.8054                   20548169.1564
  -7476942.85947  -5785744.30145  22321789.6954                   22321790.2774
 -49435700.23446 -38438569.18043  23377367.4454                   23377366.3754
 11  8 14  1 41  0.0000000  0  8G29G12G02G17G10G05G25G04
  14625302.19946  11480277.63743  24368902.1954                   24368902.4104
 -31813936.64548 -24577957.68446  20716310.7894                   20716308.0204
 -47225014.81647 -36757583.63746  20856732.5314                   20856727.6214
 -37395345.945 6                  24464610.195
 -36661018.49247 -27352025.96145  21556872.0394                   21556868.7274
 -27299245.26248 -21230898.33246  20523356.4144                   20523353.9694
  -7629743.64847  -5904809.81645  22292713.0784                   22292713.7504
 -49442197.81646 -38443632.26643  23376131.2894                   23376130.4694
 11  8 14  1 41 30.0000000  0  7G29G12G02G10G05G25G04
  14455762.72346  11348169.05943  24336639.8204                   24336639.7074
 -31902851.19947 -24647241.75046  20699390.8754                   20699388.1374
 -47288721.31647 -36807225.05546  20844609.0314                   20844604.7934
 -36685185.87947 -27370857.67645  21552273.1334                   21552269.9344
 -27429095.98847 -21332080.68746  20498647.1564                   20498643.7664
  -7782079.11347  -6023512.73845  22263724.4534                   22263724.7114
 -49448709.69546 -38448706.48843  23374891.8364                   23374890.2424
 11  8 14  1 42  0.0000000  0  7G29G12G02G10G05G25G04
  14286166.89146  11216016.61743  24304367.2034                   24304367.0044
 -31991171.43448 -24716062.70346  20682584.9694                   20682581.8954
 -47352254.58647 -36856731.48446  20832519.1954                   20832514.9024
 -36708849.59847 -27389296.93045  21547770.0314                   21547767.2034
 -27558388.14848 -21432827.79346  20474042.8284                   20474040.6254
  -7933943.62147  -6141848.69545  22234825.5004                   22234825.5984
 -49455233.37546 -38453789.90243  23373650.6954                   23373648.9574
 11  8 14  1 42 30.0000000  0  7G29G12G02G10G05G25G04
  14116516.55546  11083821.66443  24272083.6254                   24272083.6094
 -32078896.43747 -24784419.85246  20665890.9694                   20665888.4304
 -47415614.68047 -36906102.97346  20820462.3054                   20820457.7464
 -36732011.43047 -27407345.11345  21543362.3984                   21543359.4064
 -27687119.15647 -21533137.63346  20449546.5864                   20449543.6804
  -8085334.05147  -6259815.25845  22206017.1414                   22206017.1214
 -49461768.60146 -38458882.33343  23372406.7034                   23372405.9064
 11  8 14  1 43  0.0000000  0  7G29G12G02G10G05G25G04
  13946814.30546  10951586.27343  24239789.4844                   24239789.7584
 -32166023.80547 -24852311.30546  20649311.2974                   20649308.5084
 -47478800.42647 -36955338.60946  20808438.5944                   20808433.5984
 -36754671.64147 -27425002.39544  21539050.2894                   21539046.8364
 -27815286.28547 -21633008.08646  20425156.8914                   20425154.9654
  -8236246.27347  -6377409.19545  22177299.3594                   22177299.4804
 -49468314.49246 -38463983.06243  23371160.1724                   23371160.1644
 11  8 14  1 43 30.0000000  0  7G29G12G02G10G05G25G04
  13777063.78946  10819313.28142  24207486.8984                   24207487.4964
 -32252551.08247 -24919735.14846  20632845.6644                   20632842.5354
 -47541810.46147 -37004437.31246  20796447.9614                   20796443.3444
 -36776829.48447 -27442268.23445  21534833.5944                   21534830.7194
 -27942885.89547 -21732436.32446  20400875.7034                   20400873.0744
  -8386675.36347  -6494626.65645  22148673.5784                   22148673.7074
 -49474868.90246 -38469090.41843  23369914.0784                   23369913.0274
 11  8 14  1 44  0.0000000  0  7G29G12G02G10G05G25G04
  13607263.99246  10687001.85542  24175175.4694                   24175175.7504
 -32338479.61748 -24986692.43746  20616493.9844                   20616491.0704
 -47604646.90247 -37053400.74246  20784490.8914                   20784486.1994
 -36798489.07047 -27459145.83245  21530712.3054                   21530709.2234
 -28069917.95747 -21831422.30946  20376702.1254                   20376699.9024
  -8536620.68047  -6611467.18445  22120139.9844                   22120139.9304
 -49481434.03546 -38474206.12543  23368665.1414                   23368663.8324
 11  8 14  1 44 30.0000000  0  7G29G12G02G10G05G25G04
  15012841.83646  11782257.35943  24442647.7974                   24442648.2304
 -30848385.96947 -23825580.49646  20900049.3364                   20900046.6134
 -46091888.07047 -35874627.60246  21072359.1954                   21072354.8914
 -35244231.94547 -26248036.35945  21826477.2894                   21826474.5664
 -26620956.68447 -20702361.54346  20652429.9924                   20652427.7934
  -7110654.64147  -5500324.83245  22391492.5474                   22391492.7584
 -47912590.24246 -37251730.45743  23667205.3984                   23667204.5084
 11  8 14  1 45  0.0000000  0  7G29G12G02G10G05G25G04
  14842945.25446  11649870.53542  24410317.6414                   24410317.7074
 -30933117.55547 -23891605.09446  20883925.8134                   20883922.4844
 -46154380.77047 -35923323.18446  21060467.0864                   21060462.6564
 -35264903.53147 -26264144.08245  21822543.4614                   21822540.5514
 -26746850.94547 -20800460.94146  20628473.4534                   20628470.9024
  -7259626.69947  -5616406.98445  22363144.2424                   22363144.5784
 -47919180.51646 -37256865.77042  23665951.7274                   23665950.3594
 11  8 14  1 45 30.0000000  0  7G29G12G02G10G05G25G04
  14672998.22746  11517444.33642  24377977.8984                   24377978.2664
 -31017253.66047 -23957165.69146  20867914.6334                   20867912.2734
 -46216706.57447 -35971888.71946  21048606.7664                   21048602.0904
 -35285088.00047 -26279872.23445  21818702.0634                   21818699.7704
 -26872178.24648 -20898118.53946  20604624.3674                   20604621.7974
  -7408112.16847  -5732109.98445  22334888.4144                   22334888.5744
 -47925787.59846 -37262014.14142  23664693.9384                   23664692.7734
 11  8 14  1 46  0.0000000  0  7G29G12G02G10G05G25G04
  14503001.81646  11384979.67243  24345628.1884                   24345629.0744
 -31100794.28547 -24022262.28546  20852017.5004                   20852015.1564
 -46278865.62147 -36020324.30146  21036778.5864                   21036773.5274
 -35304787.40647 -26295222.41045  21814953.7504                   21814950.9104
 -26996936.86747 -20995333.01646  20580883.5944                   20580881.1454
  -7556108.45747  -5847431.80545  22306725.0234                   22306725.0314
 -47932411.75846 -37267175.82843  23663433.5864                   23663431.9144
 11  8 14  1 46 30.0000000  0  7G29G12G02G10G05G25G04
  14332957.53546  11252477.68042  24313269.7734                   24313269.7934
 -31183738.76648 -24086894.33646  20836233.9614                   20836231.0164
 -46340858.30547 -36068630.26646  21024981.5944                   21024976.9304
 -35324003.71147 -26310196.14544  21811297.2894                   21811294.2734
 -27121125.00847 -21092102.96146  20557251.2504                   20557248.7854
  -7703613.03147  -5962370.46545  22278656.7344                   22278656.1414
 -47939053.35546 -37272351.10543  23662170.1174                   23662168.0664
 11  8 14  1 47  0.0000000  0  7G29G12G02G10G05G25G04
  14162864.67646  11119937.81643  24280902.6174                   24280901.2624
 -31266088.68047 -24151063.09846  20820563.0784                   20820560.2774
 -46402686.82847 -36116808.30946  21013216.2274                   21013211.2034
 -35342740.57847 -26324796.29345  21807731.7974                   21807729.3134
 -27244742.99247 -21188428.63746  20533727.5004                   20533724.9064
  -7850624.91447  -6076925.19545  22250681.2274                   22250680.7934
 -47945714.18446 -37277541.35943  23660902.9384                   23660901.1414
 11  8 14  1 47 30.0000000  0  7G29G12G02G10G05G25G04
  13992724.67646  10987361.21143  24248526.2664                   24248525.0704
 -31347843.71147 -24214768.30946  20805005.6174                   20805003.1094
 -46464351.96947 -36164859.04746  21001481.5634                   21001477.0004
 -35361000.52047 -26339024.82445  21804256.8674                   21804254.1724
 -27367789.47347 -21284308.98046  20510312.5634                   20510309.8324
  -7997141.86747  -6191094.26245  22222799.7814                   22222799.9494
 -47952394.87546 -37282747.11743  23659631.8524                   23659629.9144
 11  8 14  1 48  0.0000000  0  7G29G12G02G10G05G25G04
  13822537.33246  10854747.72343  24216139.9064                   24216139.9614
 -31429004.93447 -24278010.81646  20789561.3594                   20789558.1564
 -46525855.24647 -36212783.64846  20989777.8204                   20989773.6524
 -35378786.57047 -26352884.06244  21800872.4844                   21800869.4414
 -27490264.75047 -21379744.23046  20487006.5554                   20487004.1174
  -8143162.72347  -6304876.73445  22195012.9694                   22195012.9104
 -47959097.09846 -37287969.61343  23658355.9384                   23658354.2234
 11  8 14  1 48 30.0000000  0  7G29G12G02G10G05G25G04
  13652304.48446  10722098.81343  24183744.9454                   24183746.3984
 -31509571.55948 -24340790.00446  20774230.3054                   20774227.0904
 -46587196.90247 -36260582.32446  20978104.8054                   20978099.8014
 -35396100.58647 -26366375.49644  21797577.2194                   21797574.9384
 -27612166.81647 -21474732.82046  20463809.1024                   20463806.6024
  -8288684.60547  -6418270.38745  22167321.0004                   22167320.5474
 -47965820.53946 -37293208.68043  23657076.2274                   23657075.3674
 11  8 14  1 49  0.0000000  0  7G29G12G02G10G05G25G04
  13482024.84446  10589413.43843  24151342.5234                   24151342.8324
 -31589545.41047 -24403107.27346  20759011.8284                   20759008.7664
 -46648379.50847 -36308257.05146  20966462.1024                   20966457.9024
 -35412947.23447 -26379502.76645  21794371.8984                   21794369.5124
 -27733496.63347 -21569275.50846  20440720.8364                   20440718.2034
  -8433707.32047  -6531275.06245  22139724.3524                   22139724.1414
 -47972567.81646 -37298466.28543  23655792.6174                   23655791.1414
 11  8 14  1 49 30.0000000  0  7G29G12G02G10G05G25G04
  13311701.07046  10456693.64143  24118930.8594                   24118931.0204
 -31668925.19948 -24464961.64846  20743905.9694                   20743902.8444
 -46709402.54747 -36355807.44946  20954849.7194                   20954845.1214
 -35429327.18747 -26392266.35544  21791254.2114                   21791251.8594
 -27854251.35947 -21663370.06646  20417742.2274                   20417739.3914
  -8578227.22347  -6643887.92245  22112222.8204                   22112222.3324
 -47979337.71546 -37303741.53543  23654504.2424                   23654503.1174
 11  8 14  1 50  0.0000000  0  7G29G12G02G10G05G25G04
  13141331.82446  10323938.42243  24086511.2274                   24086510.0394
 -31747713.79747 -24526355.35946  20728913.3284                   20728910.0164
 -46770268.95347 -36403235.79346  20943267.1954                   20943262.8444
 -35445244.97747 -26404669.83644  21788225.4064                   21788223.4024
 -27974432.60547 -21757017.76646  20394872.1804                   20394869.7384
  -8722244.60247  -6756109.20345  22084816.9694                   22084816.9734
 -47986133.33646 -37309036.85543  23653210.9384                   23653210.0004
 11  8 14  1 50 30.0000000  0  7G29G12G02G10G05G25G04
  12970918.55146  10191148.86743  24054082.9304                   24054081.9574
 -31825910.57847 -24587287.91446  20714032.6334                   20714029.8244
 -46830978.87547 -36450542.19946  20931714.1804                   20931710.1024
 -35460702.84447 -26416714.94144  21785284.0634                   21785281.4574
 -28094038.91847 -21850217.45746  20372112.1564                   20372108.8164
  -8865756.77347  -6867936.80945  22057508.0474                   22057507.1844
 -47992954.79746 -37314352.32443  23651912.6334                   23651911.2624
 11  8 14  1 51  0.0000000  0  7G29G12G02G10G05G25G04
  12800461.54346  10058325.27343  24021645.3364                   24021645.1294
 -31903516.60548 -24647760.13746  20699264.8054                   20699261.7814
 -46891534.13747 -36497728.10246  20920191.5944                   20920186.2304
 -35475703.79747 -26428404.00044  21782429.5634                   21782426.9184
 -28213070.35547 -21942969.19946  20349460.7734                   20349458.3054
  -9008762.68447  -6979369.91845  22030294.2504                   22030294.3204
 -47999803.42646 -37319688.91843  23650609.0554                   23650607.7734
 11  8 14  1 51 30.0000000  0  7G29G12G02G10G05G25G04
  12629963.01246   9925469.30143  23989200.9924                   23989200.9804
 -31980530.46547 -24707770.94146  20684609.3834                   20684606.2814
 -46951933.95747 -36544792.87946  20908697.4614                   20908692.9804
 -35490248.94147 -26439737.87144  21779661.7034                   21779659.0554
 -28331524.30147 -22035270.94946  20326919.4774                   20326917.0124
  -9151258.68047  -7090405.66045  22003178.1884                   22003178.2584
 -48006678.26246 -37325045.91043  23649301.3444                   23649300.0824
 11  8 14  1 52  0.0000000  0  7G29G12G02G10G05G25G04
  12459423.04346   9792581.08243  23956746.6884                   23956747.6524
 -32056953.79747 -24767321.59046  20670066.4384                   20670063.1024
 -47012179.91047 -36591737.77046  20897233.9304                   20897228.0354
 -35504342.22747 -26450719.64844  21776979.5634                   21776977.1644
 -28449400.96547 -22127122.86746  20304488.8284                   20304486.0084
  -9293243.85247  -7201043.39545  21976159.2034                   21976159.1174
 -48013580.94546 -37330424.61343  23647987.5394                   23647986.9924
 11  8 14  1 52 30.0000000  0  7G29G12G02G10G05G25G04
  12288842.13346   9659660.92243  23924286.7814                   23924286.6954
 -32132787.39548 -24826412.69546  20655635.4454                   20655632.8794
 -47072273.72747 -36638564.10246  20885797.8674                   20885793.3164
 -35517986.80947 -26461351.80544  21774383.3134                   21774380.7974
 -28566700.16447 -22218524.80546  20282167.3204                   20282164.5634
  -9434717.02347  -7311282.15645  21949237.6954                   21949238.0824
 -48020512.46146 -37335825.78943  23646668.3054                   23646667.8874
 11  8 14  1 53  0.0000000  0  7G29G12G02G10G05G25G04
  12118220.98446   9526709.43043  23891819.3834                   23891818.6174
 -32208031.67247 -24885044.59846  20641317.3364                   20641314.3794
 -47132216.02347 -36685272.36345  20874390.9694                   20874386.1334
 -35531185.41447 -26471636.43044  21771871.4694                   21771869.0634
 -28683421.12547 -22309476.16846  20259955.8594                   20259953.3134
  -9575676.10547  -7421120.34045  21922413.7974                   21922413.9454
 -48027473.75846 -37341250.14843  23645344.0944                   23645342.7544
 11  8 14  1 53 30.0000000  0  7G29G12G02G10G05G25G04
  13522984.78546  10621330.64143  24159136.5004                   24159135.9774
 -30707265.88347 -23715616.69946  20926903.3914                   20926900.4694
 -45616587.12947 -35504262.82445  21162805.0944                   21162800.4304
 -33968521.65247 -25253976.36744  22069236.7974                   22069233.9454
 -27224141.20347 -21172374.89146  20537648.2584                   20537645.2384
  -8140696.35247  -6302954.23445  22195481.5784                   22195481.6054
 -46459046.79346 -36119099.27343  23943805.6334                   23943804.4774
 11  8 14  1 54  0.0000000  0  7G29G12G02G10G05G25G04
  13352284.15246  10488317.25043  24126653.5084                   24126652.9774
 -30781334.53148 -23773332.52346  20912808.8364                   20912805.8874
 -45676230.87547 -35550738.48046  21151455.6724                   21151450.2734
 -33980837.81647 -25263573.36344  22066892.9144                   22066890.2624
 -27339706.10547 -21262425.43446  20515656.6174                   20515653.8134
  -8280624.02047  -6411988.72345  22168854.1254                   22168854.1684
 -46466071.40246 -36124572.98843  23942468.7974                   23942467.9144
 11  8 14  1 54 30.0000000  0  7G29G12G02G10G05G25G04
  13181545.43446  10355274.13743  24094162.5314                   24094162.8634
 -30854816.20348 -23830590.95346  20898826.0234                   20898822.8674
 -45735726.46947 -35597098.67246  21140133.9614                   21140129.6914
 -33992716.48847 -25272829.49244  22064632.3834                   22064630.1374
 -27454691.67247 -21352024.53946  20493775.2664                   20493772.6214
  -8420033.00047  -6520619.04345  22142325.5234                   22142325.5514
 -46473128.13746 -36130071.70743  23941125.5944                   23941125.1454
 11  8 14  1 55  0.0000000  0  7G29G12G02G10G05G25G04
  13010771.84446  10222203.89843  24061665.3594                   24061665.1484
 -30927709.21148 -23887390.69546  20884954.6804                   20884951.9454
 -45795072.45348 -35643342.28945  21128841.0314                   21128835.9884
 -34004157.98047 -25281744.94944  22062455.3134                   22062452.9224
 -27569094.82047 -21441169.82046  20472005.2504                   20472002.3284
  -8558919.12947  -6628841.94545  22115896.0234                   22115896.0864
 -46480215.38346 -36135594.19943  23939777.2734                   23939776.1644
 11  8 14  1 55 30.0000000  0  7G29G12G02G10G05G25G04
  12839967.43846  10089109.62543  24029163.0164                   24029162.0904
 -31000010.71947 -23943729.52346  20871196.2504                   20871193.1414
 -45854266.49647 -35689467.52046  21117576.6804                   21117572.3164
 -34015161.76647 -25290319.34044  22060361.0944                   22060358.2664
 -27682912.32047 -21529858.74646  20450346.4384                   20450343.7504
  -8697277.68447  -6736653.74645  22089567.4224                   22089567.3984
 -46487330.60546 -36141138.55143  23938423.3284                   23938422.5744
 11  8 14  1 56  0.0000000  0  7G29G12G02G10G05G25G04
  12669132.36346   9955991.46543  23996653.8984                   23996653.2424
 -31071722.46548 -23999608.78946  20857549.7194                   20857546.2034
 -45913310.60547 -35735475.90246  21106340.8364                   21106336.3524
 -34025731.72747 -25298555.68444  22058350.1804                   22058347.4654
 -27796144.35948 -21618091.46146  20428798.8674                   20428796.2234
  -8835107.86747  -6844053.84845  22063339.0864                   22063339.4924
 -46494475.50446 -36146706.01243  23937063.6804                   23937062.9264
 11  8 14  1 56 30.0000000  0  7G29G12G02G10G05G25G04
  12498266.05146   9822848.96543  23964139.1884                   23964138.2344
 -31142846.04747 -24055029.75846  20844015.6484                   20844012.1884
 -45972206.79747 -35781369.03146  21095133.3134                   21095128.8364
 -34035871.91447 -25306457.12544  22056420.3444                   22056418.0704
 -27908791.73448 -21705868.60546  20407362.8674                   20407360.1604
  -8972409.37547  -6951042.00045  22037211.5704                   22037211.5204
 -46501652.08246 -36152298.12943  23935697.2504                   23935696.7424
 11  8 14  1 57  0.0000000  0  7G29G12G02G10G05G25G04
  12327369.41046   9689682.86343  23931618.2274                   23931618.5434
 -31213381.98047 -24109992.81646  20830593.1644                   20830589.8984
 -46030955.92247 -35827147.57446  21083953.6024                   21083949.3794
 -34045585.53147 -25314026.19944  22054572.3594                   22054569.6724
 -28020853.97347 -21793189.80146  20386038.0474                   20386035.2584
  -9109180.35947  -7057616.76245  22011184.9924                   22011184.7424
 -46508860.81646 -36157915.36742  23934326.5474                   23934325.3094
 11  8 14  1 57 30.0000000  0  7G29G12G02G10G05G25G04
  12156441.16046   9556492.12943  23899091.4924                   23899091.3364
 -31283333.87947 -24164500.78546  20817281.7584                   20817278.5394
 -46089561.25848 -35872814.06246  21072802.5314                   21072796.8714
 -34054877.45747 -25321266.65644  22052804.0084                   22052800.9694
 -28132333.05147 -21880056.57846  20364824.0164                   20364821.3054
  -9245421.60547  -7163778.73445  21985259.2034                   21985259.0204
 -46516104.66046 -36163559.88343  23932947.9534                   23932946.2384
 11  8 14  1 58  0.0000000  0  7G29G12G02G10G05G25G04
  11985483.55946   9423278.53943  23866559.4144                   23866558.7894
 -31352701.35947 -24218553.35546  20804081.4534                   20804078.0944
 -46148022.50047 -35918368.27346  21061677.0084                   21061671.8324
 -34063749.27747 -25328179.77044  22051115.8524                   22051112.8324
 -28243227.44947 -21966467.77046  20343721.9844                   20343719.1954
  -9381130.39148  -7269525.82445  21959434.6484                   21959434.8244
 -46523383.09046 -36169231.43443  23931563.9534                   23931561.8674
 11  8 14  1 58 30.0000000  0  7G29G12G02G10G05G25G04
  11814495.19946   9290041.00044  23834021.2424                   23834020.4964
 -31421487.28147 -24272152.76246  20790991.6024                   20790988.7624
 -46206342.37547 -35963812.32046  21050578.8754                   21050573.8874
 -34072205.78547 -25334769.26244  22049506.6484                   22049503.3954
 -28353538.83248 -22052424.66046  20322730.0084                   20322727.2664
  -9516307.15248  -7374858.32445  21933711.4144                   21933710.8754
 -46530698.73046 -36174931.97343  23930170.9384                   23930169.7194
 11  8 14  1 59  0.0000000  0  7G29G12G02G10G05G25G04
  11643478.60946   9156781.48443  23801477.3524                   23801477.6174
 -31489690.33648 -24325297.99646  20778013.1334                   20778009.5704
 -46264520.18748 -36009145.67246  21039507.8364                   21039503.1374
 -34080248.40647 -25341036.23444  22047975.4694                   22047973.7814
 -28463265.27348 -22137925.75446  20301849.9064                   20301847.2584
  -9650948.69147  -7479773.78545  21908089.6094                   21908090.0704
 -46538050.55146 -36180660.59043  23928772.4454                   23928771.3284
 11  8 14  1 59 30.0000000  0  7G29G12G02G10G05G25G04
  11472432.83246   9023499.19143  23768928.2734                   23768927.8754
 -31557313.85947 -24377991.64546  20765144.8444                   20765141.6454
 -46322558.94947 -36054370.68745  21028463.3524                   21028458.4804
 -34087881.36347 -25346984.00044  22046523.1954                   22046520.9024
 -28572408.56647 -22222972.44946  20281080.7194                   20281077.9064
  -9785055.47347  -7584272.53945  21882570.0634                   21882569.8484
 -46545441.01246 -36186419.39843  23927365.4454                   23927365.1644
 11  8 14  2  0  0.0000000  0  7G29G12G02G10G05G25G04
  11301363.35546   8890198.41843  23736375.3444                   23736374.0164
 -31624354.17647 -24430230.85246  20752387.5634                   20752384.5274
 -46380454.73847 -36099484.27045  21017446.5634                   21017441.5594
 -34095103.48447 -25352611.62544  22045149.6174                   22045146.6094
 -28680963.71547 -22307560.85246  20260422.8984                   20260420.7034
  -9918621.56248  -7688349.97345  21857153.5004                   21857153.1684
 -46552866.51246 -36192205.45743  23925952.0474                   23925951.4804
 11  8 14  2  0 30.0000000  0  7G29G12G02G10G05G25G04
  11130268.42646   8756877.81643  23703816.7814                   23703816.0234
 -31690814.72347 -24482018.28946  20739740.5164                   20739737.7034
 -46438211.30947 -36144489.37946  21006455.2274                   21006451.1334
 -34101920.35547 -25357923.46544  22043852.1804                   22043849.7544
 -28788933.55547 -22391693.16846  20239877.4064                   20239874.5274
 -10051648.20348  -7792007.07045  21831839.3284                   21831838.8984
 -46560330.28546 -36198021.37143  23924532.1884                   23924531.2234
 11  8 14  2  1  0.0000000  0  7G29G12G02G10G05G25G04
  10959148.34846   8623537.61743  23671253.7894                   23671253.1214
 -31756697.12147 -24533355.21946  20727203.3284                   20727200.1524
 -46495830.27747 -36189387.26645  20995491.0394                   20995486.3244
 -34108335.27047 -25362922.10244  22042630.7194                   22042628.4774
 -28896318.17247 -22475369.46146  20219442.3834                   20219440.0864
 -10184134.51248  -7895243.13745  21806627.9614                   21806627.4024
 -46567833.59046 -36203868.07043  23923104.8204                   23923102.0314
 11  8 14  2  1 30.0000000  0  7G29G12G02G10G05G25G04
  10788004.10246   8490178.58244  23638686.3204                   23638686.0474
 -31822001.88348 -24584242.04746  20714776.3134                   20714773.0084
 -46553311.71547 -36234177.99245  20984552.7734                   20984548.3244
 -34114350.80147 -25367609.52044  22041486.4924                   22041484.6724
 -29003117.05948 -22558589.35246  20199119.4534                   20199117.3014
 -10316078.64148  -7998056.71545  21781519.6804                   21781519.2384
 -46575376.28946 -36209745.48042  23921669.5084                   23921666.5664
 11  8 14  2  2  0.0000000  0  7G29G12G02G10G05G25G04
  10616837.46546   8356802.08244  23606114.0634                   23606113.6844
 -31886729.75847 -24634679.35546  20702458.7274                   20702456.1414
 -46610656.83247 -36278862.47345  20973639.8284                   20973635.4774
 -34119970.03147 -25371988.11744  22040417.3524                   22040415.0164
 -29109329.99648 -22641352.65646  20178908.1334                   20178905.1804
 -10447479.09848  -8100446.66845  21756515.4144                   21756515.0124
 -46582959.20346 -36215654.19942  23920226.6414                   23920223.9064
 11  8 14  2  2 30.0000000  0  7G29G12G02G10G05G25G04
  12021073.34046   9451011.94544  23873330.7114                   23873330.6294
 -30375461.64547 -23457067.83246  20990043.6884                   20990040.6914
 -45092446.00047 -35095841.02745  21262546.0704                   21262541.5084
 -32549776.94946 -24148461.04344  22339214.8754                   22339212.3444
 -27639535.17248 -21496057.96146  20458600.5314                   20458597.7624
  -9002911.80947  -6974809.79745  22031406.7894                   22031407.2584
 -45015164.03145 -34993995.62143  24218566.4454                   24218566.1374
 11  8 14  2  3  0.0000000  0  7G29G12G02G10G05G25G04
  11849863.79746   9317602.00443  23840750.9384                   23840750.2074
 -30439040.18047 -23506609.54346  20977945.1884                   20977941.8874
 -45149521.47347 -35140315.39845  21251684.6254                   21251680.4414
 -32554612.27047 -24152228.82044  22338294.5704                   22338292.5314
 -27744576.85548 -21577908.59846  20438611.3364                   20438608.7274
  -9133221.58647  -7076349.87545  22006609.9384                   22006609.2774
 -45022829.68445 -34999968.78942  24217107.8054                   24217108.0664
 11  8 14  2  3 30.0000000  0  7G29G12G02G10G05G25G04
  11678635.87946   9184177.73043  23808167.3984                   23808166.3984
 -30502043.79347 -23555703.26646  20965955.8674                   20965952.7894
 -45206461.25447 -35184684.03545  21240849.5944                   21240845.1524
 -32559058.49247 -24155693.40244  22337448.7814                   22337446.0824
 -27849031.07448 -21659301.46946  20418734.6334                   20418731.8594
  -9262982.26647  -7177462.06245  21981917.3054                   21981917.0704
 -45030535.63345 -35005973.41043  24215642.3914                   24215641.7384
 11  8 14  2  4  0.0000000  0  7G29G12G02G10G05G25G04
  11507387.01246   9050737.11743  23775579.6954                   23775578.2034
 -30564477.43447 -23604352.85246  20954075.2114                   20954072.2274
 -45263269.98847 -35228950.55946  21230039.6954                   21230034.9844
 -32563122.20747 -24158859.92644  22336675.3204                   22336673.1884
 -27952901.38347 -21740239.34846  20398968.7584                   20398966.0784
  -9392196.18048  -7278148.20745  21957328.6094                   21957328.3134
 -45038285.96146 -35012012.60542  24214168.1024                   24214166.9884
 11  8 14  2  4 30.0000000  0  7G29G12G02G10G05G25G04
  11336118.22746   8917280.99243  23742988.4454                   23742987.5124
 -30626341.65647 -23652558.73846  20942303.4224                   20942300.0434
 -45319948.55547 -35273115.66045  21219253.4144                   21219248.8674
 -32566806.13747 -24161730.53944  22335974.6254                   22335971.9924
 -28056187.62548 -21820722.10546  20379314.1094                   20379311.0004
  -9520861.84447  -7378407.14845  21932844.1804                   21932844.1454
 -45046081.55945 -35018087.06642  24212683.5004                   24212683.4104
 11  8 14  2  5  0.0000000  0  7G29G12G02G10G05G25G04
  11164833.52346   8783812.41043  23710394.3674                   23710392.9024
 -30687635.43447 -23700320.11746  20930639.0004                   20930636.0004
 -45376495.05947 -35317177.84045  21208493.4224                   21208488.9614
 -32570110.56247 -24164305.40644  22335345.1024                   22335342.9734
 -28158887.36348 -21900747.84446  20359770.7194                   20359768.0984
  -9648975.52748  -7478235.97745  21908464.7734                   21908465.0204
 -45053920.25846 -35024195.17643  24211192.6484                   24211191.0864
 11  8 14  2  5 30.0000000  0  7G29G12G02G10G05G25G04
  10993531.59846   8650330.43843  23677795.8444                   23677794.9344
 -30748361.89847 -23747639.43046  20919083.6644                   20919080.1454
 -45432912.43447 -35361139.41045  21197757.8054                   21197753.0944
 -32573040.20747 -24166588.23844  22334787.8834                   22334785.6334
 -28261002.64548 -21980318.16446  20340339.0164                   20340336.4384
  -9776537.87547  -7577635.19945  21884190.7504                   21884190.7774
 -45061804.52346 -35030338.77343  24209692.1334                   24209690.8284
 11  8 14  2  6  0.0000000  0  7G29G12G02G10G05G25G04
  10822215.81646   8516837.64844  23645195.7974                   23645195.1254
 -30808519.94947 -23794515.82446  20907635.9384                   20907632.5984
 -45489199.12947 -35404999.14845  21187046.5554                   21187041.7344
 -32575595.88746 -24168579.68444  22334301.3834                   22334298.8204
 -28362531.07448 -22059431.19146  20321018.9454                   20321015.6484
  -9903545.48447  -7676602.13745  21860021.9304                   21860021.7704
 -45069732.50845 -35036516.39843  24208183.2664                   24208181.8834
 11  8 14  2  6 30.0000000  0  7G29G12G02G10G05G25G04
  10650886.39846   8383334.21943  23612592.4064                   23612591.9844
 -30868111.88747 -23840951.09846  20896295.2424                   20896292.5634
 -45545357.08647 -35448758.57845  21176360.1174                   21176355.6524
 -32577781.82447 -24170283.00844  22333885.6484                   22333883.2274
 -28463473.84048 -22138087.86746  20301810.2114                   20301807.1684
 -10029998.15248  -7775136.68045  21835959.0704                   21835958.6724
 -45077705.73446 -35042729.27343  24206665.5004                   24206664.9804
 11  8 14  2  7  0.0000000  0  7G29G12G02G10G05G25G04
  10479543.12146   8249820.05143  23579986.1334                   23579986.1414
 -30927140.07847 -23886947.08646  20885062.8984                   20885059.7584
 -45601388.10947 -35492419.09445  21165697.0314                   21165692.8054
 -32579602.01247 -24171701.34044  22333538.6024                   22333537.0594
 -28563832.60248 -22216289.46946  20282711.7424                   20282709.6294
 -10155895.82847  -7873238.74645  21812001.5314                   21812001.4844
 -45085726.00446 -35048978.84043  24205140.2894                   24205138.6954
 11  8 14  2  7 30.0000000  0  7G29G12G02G10G05G25G04
  10308186.76246   8116295.63344  23547378.7424                   23547378.0904
 -30985605.73847 -23932504.73846  20873937.5394                   20873934.0204
 -45657293.12547 -35535981.43045  21155059.0314                   21155054.3984
 -32581059.75047 -24172837.23444  22333261.9844                   22333258.8754
 -28663607.35948 -22294035.99646  20263725.8674                   20263722.7774
 -10281237.65647  -7970907.69145  21788149.6094                   21788149.7544
 -45093794.08646 -35055265.64143  24203604.8444                   24203603.1914
 11  8 14  2  8  0.0000000  0  7G29G12G02G10G05G25G04
  10136819.55546   7982762.79744  23514769.1334                   23514768.0204
 -31043509.82847 -23977624.79746  20862918.3444                   20862915.1844
 -45713072.18047 -35579445.61345  21144445.1484                   21144439.9804
 -32582156.94546 -24173692.19544  22333053.5234                   22333050.4774
 -28762797.43048 -22371326.92646  20244850.8834                   20244847.9454
 -10406021.56248  -8068141.88345  21764404.1254                   21764404.1484
 -45101909.48446 -35061589.34442  24202059.9774                   24202058.7934
 11  8 14  2  8 30.0000000  0  7G29G12G02G10G05G25G04
   9965443.50046   7849223.05943  23482156.5704                   23482156.4494
 -31100852.31647 -24022307.25046  20852006.8054                   20852003.4144
 -45768724.97347 -35622811.40245  21133854.4064                   21133849.6524
 -32582895.28546 -24174267.55144  22332912.3754                   22332910.3444
 -28861401.96947 -22448161.59046  20226086.5944                   20226083.7034
 -10530245.34448  -8164939.59445  21740765.3914                   21740764.6604
 -45110071.54346 -35067949.32842  24200506.9144                   24200505.3524
 11  8 14  2  9  0.0000000  0  7G29G12G02G10G05G25G04
   9794058.05146   7715676.04344  23449543.0164                   23449542.8094
 -31157635.92247 -24066554.21546  20841201.1804                   20841197.6564
 -45824254.05947 -35666080.80145  21123287.5554                   21123282.6134
 -32583279.73046 -24174567.14544  22332839.2974                   22332837.0784
 -28959422.92647 -22524541.52746  20207433.5784                   20207431.0554
 -10653909.55147  -8261301.28945  21717232.2114                   21717231.9654
 -45118282.60946 -35074347.57442  24198944.6564                   24198942.8594
 11  8 14  2  9 30.0000000  0  7G29G12G02G10G05G25G04
   9622664.08246   7582122.35944  23416928.2894                   23416927.8634
 -31213862.65647 -24110367.25046  20830501.6564                   20830498.0314
 -45879660.06247 -35709254.28945  21112744.3914                   21112739.3914
 -32583313.42246 -24174593.41044  22332834.1484                   22332830.2274
 -29056860.66447 -22600467.00446  20188891.9694                   20188889.4454
 -10777013.43747  -8357226.37545  21693806.1564                   21693806.7154
 -45126543.07046 -35080784.31642  24197372.7504                   24197372.0554
 11  8 14  2 10  0.0000000  0  7G29G12G02G10G05G25G04
   9451265.67246   7448565.24644  23384312.2814                   23384312.0704
 -31269531.09847 -24153745.25046  20819907.5314                   20819904.9924
 -45934941.11347 -35752330.41445  21102224.6174                   21102220.0944
 -32582996.36346 -24174346.38344  22332893.6254                   22332890.7504
 -29153712.57847 -22675935.99646  20170461.8204                   20170459.0594
 -10899553.06647  -8452711.77345  21670488.0004                   21670487.8954
 -45134850.73446 -35087257.77042  24195792.6024                   24195790.4654
 11  8 14  2 10 30.0000000  0  8G29G12G02G26G10G05G25G04
   9279861.10946   7315003.34844  23351695.2974                   23351693.7894
 -31324645.48847 -24196691.52746  20809420.0944                   20809417.0084
 -45990100.87547 -35795312.02346  21091727.8054                   21091722.7344
  21791424.17256  17186308.93053  24675226.3204                   24675227.2034
 -32582334.35247 -24173830.55944  22333019.4224                   22333016.7734
 -29249982.18448 -22750951.24646  20152142.3444                   20152139.3714
 -11021530.25847  -8547758.90645  21647276.1804                   21647275.9224
 -45143208.97745 -35093770.65242  24194201.1334                   24194200.6334
 11  8 14  2 11  0.0000000  0  8G29G12G02G26G10G05G25G04
   9108452.42646   7181438.18443  23319076.4694                   23319075.7814
 -31379206.34447 -24239206.47746  20799037.0394                   20799034.3364
 -46045138.94947 -35838198.81246  21081254.5704                   21081249.8914
  21610210.49246  17045103.57043  24640742.8674                   24640742.8954
 -32581329.33646 -24173047.44544  22333210.2344                   22333207.8674
 -29345668.59447 -22825512.05546  20133933.9064                   20133930.7194
 -11142943.08647  -8642366.27745  21624172.2504                   21624171.5984
 -45151617.03545 -35100322.38342  24192601.2504                   24192601.1134
 11  8 14  2 11 30.0000000  0  8G29G12G02G26G10G05G25G04
  10512461.52046   8275471.33244  23586251.2974                   23586249.4574
 -29857798.31247 -23053693.73046  21088551.9844                   21088549.0084
 -44524639.38747 -34653393.93446  21370596.0704
  21370591.3404   23004297.44146  18131405.17643  24906029.0784   24906029.2194
 -31004569.69146 -22944403.59443  22633257.9144                   22633255.9304
 -27865353.85547 -21672020.01246  20415628.1644                   20415625.1684
  -9688371.54347  -7508933.87145  21900967.5314                   21900967.3484
 -43584660.32845 -33879317.09042  24490782.2734                   24490783.0744
 11  8 14  2 12  0.0000000  0  8G29G12G02G26G10G05G25G04
  10341037.91046   8141894.58243  23553630.2664                   23553629.3524
 -29911266.65247 -23095357.37145  21078377.0634                   21078373.7034
 -44579446.76247 -34696100.95346  21360166.0634
  21360161.7854   22822835.22346  17990006.12143  24871497.9454   24871497.7934
 -31002898.55546 -22943101.44144  22633575.8284                   22633574.1914
 -27959885.27747 -21745680.84046  20397639.2894                   20397636.2854
  -9808662.98847  -7602667.43045  21878077.4924                   21878077.4184
 -43593179.969 5                  24489162.008
 11  8 14  2 12 30.0000000  0  8G29G12G02G26G10G05G25G04
  10169608.98446   8008313.67244  23521008.0164                   23521006.7504
 -29964190.34447 -23136596.60246  21068305.8984                   21068302.9694
 -44634139.17247 -34738718.39545  21349758.5784
  21349753.6684   22641253.41446  17848513.88343  24836943.7034   24836943.5514
 -31000898.01246 -22941542.60944  22633956.8134                   22633954.7814
 -28053839.33248 -21818891.75846  20379760.2114                   20379757.3954
  -9928391.80147  -7695962.58245  21855294.0704                   21855293.3244
 -43601755.422 6                  24487529.891
 11  8 14  2 13  0.0000000  0  8G29G12G02G26G10G05G25G04
   9998178.05546   7874731.24643  23488385.5234                   23488384.5984
 -30016568.99248 -23177411.13746  21058338.4534                   21058335.5124
 -44688715.86347 -34781245.67245  21339373.0634
  21339368.5274   22459556.76246  17706932.13343  24802368.3524   24802367.0984
 -30998569.26246 -22939728.01644  22634399.7814                   22634397.7624
 -28147214.34048 -21891651.48046  20361992.1644                   20361988.9104
 -10047555.18747  -7788817.12945  21832617.6804                   21832617.1644
 -43610385.160 6                  24485887.406
 11  8 14  2 13 30.0000000  0  8G29G12G02G26G10G05G25G04
   9826746.75046   7741148.51644  23455763.5554                   23455762.8554
 -30068403.71947 -23217801.82446  21048474.9064                   21048471.9804
 -44743176.74247 -34823682.71145  21329009.8284
  21329004.8674   22277748.14546  17565263.16843  24767770.7974   24767770.8634
 -30995915.07046 -22937659.83244  22634905.3054                   22634902.8134
 -28240010.53147 -21963960.17646  20344333.2424                   20344330.5394
 -10166151.83647  -7881230.07045  21810049.5314                   21810049.1804
 -43619069.16046 -33888483.21552  24484235.5634                   24484233.8014
 11  8 14  2 14  0.0000000  0  8G29G12G02G26G10G05G25G04
   9655318.25446   7607567.95744  23423141.2114                   23423140.3634
 -30119694.55148 -23257768.70746  21038713.9534                   21038711.5634
 -44797520.14147 -34866028.19145  21318668.5084
  21318663.3834   22095833.05146  17423511.22742  24733154.0164   24733153.0124
 -30992935.87146 -22935338.39844  22635472.2734                   22635468.9774
 -28332225.99647 -22035816.35246  20326785.1564                   20326782.2114
 -10284178.76247  -7973199.07045  21787589.6174                   21787588.9804
 -43627805.70346 -33895290.91443  24482572.7504                   24482572.0824
 11  8 14  2 14 30.0000000  0  8G29G12G02G26G10G05G25G04
   9483895.27346   7473991.70344  23390520.5084                   23390519.7584
 -30170441.19148 -23297311.55546  21029057.5474                   21029054.4304
 -44851745.71547 -34908281.87945  21308349.7814
  21308344.3404   21913815.56346  17281679.54343  24698517.5314   24698516.3094
 -30989633.75046 -22932765.32844  22636100.2584                   22636097.7854
 -28423860.09447 -22107219.51646  20309347.9534                   20309344.7774
 -10401633.74247  -8064722.40645  21765238.8134                   21765237.9884
 -43636593.83646 -33902138.78143  24480900.3284                   24480899.2234
 11  8 14  2 15  0.0000000  0  8G29G12G02G26G10G05G25G04
   9312477.73846   7340419.66444  23357901.3984                   23357900.3484
 -30220646.82448 -23336432.82046  21019503.8914                   21019500.9774
 -44905855.52047 -34950445.35245  21298052.7194
  21298047.8524   21731696.93445  17139768.99643  24663861.1334   24663860.2664
 -30986012.92646 -22929943.94144  22636789.0474                   22636786.9614
 -28514914.87548 -22178171.27346  20292020.8284                   20292017.1804
 -10518517.43447  -8155800.57045  21742996.4844                   21742996.0434
 -43645435.35946 -33909028.30943  24479218.6644                   24479216.1214
 11  8 14  2 15 30.0000000  0  8G29G12G02G26G10G05G25G04
   9141067.02747   7206852.95744  23325282.7344                   23325281.0944
 -30270312.80547 -23375133.57846  21010052.7194                   21010049.6294
 -44959850.01247 -34992518.96545  21287777.9224
  21287773.4264   21549480.37545  16997782.16442  24629186.0864   24629185.9104
 -30982075.95746 -22926876.22344  22637539.0394                   22637536.0234
 -28605390.44547 -22248671.69146  20274802.9144                   20274800.6254
 -10634828.73847  -8246432.71145  21720863.1334                   21720862.7974
 -43654330.32846 -33915959.43743  24477524.7894                   24477523.7774
 11  8 14  2 16  0.0000000  0  8G29G12G02G26G10G05G25G04
   8969663.63746   7073291.96144  23292665.3914                   23292664.5944
 -30319441.57447 -23413415.71946  21000703.8444                   21000700.9384
 -45013730.41447 -35034503.67245  21277524.9224
  21277520.4104   21367168.05545  16855720.72342  24594494.2344   24594493.3984
 -30977826.50846 -22923564.96144  22638347.2664                   22638344.7344
 -28695287.94947 -22318721.66446  20257696.6884                   20257693.7194
 -10750567.61347  -8336618.82045  21698838.7734                   21698838.5744
 -43663279.76646 -33922933.05942  24475822.3204                   24475820.4804
 11  8 14  2 16 30.0000000  0  8G29G12G02G26G10G05G25G04
   8798270.68046   6939739.13344  23260050.3594                   23260049.4304
 -30368033.02347 -23451279.18446  20991457.5004                   20991454.4144
 -45067495.75047 -35076398.70745  21267293.6094
  21267288.8954   21184764.69145  16713588.28542  24559782.3204   24559783.2504
 -30973266.14546 -22920011.44944  22639215.3134                   22639212.7234
 -28784606.55548 -22388320.55146  20240699.7974                   20240697.1484
 -10865731.58647  -8426356.95745  21676923.6414                   21676923.5784
 -43672282.34846 -33929948.04743  24474108.8364                   24474107.6054
 11  8 14  2 17  0.0000000  0  8G29G12G02G26G10G05G25G04
   8626889.17246   6806195.21544  23227437.5234                   23227436.4184
 -30416089.10548 -23488725.48846  20982312.7424                   20982309.6994
 -45121146.71147 -35118204.64545  21257084.3834
  21257079.3204   21002272.79746  16571386.90642  24525055.5314   24525055.9454
 -30968397.87546 -22916218.01643  22640141.5944                   22640139.1214
 -28873346.99648 -22457468.91846  20223813.2584                   20223809.8484
 -10980320.14147  -8515646.70745  21655117.8754                   21655117.5984
 -43681338.52746 -33937004.76243  24472385.8284                   24472384.7624
 11  8 14  2 17 30.0000000  0  8G29G12G02G26G10G05G25G04
   8455521.01246   6672661.69944  23194827.4844                   23194826.0784
 -30463611.04348 -23525755.56246  20973269.5164                   20973266.4494
 -45174683.33647 -35159921.46545  21246896.2584
  21246891.6844   20819695.87546  16429119.23042  24490312.6484   24490313.0784
 -30963224.04746 -22912186.50044  22641126.2974                   22641123.7274
 -28961509.25448 -22526166.75846  20207036.7504                   20207033.5394
 -11094331.94147  -8604487.03945  21633422.9304                   21633422.0204
 -43690448.16846 -33944103.17642  24470652.2114                   24470651.1844
 11  8 14  2 18  0.0000000  0  8G29G12G02G26G10G05G25G04
   8284167.25846   6539139.41444  23162219.9064                   23162218.8984
 -30510600.72748 -23562370.89846  20964327.8594                   20964324.3914
 -45228106.57047 -35201549.94145  21236730.3134
  21236726.2624   20637036.64146  16286787.39142  24455553.7814   24455554.1094
 -30957747.97346 -22907919.43444  22642167.6094                   22642165.7814
 -29049094.28547 -22594414.80546  20190369.7894                   20190366.2194
 -11207766.77747  -8692877.78545  21611836.4384                   21611836.6764
 -43699611.90246 -33951243.68442  24468908.7424                   24468907.8054
 11  8 14  2 18 30.0000000  0  8G29G12G02G26G10G05G25G04
   8112828.47746   6405628.81344  23129614.5164                   23129614.0664
 -30557061.01648 -23598573.71146  20955486.4614                   20955483.4964
 -45281417.99647 -35243091.27745  21226584.9384
  21226580.7304   20454297.03146  16144392.93442  24420778.6644   24420778.8054
 -30951973.40246 -22903419.78143  22643266.8674                   22643264.8444
 -29136103.68047 -22662214.30146  20173812.3204                   20173809.1604
 -11320624.70748  -8780819.00845  21590360.4304                   21590359.8754
 -43708830.69946 -33958427.08642  24467154.3444                   24467154.0434
 11  8 14  2 19  0.0000000  0  8G29G12G02G26G10G05G25G04
   7941507.03546   6272131.71544  23097013.0394                   23097012.3834
 -30602992.60948 -23634364.56246  20946745.9304                   20946742.9574
 -45334617.22747 -35284545.21145  21216462.3984
  21216457.3324   20271481.14846  16001939.13342  24385989.7034   24385990.0434
 -30945902.16846 -22898688.98844  22644423.2424                   22644420.2464
 -29222537.11747 -22729565.01646  20157364.6024                   20157361.6294
 -11432904.05547  -8868309.39845  21568994.1954                   21568993.4224
 -43718104.086 5                  24465389.250
 11  8 14  2 19 30.0000000  0  8G29G12G02G26G10G05G25G04
   7770205.27746   6138649.98044  23064414.9844                   23064414.4494
 -30648395.65248 -23669743.55146  20938106.1884                   20938103.0704
 -45387703.63747 -35325911.22745  21206359.9844
  21206355.0594   20088593.23046  15859429.09842  24351188.1174   24351187.0354
 -30939536.16446 -22893728.50444  22645633.7814                   22645631.9224
 -29308394.00447 -22796466.45346  20141026.4304                   20141023.4774
 -11544603.10548  -8955347.59445  21547738.4534                   21547738.2344
 -43727430.977 5                  24463614.383
 11  8 14  2 20  0.0000000  0  8G29G12G02G26G10G05G25G04
   7598922.98046   6005183.38344  23031821.6484                   23031820.5904
 -30693274.03147 -23704713.72346  20929565.8914                   20929562.8914
 -45440679.33647 -35367190.97345  21196279.0784
  21196273.8054   19905634.64846  15716864.05942  24316371.7584   24316371.3634
 -30932880.10246 -22888541.95344  22646900.7974                   22646898.4844
 -29393676.76248 -22862920.52346  20124797.7034                   20124794.4804
 -11655722.77047  -9041934.32045  21526593.1564                   21526592.7424
 -43736813.098 5                  24461828.313
 11  8 14  2 20 30.0000000  0  8G29G12G02G26G10G05G25G04
   9003087.09046   7099337.36744  23299025.1644                   23299023.6214
 -29162208.37947 -22511675.54746  21220918.4144                   21220915.1134
 -43918123.13347 -34180783.53145  21486012.2114                   21486007.1054
  21298034.20746  16801850.74643  24581337.2894                   24581335.7664
 -29350516.87546 -21655531.68444  22948013.7344                   22948011.9694
 -27902963.54747 -21701325.78546  20408471.0474                   20408467.8954
 -10190839.00447  -7900466.44146  21805351.7734                   21805351.5274
 -42170830.750 5                  24759824.008
 11  8 14  2 21  0.0000000  0  8G29G12G02G26G10G05G25G04
   8831848.75046   6965905.00844  23266439.1174                   23266437.5274
 -29206042.15247 -22545831.73446  21212576.8134                   21212573.5394
 -43970878.10547 -34221891.27345  21475972.8834                   21475967.9144
  21114943.75446  16659183.00042  24546496.2584                   24546495.2774
 -29343288.21946 -21649898.97744  22949389.7424                   22949387.1764
 -27987099.74247 -21766886.43046  20392460.5394                   20392457.2114
 -10300797.59847  -7986148.43445  21784426.8444                   21784426.6214
 -42180323.937 5                  24758019.047
 11  8 14  2 21 30.0000000  0  8G29G12G02G26G10G05G25G04
   8660634.58646   6832491.46944  23233858.5084                   23233856.4264
 -29249356.39547 -22579583.08246  21204334.1094                   21204331.6454
 -44023523.68047 -34262913.78545  21465954.6724                   21465950.0514
  20931792.18046  16516467.57043  24511643.0474                   24511642.2154
 -29335777.78946 -21644046.73044  22950819.3364                   22950817.1214
 -28070663.73047 -21832001.19946  20376558.8594                   20376555.4454
 -10410174.81647  -8071377.39845  21763612.9844                   21763612.5044
 -42189872.668 5                  24756201.750
 11  8 14  2 22  0.0000000  0  8G29G12G02G26G10G05G25G04
   8489445.28946   6699097.29744  23201282.7664                   23201280.0984
 -29292153.41847 -22612931.41446  21196190.5704                   21196187.5514
 -44076060.83247 -34303851.79745  21455957.3834                   21455951.6994
  20748581.74446  16373706.27343  24476780.0704                   24476778.8524
 -29327989.30146 -21637977.77744  22952300.7734                   22952299.3714
 -28153656.78547 -21896671.09046  20360765.6804                   20360762.2894
 -10518970.60247  -8156153.31246  21742909.9224                   21742909.5434
 -42199477.91046 -32737048.95752  24754374.9534                   24754370.6094
 11  8 14  2 22 30.0000000  0  7G29G12G02G26G10G05G25
   8318283.86746   6565724.84444  23168711.3524                   23168709.1454
 -29334433.60948 -22645877.00446  21188145.0394                   21188141.4574
 -44128488.60547 -34344704.59445  21445980.3594                   21445975.6024
  20565316.99246  16230902.65642  24441904.5784                   24441904.9964
 -29319924.07846 -21631693.23043  22953836.1254                   22953833.7894
 -28236078.33648 -21960895.64546  20345081.5004                   20345078.4344
 -10627183.21148  -8240474.79745  21722318.0394                   21722317.8164
 11  8 14  2 23  0.0000000  0  7G29G12G02G26G10G05G25
   8147152.96147   6432376.14544  23136145.9064                   23136144.6024
 -29376197.98047 -22678420.65246  21180197.1954                   21180194.3404
 -44180806.57847 -34385471.83245  21436024.5704                   21436020.0744
  20382002.11346  16088060.00842  24407020.4844                   24407020.6844
 -29311583.73846 -21625194.26643  22955423.5864                   22955420.3834
 -28317928.24248 -22024674.76646  20329505.8754                   20329502.8714
 -10734811.01247  -8324340.58646  21701836.5004                   21701836.6054
 11  8 14  2 23 30.0000000  0  7G29G12G02G26G10G05G25
   7976053.35947   6299051.84844  23103586.8834                   23103585.4414
 -29417449.01247 -22710564.32046  21172347.1884                   21172344.7664
 -44233015.62147 -34426154.17245  21426089.9614                   21426084.9414
  20198639.77046  15945180.38343  24372127.8594                   24372128.1604
 -29302971.76246 -21618483.62543  22957062.1334                   22957059.7934
 -28399207.79747 -22088009.45746  20314038.6024                   20314035.6524
 -10841853.91447  -8407750.61745  21681467.2114                   21681467.5314
 11  8 14  2 24  0.0000000  0  7G29G12G02G26G10G05G25
   7804987.68846   6165753.96544  23071034.2194                   23071032.4494
 -29458187.55147 -22742308.64545  21164595.1484                   21164592.2304
 -44285114.98047 -34466751.05945  21416175.6564                   21416170.4844
  20015234.13746  15802267.03543  24337227.4454                   24337227.3754
 -29294090.11746 -21611562.88743  22958752.0314                   22958749.5514
 -28479916.89547 -22150899.63346  20298680.3984                   20298677.4734
 -10948310.54347  -8490703.81645  21661209.2034                   21661208.8524
 11  8 14  2 24 30.0000000  0  7G29G12G02G26G10G05G25
   7633958.67246   6032484.60544  23038487.5084                   23038486.6254
 -29498414.17247 -22773654.07045  21156940.3284                   21156937.6684
 -44337103.99647 -34507261.94945  21406282.7274                   21406277.8984
  19831789.32846  15659323.13342  24302318.7424                   24302318.9734
 -29284940.44946 -21604433.28943  22960493.4774                   22960491.0554
 -28560055.37947 -22213345.18046  20283430.1884                   20283427.0824
 -11054179.29748  -8573198.91445  21641062.7504                   21641062.5204
 11  8 14  2 25  0.0000000  0  7G29G12G02G26G10G05G25
   7462962.35546   5899240.78544  23005948.1024                   23005946.5394
 -29538136.71947 -22804606.69145  21149380.9144                   21149378.2154
 -44388988.73847 -34547691.59445  21396408.9694                   21396404.1524
  19648302.93846  15516346.81342  24267402.4694                   24267402.0514
 -29275531.50846 -21597101.64843  22962283.9844                   22962282.2544
 -28639629.55947 -22275351.01646  20268288.1564                   20268284.8794
 -11159465.41447  -8655240.01645  21621028.0164                   21621026.9804
 11  8 14  2 25 30.0000000  0  7G29G12G02G26G10G05G25
   7292001.98046   5766024.91444  22973415.3444                   22973414.2894
 -29577355.37947 -22835166.67645  21141918.3054                   21141915.3164
 -44440768.04347 -34588039.07045  21386555.4774                   21386550.7774
  19464780.19946  15373342.20343  24232479.7664                   24232478.5554
 -29265864.03946 -21589568.60943  22964123.2664                   22964121.6054
 -28718638.57447 -22336916.45346  20253252.8834                   20253249.5234
 -11264166.71148  -8736825.43445  21601103.6804                   21601102.9804
 11  8 14  2 26  0.0000000  0  7G29G12G02G26G10G05G25
   7121079.81347   5632838.82844  22940890.6644                   22940889.1804
 -29616071.11747 -22865334.78945  21134550.7734                   21134547.8524
 -44492441.46147 -34628304.04345  21376722.7504                   21376717.3134
  19281224.75446  15230312.08643  24197550.1804                   24197548.9844
 -29255940.14146 -21581835.70343  22966011.6414                   22966009.5664
 -28797082.94147 -22398041.91046  20238325.2814                   20238322.1604
 -11368282.12548  -8817954.29346  21581291.3284                   21581290.7774
 11  8 14  2 26 30.0000000  0  7G29G12G02G26G10G05G25
   6950196.55546   5499683.06344  22908372.2734                   22908371.2464
 -29654287.03547 -22895113.41845  21127278.8914                   21127275.9384
 -44544010.21947 -34668487.46545  21366909.0634                   21366903.9414
  19097638.96146  15087258.33643  24162614.6884                   24162614.0554
 -29245763.42646 -21573905.82443  22967948.5944                   22967946.5474
 -28874964.21147 -22458728.59446  20223505.2114                   20223502.2154
 -11471812.03947  -8898626.94545  21561590.2974                   21561589.3164
 11  8 14  2 27  0.0000000  0  7G29G12G02G26G10G05G25
   6779352.52746   5366557.89844  22875861.8674                   22875860.7974
 -29692006.43047 -22924505.14845  21120101.0634                   21120097.8674
 -44595476.07447 -34708590.69945  21357115.7344                   21357110.5004
  18914024.86746  14944182.48043  24127674.1644                   24127673.1334
 -29235338.30146 -21565782.36743  22969932.2034                   22969930.1174
 -28952284.32847 -22518978.01246  20208791.7274                   20208788.3714
 -11574757.61747  -8978844.27045  21542000.4064                   21541999.2074
 11  8 14  2 27 30.0000000  0  7G29G12G02G26G10G05G25
   6608551.68046   5233466.41844  22843359.3754                   22843358.0164
 -29729228.98047 -22953509.72746  21113017.7274                   21113014.8204
 -44646836.78147 -34748612.00445  21347342.2424                   21347337.1294
  18730387.79746  14801088.77043  24092729.2424                   24092728.2074
 -29224665.36346 -21557465.80943  22971963.2974                   22971961.3054
 -29029042.48847 -22578789.54346  20194184.7584                   20194181.8244
 -11677116.18048  -9058604.16845  21522521.9224                   21522521.1994
 11  8 14  2 28  0.0000000  0  7G29G12G02G26G10G05G25
   6437793.88347   5100408.45744  22810865.1954                   22810863.2034
 -29765958.45347 -22982130.09446  21106028.5084                   21106025.1054
 -44698094.95347 -34788553.41845  21337588.0634                   21337582.8874
  18546729.39546  14657978.40643  24057779.9384                   24057778.9264
 -29213749.04746 -21548959.60544  22974040.8984                   22974038.7624
 -29105241.57447 -22638165.43446  20179684.7114                   20179681.3984
 -11778889.35248  -9137907.92645  21503154.9304                   21503154.5594
 11  8 14  2 28 30.0000000  0  7G29G12G02G26G10G05G25
   6267081.40247   4967385.80944  22778379.8834                   22778378.2304
 -29802196.32847 -23010367.38745  21099132.4454                   21099129.1254
 -44749250.02747 -34828414.50045  21327853.5554                   21327848.2704
  18363053.54346  14514854.43043  24022827.4224                   24022826.1994
 -29202591.43746 -21540265.39143  22976164.3204                   22976162.1294
 -29180881.63348 -22697105.71546  20165290.9844                   20165288.0394
 -11880075.99248  -9216754.64845  21483900.1644                   21483899.6604
 11  8 14  2 29  0.0000000  0  7G29G12G02G26G10G05G25
   6096413.35547   4834397.82044  22745902.8524                   22745901.2734
 -29837947.42647 -23038225.38345  21092329.1094                   21092326.2304
 -44800304.93047 -34868197.52345  21318138.2814                   21318133.0394
  18179360.75846  14371717.28543  23987871.6484                   23987870.2424
 -29191198.20346 -21531387.54743  22978331.7194                   22978329.7814
 -29255966.43747 -22755613.34046  20151002.7974                   20150999.7424
 -11980678.66447  -9295146.33245  21464756.1564                   21464755.0044
 11  8 14  2 29 30.0000000  0  7G29G12G02G26G10G05G25
   7501218.00847   5929050.87544  23013227.8444                   23013225.7734
 -28297791.27347 -21838103.69945  21385411.1094                   21385408.0394
 -43275837.16847 -33680300.53545  21608234.3984                   21608229.2274
  19571081.79746  15456175.32843  24252707.8914                   24252706.4654
 -27604151.18746 -20294727.52344  23280337.2974                   23280334.8634
 -27755073.26647 -21586086.17246  20436613.3914                   20436610.3364
 -10505272.52048  -8145479.21545  21745516.2974                   21745515.9344
 11  8 14  2 30  0.0000000  0  7G29G12G02G26G10G05G25
   7330647.40246   5796138.82444  22980769.1954                   22980767.9574
 -28332571.07047 -21865204.82845  21378793.1484                   21378789.9024
 -43326689.03947 -33719925.34845  21598558.0864                   21598552.7894
  19387369.13346  15313022.69943  24217748.0634                   24217746.7734
 -27592291.08646 -20285485.90243  23282593.7504                   23282591.6724
 -27829046.98048 -21643728.00846  20422536.2734                   20422533.5474
 -10604702.72348  -8222957.29746  21726595.4454                   21726595.0944
 11  8 14  2 30 30.0000000  0  7G29G12G02G26G10G05G25
   7160129.39146   5663267.78944  22948320.7114                   22948319.7774
 -28366867.21947 -21891929.09846  21372266.4304                   21372263.2194
 -43377438.36347 -33759470.25045  21588899.7734                   21588895.7974
  19203652.73446  15169867.12142  24182788.1884                   24182785.9024
 -27580200.59046 -20276064.74243  23284894.1564                   23284892.5904
 -27902465.53948 -21700937.25046  20408565.3834                   20408562.1994
 -10703545.17647  -8299977.38345  21707786.2974                   21707785.7544
 11  8 14  2 31  0.0000000  0  7G29G12G02G26G10G05G25
   6989664.58647   5530438.16844  22915882.6564                   22915880.3754
 -28400682.25047 -21918278.46545  21365831.6094                   21365828.5434
 -43428086.59847 -33798936.37945  21579262.3754                   21579257.4024
  19019935.21946  15026710.71543  24147828.3984                   24147826.2194
 -27567882.80546 -20266466.48843  23287238.7274                   23287237.0354
 -27975330.72748 -21757715.30146  20394699.8984                   20394696.2234
 -10801800.46547  -8376539.94545  21689088.6954                   21689088.6294
 11  8 14  2 31 30.0000000  0  7G29G12G02G26G10G05G25
   6819254.48847   5397651.18044  22883454.5394                   22883452.4614
 -28434019.09447 -21944255.20745  21359487.4924                   21359484.5274
 -43478634.45747 -33838324.29745  21569643.7664                   21569638.3524
  18836219.31646  14883555.56643  24112867.7664                   24112866.5704
 -27555341.69146 -20256694.20743  23289624.3834                   23289623.0084
 -28047644.35947 -21814063.56646  20380938.5394                   20380935.7734
 -10899469.01648  -8452645.30545  21670503.3134                   21670502.2034
 11  8 14  2 32  0.0000000  0  7G29G12G02G26G10G05G25
   6648901.05547   5264908.34844  22851037.2504                   22851035.1804
 -28466879.83647 -21969860.98045  21353234.4924                   21353231.4304
 -43529081.69947 -33877633.84445  21560043.2424                   21560038.6294
  18652508.86346  14740404.64543  24077908.5554                   24077907.2154
 -27542579.48846 -20246749.64143  23292053.1644                   23292051.2774
 -28119407.30148 -21869982.71546  20367282.8524                   20367279.2584
 -10996550.48447  -8528293.20345  21652029.5004                   21652028.9494
 11  8 14  2 32 30.0000000  0  7G29G12G02G26G10G05G25
   6478606.02747   5132211.04744  22818630.4304                   22818628.5354
 -28499266.62947 -21995097.43745  21347071.2974                   21347068.5004
 -43579428.85947 -33916865.39145  21550463.1414                   21550457.7894
  18468806.75846  14597260.22343  24042951.3364                   24042948.9804
 -27529599.11746 -20236635.08643  23294523.1254                   23294521.2464
 -28190620.81647 -21925473.75046  20353731.4384                   20353728.2384
 -11093044.90647  -8603483.65245  21633667.2504                   21633666.4184
 11  8 14  2 33  0.0000000  0  7G29G12G02G26G10G05G25
   6308370.06347   4999559.77744  22786236.0554                   22786234.0204
 -28531182.47747 -22019966.93745  21340997.9224                   21340994.9414
 -43629677.35947 -33956020.05145  21540900.7034                   21540895.6994
  18285115.76646  14454124.47743  24007995.3914                   24007994.4384
 -27516404.12546 -20226353.27043  23297034.1094                   23297032.1414
 -28261286.85248 -21980538.16046  20340283.8204                   20340280.9064
 -11188953.14547  -8678217.34445  21615416.5944                   21615415.9144
 11  8 14  2 33 30.0000000  0  7G29G12G02G26G10G05G25
   6138195.54747   4866956.35544  22753852.6564                   22753850.9694
 -28562629.06247 -22044470.76245  21335013.9774                   21335011.0594
 -43679826.35547 -33995097.18045  21531358.0554                   21531352.9534
  18101439.61346  14311000.30943  23973043.3594                   23973041.9694
 -27502996.48046 -20215905.75843  23299586.0394                   23299583.4654
 -28331406.25047 -22035176.62546  20326940.3204                   20326937.5394
 -11284274.63347  -8752493.79746  21597277.4614                   21597276.8134
 11  8 14  2 34  0.0000000  0  7G29G12G02G26G10G05G25
   5968085.10547   4734402.86344  22721482.1884                   22721479.7664
 -28593607.69147 -22068609.95345  21329119.2194                   21329116.2734
 -43729875.34447 -34034096.39545  21521833.6254                   21521828.6094
  17917782.74246  14167891.13743  23938094.5314                   23938093.3014
 -27489378.16046 -20205294.08243  23302177.4614                   23302174.4734
 -28400979.36348 -22089389.41046  20313701.1564                   20313698.0204
 -11379008.41048  -8826312.28545  21579249.9534                   21579249.7894
 11  8 14  2 34 30.0000000  0  7G29G12G02G26G10G05G25
   5798040.09447   4601900.35244  22689123.1414                   22689120.9304
 -28624121.18047 -22092386.69545  21323312.6804                   21323309.3594
 -43779825.22747 -34073018.36745  21512329.0394                   21512323.7034
  17734147.82446  14024799.11343  23903149.1334                   23903148.8244
 -27475552.66846 -20194520.95743  23304808.2344                   23304806.1024
 -28470007.99648 -22143177.93446  20300565.7344                   20300562.1484
 -11473155.12947  -8899673.35545  21561334.3834                   21561334.5004
 11  8 14  2 35  0.0000000  0  7G29G12G02G26G10G05G25
   5628061.07447   4469449.23844  22656776.6954                   22656774.7894
 -28654173.20347 -22115803.85945  21317593.5084                   21317590.7894
 -43829677.35547 -34111864.17645  21502842.4534                   21502836.7154
  17550537.03146  13881725.85543  23868209.5394                   23868209.5084
 -27461523.87546 -20183589.45743  23307477.8594                   23307475.9694
 -28538494.56648 -22196544.07046  20287533.0864                   20287529.7234
 -11566716.13748  -8972578.00046  21543530.2974                   21543529.5984
 11  8 14  2 35 30.0000000  0  7G29G12G02G26G10G05G25
   5458151.09447   4337051.93444  22624444.1414                   22624442.5554
 -28683764.06647 -22138861.66445  21311962.8674                   21311960.0664
 -43879430.62147 -34150632.94945  21493374.3444                   21493368.7734
  17366955.60546  13738675.49243  23833275.1724                   23833274.1564
 -27447292.89146 -20172500.39143  23310185.6334                   23310183.4844
 -28606438.91447 -22249487.70746  20274603.4614                   20274600.0634
 -11659689.85247  -9045025.03145  21525838.0704                   21525837.3834
 11  8 14  2 36  0.0000000  0  7G29G12G02G26G10G05G25
   5288310.93047   4204709.03544  22592124.9774                   22592123.4024
 -28712897.85947 -22161563.30945  21306418.7814                   21306416.0204
 -43929086.61347 -34189325.92245  21483924.8594                   21483920.1374
  17183405.44146  13595649.43843  23798346.5004                   23798345.1764
 -27432863.73046 -20161256.89543  23312932.3984                   23312929.4024
 -28673843.75847 -22302010.93446  20261776.8524                   20261773.5944
 -11752077.95747  -9117015.71945  21508256.6724                   21508256.3554
 11  8 14  2 36 30.0000000  0  7G29G12G02G26G10G05G25
   5118541.69547   4072421.41445  22559818.9304                   22559816.7704
 -28741577.49647 -22183911.08245  21300961.4224                   21300958.6484
 -43978645.81247 -34227943.45745  21474494.4144                   21474489.1804
  16999889.18046  13452649.87543  23763425.4774                   23763423.2034
 -27418239.80946 -20149861.60243  23315715.0704                   23315712.1644
 -28740710.88348 -22354115.16446  20249052.1484                   20249048.8554
 -11843880.98047  -9188550.51645  21490787.4064                   21490787.4734
 11  8 14  2 37  0.0000000  0  7G29G12G02G26G10G05G25
   4948846.78547   3940191.66845  22527527.0704                   22527524.5204
 -28769803.29347 -22205905.21545  21295590.4384                   21295587.2344
 -44028107.12947 -34266484.74245  21465082.3834                   21465077.0704
  16816412.33246  13309680.97744  23728510.5864                   23728508.1844
 -27403422.10546 -20138315.37543  23318534.0164                   23318531.9654
 -28807040.09047 -22405800.24646  20236430.4304                   20236426.5004
 -11935097.55147  -9259628.31645  21473429.7114                   21473428.9774
 11  8 14  2 37 30.0000000  0  7G29G12G02G26G10G05G25
   4779228.41847   3808021.56344  22495249.2274                   22495246.9694
 -28797577.57447 -22227547.49645  21290304.9384                   21290302.0474
 -44077470.07447 -34304949.37145  21455688.8364                   21455683.6134
  16632978.45346  13166745.54743  23693605.0864                   23693602.6954
 -27388413.30946 -20126620.23443  23321390.4064                   23321387.9304
 -28872832.50047 -22457067.03946  20223910.3834                   20223907.0784
 -12025727.58247  -9330249.08245  21456182.9144                   21456182.1764
 11  8 14  2 38  0.0000000  0  7G29G12G02G26G10G05G25
   6185113.08647   4903516.14144  22762780.2734                   22762778.3554
 -27249482.45347 -21021239.61345  21584897.5234                   21584894.5044
 -42551314.36347 -33115737.12145  21746106.6884                   21746101.3714
  18025016.18446  14251450.36343  23958499.5164                   23958498.8444
 -25797797.41846 -18887179.28543  23624074.3754                   23624072.5824
 -27362668.22347 -21280315.63746  20511285.3054                   20511281.6294
 -10540349.08247  -8172811.25845  21738841.2114                   21738839.8054
 11  8 14  2 38 30.0000000  0  7G29G12G02G26G10G05G25
   6015651.71947   4771468.35945  22730533.0704                   22730530.7704
 -27276362.30947 -21042184.96145  21579782.5164                   21579780.1094
 -42600483.33647 -33154050.58645  21736749.6724                   21736745.0164
  17841676.89146  14108588.64143  23923610.9064                   23923610.5704
 -25782415.75046 -18875193.58643  23627002.0474                   23626999.3714
 -27427392.75447 -21330750.32046  20498968.2894                   20498964.9924
 -10629808.34047  -8242519.74245  21721817.7664                   21721817.5204
 11  8 14  2 39  0.0000000  0  7G29G12G02G26G10G05G25
   5846269.87947   4639482.55144  22698300.4064                   22698298.4844
 -27302800.24647 -21062785.94545  21574751.7194                   21574748.4574
 -42649557.23047 -33192289.98445  21727411.8134                   21727406.1054
  17658388.46946  13965766.59843  23888732.4614                   23888731.2854
 -25766853.22746 -18863066.97342  23629963.0864                   23629960.5434
 -27491586.97747 -21380771.77746  20486752.6644                   20486749.5124
 -10718684.32047  -8311773.72346  21704905.4844                   21704904.3554
 11  8 14  2 39 30.0000000  0  7G29G12G02G26G10G05G25
   5676970.96147   4507561.36745  22666083.8444                   22666081.8404
 -27328797.04747 -21083043.18745  21569804.5234                   21569801.2934
 -42698534.63347 -33230454.16845  21718091.4454                   21718086.0594
  17475155.58546  13822987.79243  23853865.0164                   23853862.8524
 -25751111.67246 -18850800.81243  23632959.0554                   23632956.3794
 -27555251.16447 -21430380.21146  20474637.5944                   20474634.4964
 -10806975.93047  -8380572.34845  21688103.5864                   21688103.0514
 11  8 14  2 40  0.0000000  0  7G29G12G02G26G10G05G25
   5507757.36747   4375706.66445  22633883.9844                   22633881.4064
 -27354354.50047 -21102958.06645  21564941.0084                   21564938.3484
 -42747415.16447 -33268542.87945  21708790.3054                   21708784.6644
  17291982.66446  13680255.74643  23819007.3524                   23819005.9924
 -25735192.83646 -18838396.49642  23635988.0234                   23635985.2234
 -27618386.27747 -21479576.38746  20462623.1724                   20462619.8554
 -10894682.80947  -8448915.35245  21671413.5634                   21671413.1094
 11  8 14  2 40 30.0000000  0  7G29G12G02G26G10G05G25
   5338629.65247   4243918.91044  22601699.6414                   22601697.1994
 -27379477.11347 -21122534.13745  21560160.6644                   21560157.4224
 -42796200.29747 -33306557.27045  21699505.9614                   21699500.9694
  17108871.75846  13537571.99643  23784162.3134                   23784161.9344
 -25719100.93746 -18825857.35943  23639050.0314                   23639047.5124
 -27680995.52047 -21528362.79346  20450709.4614                   20450705.8404
 -10981806.78547  -8516804.13745  21654834.5004                   21654834.2974
 11  8 14  2 41  0.0000000  0  8G29G12G02G26G10G05G25G15
   5169589.14547   4112199.09844  22569532.4144                   22569530.2854
 -27404167.27347 -21141773.20745  21555461.9844                   21555459.0164
 -42844890.94947 -33344498.01645  21690240.8984                   21690235.6524
  16925825.49646  13394938.64143  23749330.8524                   23749329.3834
 -25702839.18046 -18813185.88343  23642145.0004                   23642142.1764
 -27743080.09447 -21576740.36346  20438895.1174                   20438892.0664
 -11068348.80147  -8584239.45746  21638366.4534                   21638365.7734
  28092754.42656  21932824.36352  24670603.4694                   24670601.0204
 11  8 14  2 41 30.0000000  0  8G29G12G02G26G10G05G25G15
   5000635.18047   3980546.71544  22537381.2894                   22537378.9414
 -27428430.18047 -21160679.37145  21550845.2734                   21550842.0044
 -42893489.65247 -33382367.12945  21680992.4144                   21680987.6054
  16742845.26646  13252356.72343  23714511.6884                   23714508.6484
 -25686412.65246 -18800385.98843  23645270.5864                   23645268.6024
 -27804644.61747 -21624712.69546  20427179.9454                   20427176.5904
 -11154311.82848  -8651223.62146  21622008.1024                   21622007.2194
  27911263.70346  21791403.17643  24636066.0004                   24636065.1484
 11  8 14  2 42  0.0000000  0  8G29G12G02G26G10G05G25G15
   4831768.13747   3848962.07845  22505246.7894                   22505244.6294
 -27452269.54747 -21179255.49645  21546308.0634                   21546305.7894
 -42941998.15647 -33420165.94145  21671762.2584                   21671756.7704
  16559932.75046  13109827.55943  23679703.2974                   23679701.3794
 -25669825.56646 -18787461.00443  23648426.3834                   23648424.9844
 -27865692.18047 -21672282.19546  20415562.7424                   20415559.0554
 -11239697.81647  -8717758.12945  21605759.9614                   21605758.6524
  27729647.20746  21649883.98843  24601505.5004                   24601504.8134
 11  8 14  2 42 30.0000000  0  8G29G12G02G26G10G05G25G15
   4662988.39547   3717445.47345  22473129.3054                   22473126.8484
 -27475689.58247 -21197504.86745  21541851.7274                   21541848.7544
 -42990417.89147 -33457895.57845  21662548.0394                   21662543.0234
  16377090.04346  12967352.80943  23644909.0554                   23644908.6024
 -25653081.97746 -18774414.04743  23651612.9304                   23651611.4414
 -27926225.82847 -21719451.25846  20404043.6094                   20404040.0474
 -11324508.66847  -8783844.49645  21589620.4844                   21589619.4304
  27547905.56346  21508267.31643  24566921.3594                   24566920.3444
 11  8 14  2 43  0.0000000  0  8G29G12G02G26G10G05G25G15
   4494299.10247   3585999.35944  22441028.5634                   22441026.0044
 -27498692.05547 -21215428.86345  21537474.5234                   21537471.2234
 -43038748.09047 -33495555.46145  21653350.7034                   21653346.4654
  16194321.85246  12824936.13344  23610130.0234                   23610128.6564
 -25636183.32846 -18761246.25843  23654828.5084                   23654826.5354
 -27986245.82047 -21766220.06646  20392622.5004                   20392618.6914
 -11408743.85947  -8849482.30145  21573591.4534                   21573590.7304
  27366042.39546  21366555.88343  24532314.1334                   24532312.8914
 11  8 14  2 43 30.0000000  0  8G29G12G02G26G10G05G25G15
   4325704.04347   3454626.67644  22408945.9614                   22408943.6604
 -27521277.30547 -21233027.77045  21533176.6804                   21533173.3204
 -43086986.86747 -33533144.09845  21644171.0704                   21644166.4574
  16011633.77046  12682581.87144  23575365.6334                   23575363.9224
 -25619130.52346 -18747958.36343  23658074.1484                   23658071.2814
 -28045752.10947 -21812588.58646  20381298.5314                   20381294.8204
 -11492401.88347  -8914670.35545  21557671.8444                   21557671.0514
  27184062.24646  21224753.33643  24497683.3754                   24497682.8794
 11  8 14  2 44  0.0000000  0  8G29G12G02G26G10G05G25G15
   4157205.22347   3323328.97344  22376881.5554                   22376879.2854
 -27543447.30547 -21250303.09845  21528957.6724                   21528954.9774
 -43135134.25447 -33570661.52345  21635009.1724                   21635003.9224
  15829029.03146  12540292.55144  23540617.2814                   23540614.8284
 -25601926.30546 -18734552.49243  23661347.1254                   23661345.5824
 -28104746.20747 -21858557.99246  20370072.7894                   20370068.7424
 -11575483.37148  -8979409.17245  21541861.4694                   21541861.1334
  27001967.60246  21082861.58243  24463031.8984                   24463031.8284
 11  8 14  2 44 30.0000000  0  8G29G12G02G26G10G05G25G15
   3988805.46947   3192108.44145  22344836.0004                   22344833.8634
 -27565204.34847 -21267256.63345  21524817.6644                   21524814.6374
 -43183189.58647 -33608107.22745  21625864.5234                   21625859.5434
  15646512.34447  12398071.83244  23505884.5944                   23505883.1844
 -25584572.28946 -18721029.87942  23664649.7894                   23664647.9024
 -28163228.70347 -21904128.75446  20358943.0634                   20358940.0944
 -11657988.05148  -9043698.53145  21526161.5864                   21526161.0904
  26819762.15246  20940883.48043  24428358.9774                   24428358.4414
 11  8 14  2 45  0.0000000  0  8G29G12G02G26G10G05G25G15
   3820506.55547   3060966.51645  22312809.7424                   22312807.7424
 -27586551.18747 -21283890.52745  21520755.5704                   21520752.4654
 -43231153.19947 -33645481.46145  21616736.7664                   21616732.2504
  15464086.78546  12255922.12944  23471170.5554                   23471169.0314
 -25567071.08046 -18707392.54942  23667980.7974                   23667978.0594
 -28221201.81247 -21949302.58646  20347911.4534                   20347908.0274
 -11739916.79747  -9107539.09846  21510570.8984                   21510570.5514
  26637447.85946  20798820.58242  24393665.1564                   24393665.3164
 11  8 14  2 45 30.0000000  0  8G29G12G02G26G10G05G25G15
   3652309.57847   2929904.02045  22280803.1884                   22280800.9654
 -27607491.01247 -21300207.26645  21516770.8834                   21516767.5984
 -43279025.79747 -33682784.76645  21607627.8364                   21607622.3284
  15281755.44946  12113845.84443  23436474.0394                   23436472.1294
 -25549426.31646 -18693643.34842  23671338.0474                   23671335.7194
 -28278667.84047 -21994081.28946  20336976.0314                   20336972.5474
 -11821270.79747  -9170931.82845  21495089.8054                   21495089.6524
  26455027.00845  20656674.66842  24358950.7504                   24358951.6294
 11  8 14  2 46  0.0000000  0  8G29G12G02G26G10G05G25G15
   3484219.38747   2798924.71945  22248816.7974                   22248813.7664
 -27628023.43447 -21316206.55145  21512863.9844                   21512860.6054
 -43326804.60247 -33720014.98845  21598535.4614                   21598530.3244
  15099524.53146  11971847.82443  23401796.7974                   23401794.9264
 -25531638.02346 -18679782.31643  23674723.4224                   23674721.2934
 -28335625.41447 -22038463.80146  20326137.1564                   20326133.7584
 -11902047.93047  -9233875.04345  21479718.8204                   21479717.5984
  26272505.02345  20514449.89142  24324218.6724                   24324218.5514
 11  8 14  2 46 30.0000000  0  8G29G12G02G26G10G05G25G15
   3316236.26647   2668028.85244  22216849.9064                   22216847.8714
 -27648153.02047 -21331891.93045  21509033.1644                   21509030.0084
 -43374491.38747 -33757173.52045  21589460.9064                   21589455.6724
  14917396.18846  11829929.72343  23367137.9224                   23367137.1524
 -25513710.26646 -18665812.64143  23678135.0474                   23678132.4144
 -28392078.33247 -22082453.06246  20315394.4454                   20315391.2624
 -11982250.53947  -9296370.58246  21464456.3134                   21464455.7704
  26089882.54746  20372146.85943  24289467.6954                   24289466.9414
 11  8 14  2 47  0.0000000  0  8G29G12G02G26G10G05G25G15
   4723787.15647   3764821.81344  22484698.4694                   22484696.0824
 -26092462.34047 -20119665.42645  21805071.5234                   21805067.9654
 -41846665.46947 -32566659.79745  21880196.7504                   21880191.2274
  16310799.20746  12915698.38343  23632294.9614                   23632292.5434
 -23920226.85946 -17424137.21943  23981364.3594                   23981362.2704
 -26872606.80147 -20898449.26246  20604540.4534                   20604537.0864
 -10486457.49247  -8130817.54745  21749096.5864                   21749095.8244
  27482587.74646  21457371.85943  24554490.8364                   24554490.2114
 11  8 14  2 47 30.0000000  0  8G29G12G02G26G10G05G25G15
   4556025.19547   3634098.25845  22452774.1414                   22452771.7704
 -26111792.76647 -20134728.09445  21801392.6884                   21801389.7894
 -41894167.63747 -32603674.47345  21871157.2344                   21871151.4694
  16128887.21946  12773948.86743  23597676.7034                   23597674.9344
 -23902026.85246 -17409955.42643  23984827.7344                   23984825.5944
 -26928054.12947 -20941654.95746  20593988.8834                   20593985.7074
 -10565512.46147  -8192418.82045  21734052.6094                   21734051.9884
  27299773.31646  21314919.16043  24519701.3524                   24519700.3834
 11  8 14  2 48  0.0000000  0  8G29G12G02G26G10G05G25G15
   4388377.08647   3503463.42645  22420871.9144                   22420869.6524
 -26130727.48847 -20149482.42645  21797790.0084                   21797786.1374
 -41941577.40647 -32640617.14145  21862135.2344                   21862129.7704
  15947088.98846  12632287.98043  23563082.5164                   23563080.2274
 -23883694.42646 -17395670.47743  23988315.9844                   23988314.3554
 -26983001.15247 -20984470.81246  20583533.1254                   20583529.6844
 -10643994.52348  -8253573.67246  21719117.9924                   21719117.5274
  27116867.14146  21172395.00843  24484895.2734                   24484894.4774
 11  8 14  2 48 30.0000000  0  8G29G12G02G26G10G05G25G15
   4220843.65647   3372917.96545  22388991.3754                   22388989.0984
 -26149269.98847 -20163931.12945  21794260.5164                   21794258.2384
 -41988895.75047 -32677488.55945  21853131.3134                   21853125.9414
  15765407.27346  12490717.88343  23528509.6954                   23528507.1564
 -23865233.08246 -17381285.02043  23991829.0164                   23991827.8984
 -27037450.56647 -21026898.90646  20573171.4384                   20573168.5234
 -10721905.41847  -8314283.45345  21704292.2734                   21704291.7504
  26933870.94146  21029800.68443  24450072.7664                   24450070.9024
 11  8 14  2 49  0.0000000  0  8G29G12G02G26G10G05G25G15
   4053427.11747   3242463.59845  22357132.7194                   22357130.6294
 -26167423.09447 -20178076.39845  21790806.4384                   21790803.3284
 -42036122.83247 -32714288.88745  21844143.7504                   21844138.7584
  15583845.68046  12349241.35943  23493959.6334                   23493957.3554
 -23846645.59045 -17366801.32843  23995366.4614                   23995365.4734
 -27091404.37147 -21068940.81246  20562904.1954                   20562901.1604
 -10799245.92647  -8374548.78145  21689574.4694                   21689573.8634
  26750787.50046  20887138.38743  24415233.0944                   24415231.6564
 11  8 14  2 49 30.0000000  0  8G29G12G02G26G10G05G25G15
   3886131.03547   3112103.08245  22325297.3524                   22325295.3674
 -26185188.35547 -20191919.46545  21787426.1094                   21787422.6644
 -42083257.22347 -32751016.96545  21835174.6884                   21835169.9924
  15402409.15646  12207862.33643  23459433.2664                   23459431.2344
 -23827932.99245 -17352220.09443  23998927.1484                   23998926.3014
 -27144862.63347 -21110596.58646  20552731.6094                   20552728.5394
 -10876015.66447  -8434369.34845  21674966.0394                   21674965.2304
  26567620.35546  20744410.88343  24380376.9144                   24380375.9964
 11  8 14  2 50  0.0000000  0  8G29G12G02G26G10G05G25G15
   3718956.94147   2981837.60545  22293485.4694                   22293482.0164
 -26202568.28547 -20205462.25845  21784118.3834                   21784115.5394
 -42130299.28147 -32787673.10945  21826222.5704                   21826217.7734
  15221100.77346  12066583.12543  23424931.4844                   23424929.1524
 -23809098.23846 -17337543.72342  24002512.2424                   24002509.9494
 -27197827.93747 -21151868.23846  20542652.9454                   20542649.3524
 -10952215.80547  -8493746.07045  21660465.6484                   21660465.1374
  26384372.05146  20601620.16043  24345506.2584                   24345504.9414
 11  8 14  2 50 30.0000000  0  8G29G12G02G26G10G05G25G15
   3551905.27047   2851667.54345  22261696.2894                   22261693.9654
 -26219567.17647 -20218708.14145  21780883.6254                   21780880.7384
 -42177250.26647 -32824258.28945  21817288.4064                   21817283.0984
  15039923.02346  11925405.70743  23390453.8204                   23390451.7854
 -23790145.32446 -17322775.21543  24006118.4694                   24006116.2504
 -27250303.37147 -21192758.17246  20532666.8834                   20532663.8984
 -11027848.46947  -8552680.60945  21646072.7974                   21646072.6334
  26201044.16446  20458767.40643  24310619.6094                   24310618.8954
 11  8 14  2 51  0.0000000  0  8G29G12G02G26G10G05G25G15
   3384981.00047   2721596.75845  22229931.3284                   22229929.8874
 -26236185.06647 -20231657.15645  21777721.9304                   21777718.1804
 -42224107.30147 -32860770.26645  21808371.8674                   21808367.0944
  14858882.34446  11784335.10944  23356003.1884                   23356000.6644
 -23771074.00846 -17307914.47343  24009747.0784                   24009745.5274
 -27302287.91047 -21233265.59446  20522774.9924                   20522770.9964
 -11102911.91447  -8611171.59045  21631788.6804                   21631788.2774
  26017642.09446  20315856.83643  24275719.7664                   24275718.5554
 11  8 14  2 51 30.0000000  0  8G29G12G02G26G10G05G25G15
   3218183.55547   2591624.79745  22198191.4304                   22198188.9534
 -26252427.45347 -20244313.54745  21774631.1644                   21774627.7424
 -42270873.64147 -32897211.56645  21799472.1334                   21799467.5704
  14677979.22346  11643371.69943  23321579.0704                   23321576.3874
 -23751889.57446 -17292965.55543  24013398.3594                   24013396.0124
 -27353786.17647 -21273394.09446  20512974.9614                   20512971.6914
 -11177409.98047  -8669222.01645  21617612.1174                   21617611.5904
  25834165.33646  20172888.10243  24240804.5084                   24240803.5824
 11  8 14  2 52  0.0000000  0  8G29G12G02G26G10G05G25G15
   3051515.77747   2461753.87145  22166475.1334                   22166473.0124
 -26268295.85547 -20256678.52745  21771611.2504                   21771607.8874
 -42317548.23047 -32933581.37945  21790590.0704                   21790585.2774
  14497218.64846  11502519.38743  23287180.8754                   23287178.8874
 -23732593.72746 -17277929.76643  24017070.0554                   24017068.0354
 -27404799.44147 -21313144.68446  20503267.8524                   20503264.2034
 -11251342.53147  -8726831.78945  21603543.3914                   21603542.8554
  25650617.64146  20029864.09043  24205876.4534                   24205875.6214
 11  8 14  2 52 30.0000000  0  8G29G12G02G26G10G05G25G15
   2884979.67247   2331985.53145  22134784.0554                   22134781.5274
 -26283793.59047 -20268754.68045  21768662.5314                   21768658.6994
 -42364131.20747 -32969879.80945  21781725.9924                   21781720.7274
  14316603.72746  11361780.57043  23252810.2034                   23252808.8204
 -23713189.03946 -17262809.14842  24020762.0554                   24020760.3094
 -27455329.37547 -21352518.64146  20493651.8134                   20493648.8594
 -11324710.87147  -8784001.89845  21589582.2034                   21589581.2464
  25467001.94146  19886787.02743  24170934.8204                   24170934.7384
 11  8 14  2 53  0.0000000  0  8G29G12G02G26G10G05G25G15
   2718577.09847   2202321.23845  22103118.9844                   22103116.1644
 -26298923.41447 -20280544.15245  21765783.0634                   21765779.9104
 -42410622.89847 -33006107.09445  21772879.3834                   21772873.5664
  14136138.11746  11221158.10543  23218469.3204                   23218467.2464
 -23693677.85946 -17247605.57843  24024475.3674                   24024473.9104
 -27505378.33647 -21391517.81646  20484127.5784                   20484124.4064
 -11397516.10247  -8840733.22345  21575727.3834                   21575726.9774
  25283320.75846  19743658.93843  24135981.9534                   24135980.4304
 11  8 14  2 53 30.0000000  0  8G29G12G02G26G10G05G25G15
   2552309.73447   2072762.33245  22071479.1334                   22071476.7424
 -26313688.44947 -20292049.36745  21762972.9224                   21762970.4494
 -42457023.60547 -33042263.48445  21764049.2814                   21764043.9804
  13955825.04346  11080654.49243  23184156.5554                   23184154.8524
 -23674063.61346 -17232321.73842  24028206.8524                   24028206.0864
 -27554948.69547 -21430144.05546  20474695.1254                   20474691.5474
 -11469759.85548  -8897027.05945  21561980.0394                   21561979.1844
  25099575.96546  19600481.28943  24101016.7504                   24101014.8554
 11  8 14  2 54  0.0000000  0  8G29G12G02G26G10G05G25G15
   2386180.38347   1943310.94545  22039866.1174                   22039863.2544
 -26328090.32847 -20303271.60545  21760232.5394                   21760230.0704
 -42503332.17647 -33078348.08245  21755236.8914                   21755231.7934
  13775669.05546  10940273.28943  23149873.8754                   23149871.2544
 -23654347.52345 -17216958.55942  24031960.0394                   24031958.0354
 -27604041.28947 -21468398.01646  20465353.0234                   20465349.8914
 -11541442.14847  -8952883.36745  21548339.2974                   21548338.2034
  24915771.40246  19457257.08243  24066039.9694                   24066038.5044
 11  8 14  2 54 30.0000000  0  8G29G12G02G26G10G05G25G15
   2220192.59047   1813969.87545  22008279.1564                   22008276.6914
 -26342130.94147 -20314212.33645  21757560.7974                   21757557.7664
 -42549547.64146 -33114360.12145  21746442.2894                   21746437.3794
  13595674.73046  10800018.03943  23115621.7034                   23115619.9574
 -23634531.19545 -17201517.32042  24035731.0634                   24035729.4884
 -27652657.25047 -21506280.56646  20456101.1724                   20456098.2344
 -11612563.10247  -9008302.26645  21534805.6174                   21534804.3014
  24731910.96946  19313989.32443  24031052.8914                   24031050.5124
 11  8 14  2 55  0.0000000  0  8G29G12G02G26G10G05G25G15
   2054347.90647   1684740.30145  21976720.1804                   21976717.1094
 -26355813.53147 -20324874.09445  21754956.4534                   21754954.1134
 -42595670.20347 -33150299.78545  21737665.5004                   21737660.0124
  13415845.74246  10659891.62144  23081402.0554                   23081399.5634
 -23614617.43045 -17186000.12542  24039520.4304                   24039518.6524
 -27700798.62147 -21543793.32046  20446940.4614                   20446937.0664
 -11683124.02047  -9063284.78945  21521378.1334                   21521377.2584
  24547997.20746  19170679.98843  23996053.8914                   23996052.8954
 11  8 14  2 55 30.0000000  0  8G29G12G02G26G10G05G25G15
   1888648.52047   1555623.94145  21945188.1954                   21945186.0984
 -26369141.14847 -20335259.26245  21752420.4534                   21752417.9454
 -42641699.87947 -33186167.05945  21728906.4694                   21728901.2774
  13236185.51646  10519896.69544  23047212.7814                   23047211.1024
 -23594608.60945 -17170408.89542  24043326.2664                   24043325.8484
 -27748467.32847 -21580937.75846  20437869.3674                   20437866.1884
 -11753126.06247  -9117831.81245  21508057.0314                   21508056.0594
  24364032.82446  19027331.25443  23961047.6564                   23961045.2894
 11  8 14  2 56  0.0000000  0  8G29G12G02G26G10G05G25G15
   3298522.00847   2654226.70345  22213478.8134                   22213475.7854
 -24806695.99247 -19117769.52745  22049744.5084                   22049741.1454
 -41112215.39547 -31994360.96545  22019957.9924                   22019952.8754
  14632123.69146  11607640.77043  23312851.6564                   23312849.0274
 -21999088.09846 -15927146.17643  24346945.4844                   24346943.0234
 -26220244.21147 -20390114.53546  20728680.5554                   20728677.3054
 -10247148.28147  -7944342.63345  21794635.3594                   21794633.9614
  25755446.60946  20111549.89843  24225824.9144                   24225822.6954
 11  8 14  2 56 30.0000000  0  8G29G12G02G26G10G05G25G15
   3133118.87147   2525341.17645  22182003.9064                   22182000.9694
 -24819322.21947 -19127608.14145  22047341.9534                   22047338.7424
 -41158060.08247 -32030084.10545  22011233.9694                   22011228.5354
  14452811.49646  11467917.02343  23278729.7274                   23278727.2934
 -21978897.55146 -15911413.26643  24350786.6884                   24350784.8094
 -26266974.95747 -20426528.09846  20719788.0314                   20719784.8954
 -10316037.07847  -7998022.19545  21781526.0784   21781525.2464   25571388.51646
  19968128.14843                  24190799.0474                   24190797.3554
 11  8 14  2 57  0.0000000  0  8G29G12G02G26G10G05G25G15
   2967865.02347   2396571.98045  22150556.5704                   22150553.8594
 -24831604.07447 -19137178.40645  22045004.8284                   22045001.5664
 -41203814.21947 -32065736.69545  22002527.3754                   22002521.9224
  14273676.50846  11328331.37143  23244642.2424                   23244639.0634
 -21958621.77046 -15895613.99643  24354645.6954                   24354643.3674
 -26313241.55147 -20462579.98046  20710984.2034                   20710980.6604
 -10384373.10548  -8051271.02045  21768521.8284   21768521.2814   25387285.68046
  19824671.48043                  24155765.7034                   24155763.7504
 11  8 14  2 57 30.0000000  0  8G29G12G02G26G10G05G25G15
   2802763.33647   2267921.35245  22119138.7194                   22119136.0704
 -24843543.05547 -19146481.49645  22042732.9304                   22042729.6214
 -41249476.64547 -32101317.82045  21993837.7344                   21993832.3914
  14094723.60546  11188887.59443  23210587.4774                   23210585.8674
 -21938262.35946 -15879749.50443  24358520.3364                   24358517.9654
 -26359045.11747 -20498271.05946  20702267.7344                   20702264.5164
 -10452156.68447  -8104089.37545  21755623.1954   21755622.4224   25203141.75046
  19681182.87543                  24120723.1644                   24120722.1134
 11  8 14  2 58  0.0000000  0  8G29G12G02G26G10G05G25G15
   2637816.05547   2139391.03945  22087750.0634                   22087747.8134
 -24855142.59047 -19155520.08645  22040524.9844                   22040522.2234
 -41295047.57047 -32136827.61745  21985165.8754                   21985160.8444
  13915956.49646  11049588.60943  23176569.2034                   23176567.3954
 -21917821.80946 -15863821.80542  24362409.9304                   24362407.7344
 -26404387.90647 -20533603.09046  20693639.4304                   20693636.1454
 -10519389.14547  -8156478.28945  21742829.1954   21742828.5984   25018959.49246
  19537664.36343                  24085674.5084                   24085673.6374
 11  8 14  2 58 30.0000000  0  8G29G12G02G26G10G05G25G15
   2473025.00447   2010982.45345  22056391.6644                   22056389.1484
 -24866406.22347 -19164296.93745  22038381.6884                   22038378.9534
 -41340527.44147 -32172266.47745  21976511.3444                   21976506.1914
  13737378.12546  10910436.68843  23142586.4774                   23142584.8634
 -21897302.82445 -15847832.98042  24366313.8914                   24366312.7544
 -26449272.12947 -20568577.79746  20685098.2584                   20685094.6914
 -10586072.35247  -8208439.23045  21730139.8914   21730138.9534   24834740.78546
  19394117.43843                  24050618.7814                   24050618.2384
 11  8 14  2 59  0.0000000  0  8G29G12G02G26G10G05G25G15
   2308391.39147   1882696.55145  22025063.0164                   22025059.7894
 -24877337.29347 -19172814.65245  22036301.6484                   22036299.0084
 -41385916.86347 -32207634.85545  21967873.5944                   21967869.0664
  13558991.29346  10771434.03943  23108640.9844                   23108639.1724
 -21876708.88345 -15831785.74242  24370233.1644                   24370231.3284
 -26493701.18447 -20603197.83646  20676643.0234                   20676640.1684
 -10652208.38347  -8259973.77745  21717554.6484   21717554.0664   24650488.48846
  19250544.36743                  24015557.4224                   24015556.4184
 11  8 14  2 59 30.0000000  0  8G29G12G02G26G10G05G25G15
   2143919.26247   1754536.48045  21993765.1254                   21993762.2584
 -24887936.75047 -19181073.95345  22034284.7734                   22034281.0354
 -41431214.06647 -32242931.38345  21959254.4454                   21959249.2074
  13380801.78146  10632585.12543  23074733.0554                   23074730.6564
 -21856040.31246 -15815680.44142  24374166.4924                   24374165.2384
 -26537675.55547 -20637463.56246  20668275.4144                   20668272.2464
 -10717796.75847  -8311081.59045  21705073.7034   21705073.2234   24466206.75446
  19106948.32443                  23980489.9144                   23980488.0164
 11  8 14  3  0  0.0000000  0  8G29G12G02G26G10G05G25G15
   1979610.27347   1626503.53145  21962497.2974                   21962494.9414
 -24898208.04747 -19189077.54745  22032329.9384                   22032327.2154
 -41476419.16847 -32278156.14145  21950652.2274                   21950646.7894
  13202812.60246  10493892.30944  23040862.7974                   23040859.4064
 -21835299.94545 -15799519.18742  24378112.8284                   24378112.0204
 -26581197.21547 -20671376.53546  20659993.6024                   20659990.2344
 -10782839.23447  -8361764.04745  21692696.8054   21692695.8054   24281898.14846
  18963331.34843                  23945416.4384                   23945414.0274
 11  8 14  3  0 30.0000000  0  8G29G12G02G26G10G05G25G15
   1815467.06647   1498599.76245  21931262.2344                   21931259.9104
 -24908153.49647 -19196827.23045  22030437.9384                   22030434.8524
 -41521531.85947 -32313308.89145  21942067.7734                   21942062.1764
  13025028.18846  10355359.06644  23007031.2344                   23007028.7894
 -21814490.08645 -15783303.71542  24382073.1174                   24382071.7814
 -26624267.63347 -20704937.89846  20651797.9924                   20651794.1804
 -10847336.86348  -8412021.92645  21680423.5164   21680422.5474   24097565.88346
  18819695.94143                  23910338.6484                   23910336.8014
 11  8 14  3  1  0.0000000  0  8G29G12G02G26G10G05G25G15
   1651493.04747   1370827.82845  21900058.8674                   21900056.6024
 -24917774.76247 -19204324.30945  22028606.9774                   22028603.7974
 -41566550.82047 -32348388.60945  21933501.1724                   21933495.4414
  12847453.29747  10216989.08644  22973240.2114                   22973237.7894
 -21793611.56646 -15767034.73042  24386046.7584                   24386044.5394
 -26666888.24247 -20738148.73846  20643687.2034                   20643683.7774
 -10911289.78947  -8461855.35245  21668253.0554   21668252.1804   23913213.99246
  18676045.24643                  23875257.2814                   23875256.3284
 11  8 14  3  1 30.0000000  0  9G29G12G02G26G10G05G25G15G21
   1487690.09447   1243189.19545  21868888.6564                   21868885.6524
 -24927075.55947 -19211571.67645  22026836.8444                   22026833.8524
 -41611476.39847 -32383395.53945  21924951.6644                   21924945.9614
  12670091.00047  10078784.74644  22939488.6884                   22939485.8094
 -21772667.57846 -15750714.73842  24390032.0634                   24390029.8054
 -26709061.15647 -20771010.73846  20635662.2814                   20635658.5944
 -10974700.03547  -8511265.92245  21656186.5004   21656185.7854   23728845.03546
  18532381.25043                  23840173.4304                   23840172.2074
  31296745.30955  24514160.19953  25137601.7034                   25137599.0984
 11  8 14  3  2  0.0000000  0  9G29G12G02G26G10G05G25G15G21
   1324056.55147   1115682.56345  21837750.0084                   21837747.5234
 -24936062.16047 -19218574.19945  22025126.1254                   22025123.3484
 -41656312.22747 -32418332.55145  21916419.2274                   21916414.0864
  12492941.53947   9940746.24644  22905778.6174                   22905775.4884
 -21751663.89546 -15734348.28142  24394028.5554                   24394026.6484
 -26750792.57847 -20803528.71146  20627720.6254                   20627717.4534
 -11037572.73447  -8560257.62945  21644222.1564   21644221.6604   23544457.83246
  18388703.00843                  23805086.0704                   23805084.1174
  31152001.84845  24401373.23442  25110058.1024                   25110056.1094
 11  8 14  3  2 30.0000000  0  9G29G12G02G26G10G05G25G15G21
   1160594.06347    988309.24645  21806643.7504                   21806641.7154
 -24944738.04747 -19225334.61345  22023475.9304                   22023472.2894
 -41701058.53947 -32453199.81645  21907904.7584                   21907899.1524
  12316007.97347   9802875.97344  22872109.4924                   22872106.8204
 -21730603.42646 -15717937.54342  24398036.4454                   24398034.8754
 -26792085.23847 -20835704.80146  20619862.6254                   20619859.7274
 -11099909.80547  -8608831.95745  21632359.5864   21632359.0234   23360055.00446
  18245012.61743                  23769995.0944                   23769993.7584
  31007272.03945  24288596.91842  25082516.1254                   25082515.4534
 11  8 14  3  3  0.0000000  0  9G29G12G02G26G10G05G25G15G21
    997303.65647    861070.00845  21775571.2034                   21775568.1454
 -24953107.82847 -19231856.51245  22021882.8834                   22021879.7504
 -41745716.68747 -32487998.38345  21899406.6414                   21899400.7974
  12139292.76646   9665175.84443  22838480.9534                   22838478.4024
 -21709489.90245 -15701485.44942  24402053.9304                   24402052.5984
 -26832942.61747 -20867541.71146  20612087.8754                   20612085.0274
 -11161714.23447  -8656991.25045  21620598.7814   21620598.2344   23175637.94146
  18101311.08644                  23734901.7974                   23734899.9104
  30862554.09446  24175829.80543  25054977.3754                   25054976.7424
 11  8 14  3  3 30.0000000  0  9G29G12G02G26G10G05G25G15G21
    834187.91047    733966.84445  21744531.2114                   21744528.1604
 -24961173.68447 -19238141.58645  22020347.8674                   22020344.6644
 -41790285.74647 -32522727.53145  21890925.0944                   21890920.0664
  11962799.93046   9527649.02344  22804895.5554                   22804892.7934
 -21688325.28545 -15684993.53542  24406081.7344                   24406079.7344
 -26873366.26247 -20899040.64146  20604395.7504                   20604392.4804
 -11222987.03947  -8704736.27345  21608939.2584   21608938.0784   22991209.77346
  17957600.95743                  23699805.3594                   23699804.1134
  30717847.98846  24063071.97343  25027440.5554                   25027440.0044
 11  8 14  3  4  0.0000000  0  9G29G12G02G26G10G05G25G15G21
    671250.67647    607002.79345  21713524.9384                   21713522.5354
 -24968936.64847 -19244190.63745  22018870.7504                   22018867.7664
 -41834764.01247 -32557385.92645  21882461.3674                   21882456.3674
  11786535.18046   9390299.89543  22771353.6094                   22771351.1954
 -21667109.85945 -15668462.04742  24410119.5314                   24410117.1214
 -26913356.55147 -20930201.88746  20596785.7894                   20596782.5084
 -11283727.85548  -8752066.76245  21597380.5704   21597379.5164   22806775.53546
  17813886.05143                  23664709.5004                   23664707.5984
  30573155.14846  23950324.41842  24999907.0164                   24999905.7934
 11  8 14  3  4 30.0000000  0  9G29G12G02G26G10G05G25G15G21
    508494.40647    480179.78545  21682553.1564                   21682550.7934
 -24976399.55947 -19250005.89145  22017450.7194                   22017447.5904
 -41879151.35547 -32591973.45744  21874014.4694                   21874009.5944
  11610502.10946   9253131.33244  22737855.7034                   22737852.6214
 -21645845.79745 -15651892.62542  24414164.0084                   24414164.3244
 -26952915.94147 -20961027.37946  20589258.0634                   20589254.3554
 -11343938.46148  -8798984.10245  21585922.6884   21585922.1414   22622338.15646
  17670168.71143                  23629611.5944                   23629609.8204
  30428474.71546  23837586.55142  24972375.8444                   24972372.2114
 11  8 14  3  5  0.0000000  0  9G29G12G02G26G10G05G25G15G21
   1921346.84447   1581103.78945  21951410.1644                   21951407.5234
 -23408145.58647 -18027989.80145  22315880.2974                   22315876.3444
 -40348026.38747 -31398889.04344  22165377.8594                   22165372.7384
  13010130.18446  10343750.64543  23004196.1484                   23004192.9024
 -20049116.38345 -14407688.02042  24718011.7814                   24718012.2814
 -25416625.05547 -19763917.57446  20881604.1254                   20881600.9224
  -9828198.43447  -7617887.96945  21874358.6094   21874358.0984   24013326.55146
  18754055.85543                  23894308.5704                   23894306.0394
  31859230.87546                  24952461.63742  25244639.0474   25244636.6294
 11  8 14  3  5 30.0000000  0  8G29G12G02G26G05G25G15G21
   1758960.91847   1454569.33245  21920509.0164                   21920506.4614
 -23415016.27347 -18033343.57445  22314572.3134                   22314568.5084
 -40392230.01247 -31433333.43745  22156966.2734                   22156961.4024
  12834573.30546  10206953.11344  22970788.2664                   22970785.5824
 -25455327.19547 -19794075.07446  20874239.3754                   20874235.9804
  -9887351.61748  -7663981.36745  21863102.1334   21863101.1524   23828892.99646
  18610341.52043                  23859211.5634                   23859209.7114
  31714575.74246                  24839743.46942  25217110.9774   25217110.0594
 11  8 14  3  6  0.0000000  0  8G29G12G02G26G05G25G15G21
   1596765.15647   1328183.07445  21889644.2664                   21889642.3674
 -23421593.55147 -18038468.70745  22313320.4064                   22313317.0434
 -40436339.67647 -31467704.60945  22148572.6254                   22148567.4104
  12659261.67246  10070346.69144  22937427.8444                   22937425.3324
 -25493602.10547 -19823899.66446  20866956.0004                   20866952.5394
  -9945976.96547  -7709663.43445  21851945.8754   21851944.9264   23644467.64146
  18466633.51643                  23824116.3524                   23824114.9224
  31569933.61746                  24727035.48442  25189587.3984   25189585.9574
 11  8 14  3  6 30.0000000  0  8G29G12G02G26G05G25G15G21
   1434764.52347   1201948.86345  21858816.8444                   21858813.8364
 -23427877.53147 -18043365.32045  22312124.1484                   22312121.6684
 -40480352.91047 -31502000.68044  22140197.3284                   22140190.9494
  12484201.75046   9933936.41044  22904114.9844                   22904112.3794
 -25531449.77347 -19853391.33646  20859753.7734                   20859750.4494
 -10004073.58647  -7754933.52345  21840890.8364   21840889.5704   23460055.53146
  18322935.89543                  23789023.8674                   23789022.0864
  31425306.80546                  24614339.36342  25162064.9924   25162063.9064
 11  8 14  3  7  0.0000000  0  8G29G12G02G26G05G25G15G21
   1272962.19547   1075869.17245  21828026.7974                   21828024.0394
 -23433870.50447 -18048035.15645  22310984.0004                   22310980.6804
 -40524268.48447 -31536220.62945  22131840.6334                   22131834.2704
  12309397.94947   9797725.71944  22870850.9774                   22870848.6294
 -25568871.63747 -19882551.21546  20852632.2894                   20852629.1954
 -10061642.15247  -7799792.14145  21829936.1334   21829934.6214   23275660.43046
  18179251.51643                  23753934.5004                   23753932.2854
  31280696.07846                  24501655.78542  25134546.6644   25134545.6334
 11  8 14  3  7 30.0000000  0  8G29G12G02G26G05G25G15G21
   1111358.48447    949944.26245  21797274.7814                   21797271.9024
 -23439576.90647 -18052481.71145  22309898.2584                   22309894.9654
 -40568087.78147 -31570365.55144  22123501.8834                   22123496.0314
  12134852.57846   9661716.35944  22837636.5474                   22837633.8134
 -25605871.40647 -19911382.18746  20845591.5314                   20845588.2424
 -10118686.10947  -7844241.97745  21819081.1484   21819079.8754   23091284.11346
  18035581.74243                  23718848.9924                   23718846.9064
  31136098.89546                  24388982.71542  25107029.7504   25107030.3874
 11  8 14  3  8  0.0000000  0  8G29G12G02G26G05G25G15G21
    949954.88747    824175.27745  21766560.5164                   21766557.6254
 -23445001.12947 -18056708.37545  22308866.3054                   22308863.4654
 -40611811.45347 -31604435.94145  22115181.6414                   22115176.3094
  11960568.14546   9525910.36744  22804471.1484                   22804468.4844
 -25642452.23847 -19939886.71546  20838630.7734                   20838627.2464
 -10175208.12147  -7888285.10245  21808324.6954   21808323.8164   22906928.49246
  17891928.11743                  23683767.2424                   23683764.9064
  30991513.64845                  24276319.07442  25079516.5164   25079516.3444
 11  8 14  3  8 30.0000000  0  8G29G12G02G26G05G25G15G21
    788753.16447    698563.58645  21735884.6954                   21735881.7074
 -23450146.09047 -18060717.41445  22307887.0864                   22307883.9304
 -40655439.96947 -31638432.20745  22106879.6804                   22106874.4844
  11786548.30946   9390310.53944  22771355.6644                   22771353.3014
 -25678616.91047 -19968066.96946  20831749.1804                   20831745.3794
 -10231210.34847  -7931923.18445  21797667.8054   21797666.9104   22722596.02346
  17748292.52743                  23648690.0864                   23648687.5044
  30846939.75046                  24163664.12142  25052004.9844   25052004.7424
 11  8 14  3  9  0.0000000  0  8G29G12G02G26G05G25G15G21
    627754.34847    573110.02045  21705247.6254                   21705245.1214
 -23455016.45747 -18064512.51245  22306960.4614                   22306957.0434
 -40698974.61347 -31672355.29344  22098594.9064                   22098589.3674
  11612794.84847   9254918.26644  22738292.0084                   22738289.3484
 -25714369.03147 -19995925.74646  20824945.6484                   20824941.6724
 -10286696.12547  -7975158.85545  21787109.4534   21787108.5594   22538288.18846
  17604676.11744                  23613618.2974                   23613614.7624
  30702374.97345                  24051016.34442  25024495.2894   25024494.3404
 11  8 14  3  9 30.0000000  0  8G29G12G02G26G05G25G15G21
    466961.27347    447816.75845  21674649.6724                   21674647.1414
 -23459614.68447 -18068095.53545  22306085.1724                   22306081.9184
 -40742414.46947 -31706204.53544  22090328.3674                   22090323.5394
  11439312.35246   9119737.14544  22705279.5234                   22705277.0434
 -25749710.33248 -20023464.40646  20818220.2424                   20818216.7344
 -10341666.55147  -8017992.94945  21776648.8754   21776648.3134   22354008.56646
  17461081.69943                  23578550.1024                   23578547.0554
  30557819.64546                  23938375.95742  24996987.4534   24996986.4574
 11  8 14  3 10  0.0000000  0  8G29G12G02G26G05G25G15G21
    306376.64547    322685.92245  21644091.2344                   21644088.7894
 -23463943.23447 -18071468.43745  22305261.2424                   22305258.1174
 -40785758.94947 -31739979.46144  22082080.3364                   22082075.4184
  11266105.09046   8984770.48044  22672318.4454                   22672316.2504
 -25784642.69947 -20050684.42246  20811572.5234                   20811569.3984
 -10396123.04347  -8060426.57445  21766286.3834   21766285.3094   22169760.49246
  17317511.87943                  23543488.4304                   23543485.6294
  30413273.29346                  23825742.54742  24969480.7734   24969479.7854
 11  8 14  3 10 30.0000000  0  8G29G12G02G26G05G25G15G21
    146000.07047    197717.21145  21613572.3284                   21613570.2894
 -23468007.52347 -18074635.43045  22304488.1334                   22304485.0554
 -40829010.41447 -31773681.91844  22073849.8134                   22073844.3834
  11093174.02347   8850019.04744  22639410.8054                   22639407.9414
 -25819170.78947 -20077589.41446  20805002.2894                   20804998.9774
 -10450069.93448  -8102463.09445  21756020.7734   21756019.9344   21985544.66847
  17173967.17244                  23508433.2274                   23508430.6054
  30268733.17245                  23713113.85242  24941977.3524   24941974.9344
 11  8 14  3 11  0.0000000  0  8G29G12G02G26G05G25G15G21
    -14161.34447     72916.15645  21583094.9144                   21583092.2814
 -23471806.06247 -18077595.34845  22303765.4694                   22303762.3674
 -40872163.99247 -31807308.09844  22065638.1254                   22065632.4414
  10920527.49647   8715489.32044  22606557.4534                   22606554.4534
 -25853292.59847 -20104177.82046  20798508.9774                   20798505.6094
 -10503504.55948  -8144100.46545  21745851.8914   21745851.6374   21801367.95746
  17030452.95344                  23473385.8594                   23473383.2424
  30124203.39545                  23600493.39842  24914472.9064   24914472.1524
 11  8 14  3 11 30.0000000  0  8G29G12G02G26G05G25G15G21
   -174107.69147    -51717.32445  21552657.7664                   21552655.5234
 -23475344.49647 -18080352.57045  22303092.2814                   22303088.7464
 -40915222.21147 -31840860.00844  22057444.6484                   22057438.8134
  10748166.66447   8581182.20744  22573758.6804                   22573755.2274
 -25887012.91447 -20130453.38346  20792092.7734                   20792088.6884
 -10556431.37948  -8185342.12545  21735780.6954   21735779.9344   21617231.24646
  16886969.90644                  23438346.1334                   23438343.3554
  29979680.66845                  23487878.35942  24886970.4384   24886970.9494
 11  8 14  3 12  0.0000000  0  8G29G12G02G26G05G25G15G21
   -333838.12947   -176182.57445  21522262.3754                   21522259.7934
 -23478626.76647 -18082910.19145  22302467.5784                   22302463.9844
 -40958185.69947 -31874338.07445  22049268.9064                   22049263.6454
  10576094.12147   8447099.74244  22541014.0394                   22541010.5864
 -25920335.19547 -20156418.77746  20785751.6174                   20785747.7384
 -10608853.37548  -8226190.42245  21725804.9224   21725804.2274   21433136.64546
  16743519.66443                  23403313.0234                   23403310.9534
  29835163.39845                  23375267.62942  24859469.7504   24859469.1954
 11  8 14  3 12 30.0000000  0  8G29G12G02G26G05G25G15G21
   -493350.35947   -300477.77745  21491908.1954                   21491905.6604
 -23481655.74647 -18085270.42645  22301891.1414                   22301887.6604
 -41001054.13747 -31907742.03545  22041111.0004                   22041106.5084
  10404313.72347   8313244.91444  22508325.4534                   22508322.5314
 -25953261.46947 -20182075.60246  20779485.6484                   20779481.9534
 -10660772.39547  -8266646.79345  21715924.8674   21715924.0904   21249086.98046
  16600104.43043                  23368289.6484                   23368287.3984
  29690651.21546                  23262660.83642  24831970.7114   24831969.9184
 11  8 14  3 13  0.0000000  0  8G29G12G02G26G05G25G15G21
   -652639.73447   -424599.33245  21461596.3524                   21461593.7034
 -23484432.66847 -18087434.25045  22301362.5084                   22301359.5124
 -41043825.50047 -31941070.36345  22032972.1094                   22032967.0784
  10232831.18447   8179622.20344  22475693.7424                   22475691.0864
 -25985792.10247 -20207424.13346  20773295.6254                   20773291.8834
 -10712188.41847  -8306711.22345  21706140.7734   21706139.9224   21065087.39146
  16456728.22343                  23333275.3284                   23333272.4924
  29546145.60946                  23150059.18042  24804472.5234   24804470.4024
 11  8 14  3 13 30.0000000  0  8G29G12G02G26G05G25G15G21
   -811706.67647   -548547.58645  21431326.5234                   21431324.2664
 -23486963.02747 -18089405.94945  22300881.1334                   22300878.0594
 -41086501.89147 -31974324.71545  22024850.3524                   22024845.7304
  10061647.76647   8046232.56644  22443117.9614                   22443114.9534
 -26017932.14547 -20232468.31646  20767178.9064                   20767175.2544
 -10763105.93748  -8346387.19545  21696451.5084   21696450.6414   20881138.25046
  16313391.33243                  23298271.6644                   23298269.0864
  29401643.32445                  23037460.07842  24776973.8754   24776972.9224
 11  8 14  3 14  0.0000000  0  8G29G12G02G26G05G25G15G21
    604877.51647    555284.28945  21700894.1884                   21700891.2774
 -21913828.67647 -16863586.98845  22600238.8594                   22600235.3524
 -39553660.71547 -30779903.01645  22316541.0084                   22316535.7234
  11466193.55547   9140683.85244  22710394.2894                   22710390.8634
 -24474261.75447 -19029608.26246  21060930.2194                   21060926.4454
  -9238104.32448  -7158074.24645  21986649.8674   21986648.5824   22272669.72746
  17397701.66443                  23563070.2664                   23563068.5124
  30832569.80945                  24152467.80942  25049270.1484   25049269.4494
 11  8 14  3 14 30.0000000  0  8G29G12G02G26G05G25G15G21
    446262.92647    431688.52345  21670710.2274                   21670707.7624
 -21915874.71547 -16865181.30145  22599849.1174                   22599846.0554
 -39596146.46947 -30813008.82044  22308456.4694                   22308450.9224
  11295619.24647   9007768.83244  22677935.0634                   22677932.0354
 -24505627.18447 -19054048.84846  21054960.8054                   21054957.7774
  -9288030.62147  -7196977.84445  21977148.7974   21977147.8674   22088830.73046
  17254450.59043                  23528087.0474                   23528085.0044
  30688073.27745                  24039873.17242  25021772.2584   25021772.1484
 11  8 14  3 15  0.0000000  0  8G29G12G02G26G05G25G15G21
    287877.71947    308271.51245  21640570.9694                   21640568.1954
 -21917683.41047 -16866590.67244  22599504.8674                   22599501.9574
 -39638536.87147 -30846040.31244  22300389.3524                   22300384.2774
  11125354.72347   8875095.21544  22645534.3054                   22645531.8324
 -24536609.22347 -19078190.69946  21049065.2114                   21049062.0864
  -9337464.72748  -7235497.92245  21967742.3914   21967741.0664   21905051.03946
  17111245.73443                  23493115.0164                   23493112.5084
  30543578.29345                  23927279.88342  24994275.5164   24994275.4344
 11  8 14  3 15 30.0000000  0  8G29G12G02G26G05G25G15G21
    129724.01247    185034.88345  21610474.7194                   21610471.6374
 -21919257.81647 -16867817.48445  22599205.1254                   22599202.0474
 -39680831.34447 -30878997.06244  22292340.8134                   22292336.2114
  10955403.69947   8742665.85244  22613194.4304                   22613191.2194
 -24567210.25847 -19102035.64846  21043242.0474                   21043238.5044
  -9386408.57447  -7273635.96545  21958428.2194   21958427.0904   21721333.75846
  16968089.48043                  23458154.8834                   23458151.4614
  30399084.66846                  23814687.50842  24966779.9064   24966778.3674
 11  8 14  3 16  0.0000000  0  8G29G12G02G26G05G25G15G21
    -28194.21547     61981.74645  21580424.4454                   21580421.0944
 -21920599.19547 -16868862.71545  22598950.3364                   22598947.3094
 -39723028.47747 -30911877.95745  22284311.4614                   22284306.5634
  10785771.71147   8610485.12144  22580914.2814                   22580911.7304
 -24597431.05147 -19125584.30946  21037491.3364                   21037488.0944
  -9434862.78147  -7311392.48845  21949207.3674   21949206.8164   21537683.12146
  16824985.18044                  23423207.3134                   23423205.2384
  30254593.34446                  23702096.96542  24939283.4064   24939282.0124
 11  8 14  3 16 30.0000000  0  8G29G12G02G26G05G25G15G21
   -185876.27747    -60887.38345  21550418.4224                   21550415.0824
 -21921712.98047 -16869730.60545  22598738.3054                   22598735.2304
 -39765129.65647 -30944684.06244  22276299.6954                   22276295.1214
  10616460.27747   8478554.16844  22548695.5314                   22548693.0124
 -24627275.65647 -19148839.83646  21031811.8134                   21031808.5204
  -9482831.18747  -7348770.46545  21940079.5314   21940078.6644   21354100.77046
  16681934.09044                  23388272.2894                   23388270.6134
  30110101.77345                  23589506.25042  24911788.1954   24911786.5044
 11  8 14  3 17  0.0000000  0  8G29G12G02G26G05G25G15G21
   -343318.58247   -183569.66045  21520458.2664                   21520455.1054
 -21922600.54747 -16870422.20745  22598569.0634                   22598565.7774
 -39807133.12547 -30977414.03145  22268306.6094                   22268301.8834
  10447474.66447   8346877.10544  22516538.1564                   22516535.8444
 -24656745.19947 -19171803.11346  21026204.1954                   21026200.9264
  -9530314.49247  -7385770.44545  21931043.7894   21931043.0204   21170591.25046
  16538939.74244                  23353352.7814                   23353349.5474
  29965611.30545                  23476916.39542  24884291.7974   24884291.3674
 11  8 14  3 17 30.0000000  0  8G29G12G02G26G05G25G15G21
   -500518.64547   -306063.18445  21490543.9534                   21490541.3324
 -21923264.78147 -16870939.80145  22598443.0314                   22598439.9494
 -39849038.73847 -31010067.74645  22260332.3984                   22260327.7344
  10278818.53947   8215456.76644  22484443.7814                   22484441.4064
 -24685841.91047 -19194475.86346  21020667.3134                   21020663.7384
  -9577314.80547  -7422394.05545  21922100.0164   21922099.3484   20987157.36346
  16396004.34044                  23318445.2584                   23318442.8754
  29821121.07846                  23364326.70342  24856796.5554   24856796.3634
 11  8 14  3 18  0.0000000  0  8G29G12G02G26G05G25G15G21
   -657476.72347   -428368.15245  21460676.0164                   21460672.8834
 -21923711.07847 -16871287.56245  22598357.8984                   22598355.1134
 -39890848.88747 -31042647.09845  22252376.7344                   22252371.4734
  10110492.89147   8084293.94144  22452412.3674                   22452409.5594
 -24714570.67647 -19216861.91446  21015200.8594                   21015197.2384
  -9623836.87547  -7458645.02045  21913247.6024   21913246.2704   20803799.50047
  16253128.16044                  23283553.8284                   23283551.5664
  29676628.18845                  23251734.89842  24829301.1414   24829300.1174
 11  8 14  3 18 30.0000000  0  8G29G12G02G26G05G25G15G21
   -814186.79747   -550479.86745  21430855.1414                   21430852.1214
 -21923939.34447 -16871465.44144  22598314.9304                   22598311.9264
 -39932559.69547 -31075149.03544  22244439.3284                   22244433.9694
   9942504.93447   7953394.27344  22420445.7344                   22420442.9224
 -24742930.67247 -19238960.59846  21009803.7894                   21009800.3524
  -9669879.33247  -7494522.24245  21904485.4694   21904484.6484   20620524.26647
  16110316.37544                  23248677.2734                   23248674.5944
  29532135.64846                  23139143.48842  24801804.8364   24801803.7074
 11  8 14  3 19  0.0000000  0  8G29G12G02G26G05G25G15G21
   -970648.79747   -672398.28145  21401080.8834                   21401077.8794
 -21923954.49247 -16871477.25044  22598312.4304                   22598309.2814
 -39974172.72347 -31107574.77344  22236520.1334                   22236515.1764
   9774856.47347   7822759.13744  22388542.8754                   22388540.3794
 -24770926.07847 -19260775.19946  21004476.7114                   21004473.0904
  -9715446.33647  -7530029.01245  21895814.5394   21895813.7384   20437332.75446
  15967569.82444                  23213816.6724                   23213814.1954
  29387640.96146                  23026550.34042  24774309.3134   24774307.2384
 11  8 14  3 19 30.0000000  0  8G29G12G02G26G05G25G15G21
  -1126862.12547   -794122.91845  21371354.6414                   21371351.7504
 -21923761.40647 -16871326.79744  22598348.7894                   22598345.9534
 -40015689.59047 -31139925.60244  22228620.1484                   22228614.7774
   9607549.19547   7692389.85944  22356704.6884                   22356702.9734
 -24798561.14547 -19282309.02046  20999217.5554                   20999214.0634
  -9760541.98847  -7565168.46545  21887232.1564   21887232.3834   20254226.47346
  15824889.66044                  23178973.1564                   23178970.5434
  29243141.60946                  22913953.54343  24746811.3134   24746808.9144
 11  8 14  3 20  0.0000000  0  8G29G12G02G26G05G25G15G21
  -1282822.42247   -915650.38745  21341676.7114                   21341673.2424
 -21923361.22747 -16871014.97744  22598424.1484                   22598421.6374
 -40057108.10247 -31172199.77044  22220737.8284                   22220733.3914
   9440588.91447   7562290.98044  22324934.3204                   22324931.6804
 -24825836.24647 -19303562.33246  20994027.1804                   20994023.5474
  -9805166.52047  -7599940.84445  21878741.1954   21878740.5864   20071210.07846
  15682279.57044                  23144146.0084                   23144143.7114
  29098639.03146                  22801354.21143  24719313.2194   24719310.2734
 11  8 14  3 20 30.0000000  0  8G29G12G02G26G05G25G15G21
  -1438527.84047  -1036979.27045  21312046.4304                   21312043.2544
 -21922757.47747 -16870544.53144  22598539.1254                   22598536.0044
 -40098428.10547 -31204397.17644  22212875.4774                   22212870.2934
   9273978.71147   7432464.88744  22293229.1414                   22293226.7074
 -24852754.39547 -19324537.51646  20988904.9844                   20988901.7424
  -9849322.59447  -7634348.15645  21870337.7974   21870337.7774   19888286.41446
  15539741.70344                  23109336.8204                   23109333.9144
  28954132.80146                  22688752.10943  24691813.1334   24691811.6644
 11  8 14  3 21  0.0000000  0  8G29G12G02G26G05G25G15G21
  -1593974.64147  -1158106.60545  21282465.7194                   21282463.0824
 -21921951.94947 -16869916.85544  22598692.4694                   22598689.3094
 -40139648.59047 -31236517.04344  22205031.4694                   22205026.5044
   9107723.12947   7302915.11744  22261591.7344                   22261588.9534
 -24879316.76247 -19345235.46146  20983850.3984                   20983846.8204
  -9893011.30947  -7668391.30545  21862024.4844   21862024.1764   19705459.90646
  15397279.56643                  23074545.6724                   23074543.7894
  28809623.05946                  22576147.22343  24664315.6174   24664312.6374
 11  8 14  3 21 30.0000000  0  8G29G12G02G26G05G25G15G21
  -1749160.48847  -1279030.61345  21252935.2504                   21252932.2814
 -21920947.63747 -16869134.28544  22598884.1094                   22598880.8714
 -40180768.80547 -31268558.77344  22197206.1644                   22197200.9774
   8941826.28547   7173644.87944  22230022.2894                   22230019.8324
 -24905525.72747 -19365658.03146  20978862.8594                   20978859.5594
  -9936234.82047  -7702071.96545  21853800.2194   21853798.9884   19522733.29346
  15254895.25444                  23039774.6334                   23039771.5594
  28665109.54346                  22463539.40643  24636814.5554   24636812.2114
 11  8 14  3 22  0.0000000  0  8G29G12G02G26G05G25G15G21
  -1904083.26647  -1399749.63745  21223454.1414                   21223451.2854
 -21919748.14547 -16868199.62144  22599112.0704                   22599109.0204
 -40221789.01647 -31300522.59844  22189400.7424                   22189395.3754
   8776291.25447   7044656.59044  22198522.0634                   22198519.4964
 -24931384.10547 -19385807.41445  20973942.4064                   20973939.0944
  -9978995.89547  -7735392.26645  21845662.7344   21845662.0124   19340109.37546
  15112590.98044                  23005021.6094                   23005019.5904
  28520591.42646                  22350927.98043  24609313.7194   24609311.2704
 11  8 14  3 22 30.0000000  0  8G29G12G02G26G05G25G15G21
  -2058741.60947  -1520262.59445  21194023.8594                   21194020.5084
 -21918357.12147 -16867115.72744  22599377.0784                   22599374.0274
 -40262709.63347 -31332408.78544  22181613.6024                   22181608.3284
   8611120.76647   6915952.32044  22167091.4924                   22167088.1764
 -24956894.88347 -19405685.93045  20969087.6414                   20969083.9104
 -10021297.69147  -7768354.68745  21837612.7034   21837612.6214   19157590.42646
  14970368.49244                  22970289.7344                   22970287.2114
  28376067.25046                  22238311.84843  24581811.3444   24581809.1024
 11  8 14  3 23  0.0000000  0  8G29G12G02G26G05G25G15G21
   -637707.41447   -412963.19145  21464438.0084                   21464434.4574
 -20341357.16447 -15638284.58644  22899469.5004                   22899466.8284
 -38728108.35547 -30136615.56244  22473638.6254                   22473633.3444
  10021744.39547   8015139.59444  22435524.4224                   22435521.2274
 -23406639.30947 -18197694.57446  21264091.3284                   21264088.1254
  -8487720.44947  -6573359.43745  22129442.7034   22129441.9414   20550606.22747
  16055835.39544                  23235371.6564                   23235369.1954
  29806962.13346                  23353294.94143  24854101.9694   24854098.9844
 11  8 14  3 23 30.0000000  0  8G29G12G02G26G05G25G15G21
   -791827.90647   -533057.03145  21435109.6804                   21435106.5474
 -20339590.30947 -15636907.82044  22899806.3754                   22899802.7774
 -38768826.90247 -30168344.29744  22465889.7344                   22465885.1804
   9857315.87547   7887013.50844  22404233.7424                   22404231.5554
 -23431460.94147 -18217036.10545  21259368.2974                   21259364.5744
  -8529108.63347  -6605609.96145  22121566.8054   22121566.0354   20368308.50847
  15913785.27344                  23200681.9064                   23200678.8444
  29662426.75446                  23240670.09043  24826597.5634   24826594.7894
 11  8 14  3 24  0.0000000  0  8G29G12G02G26G05G25G15G21
   -945677.85247   -652940.06645  21405832.2814                   21405829.5664
 -20337642.37147 -15635389.96544  22900176.9924                   22900173.7464
 -38809446.39847 -30199995.84044  22458160.6414                   22458154.8834
   9693261.58647   7759179.02044  22373015.4064                   22373013.1914
 -23455943.46947 -18236113.39546  21254709.2274                   21254705.7664
  -8570045.75847  -6637509.01645  22113776.7734   22113776.2304   20186123.94546
  15771823.34844                  23166012.9774                   23166010.5434
  29517882.72346                  23128038.45743  24799091.7584   24799089.0124
 11  8 14  3 24 30.0000000  0  8G29G12G02G26G05G25G15G21
  -1099255.06647   -772610.59845  21376608.6484                   21376604.7814
 -20335516.41847 -15633733.37944  22900581.1644                   22900578.6454
 -38849966.23447 -30231569.73044  22450449.7274                   22450444.4104
   9529585.32447   7631639.11744  22341869.3444                   22341866.4454
 -23480089.37147 -18254928.38345  21250114.1644                   21250110.9614
  -8610533.98847  -6669058.27345  22106072.0314   22106071.7704   20004055.72346
  15629952.08644                  23131366.8594                   23131364.3634
  29373329.68046                  23015399.84443  24771583.8204   24771581.8134
 11  8 14  3 25  0.0000000  0  8G29G12G02G26G05G25G15G21
  -1252555.67247   -892065.57445  21347435.8364                   21347432.8874
 -20333214.16447 -15631939.42244  22901020.2194                   22901016.1954
 -38890384.63347 -30263064.59444  22442758.8754                   22442752.9614
   9366291.74647   7504397.39144  22310795.3054                   22310792.7304
 -23503899.86747 -18273482.00845  21245583.5164                   21245579.9614
  -8650574.53147  -6700258.68445  22098453.0554   22098452.3554   19822108.30146
  15488174.90244                  23096742.6804                   23096740.2424
  29228768.38346                  22902754.76642  24744074.7114   24744072.8794
 11  8 14  3 25 30.0000000  0  8G29G12G02G26G05G25G15G21
  -1405578.16847  -1011303.84045  21318316.1804                   21318313.3014
 -20330739.32047 -15630010.98844  22901490.0394                   22901487.1174
 -38930702.23447 -30294480.90644  22435085.6094                   22435080.4804
   9203383.69147   7377456.07044  22279794.8674                   22279791.9384
 -23527378.30547 -18291776.89546  21241115.3754                   21241112.3094
  -8690170.57847  -6731112.73845  22090918.0864   22090917.0204   19640283.53947
  15346493.35244                  23062143.0234                   23062140.1454
  29084197.73046                  22790102.44942  24716564.1484   24716561.2584
 11  8 14  3 26  0.0000000  0  8G29G12G02G26G05G25G15G21
  -1558319.61347  -1130323.11745  21289250.4454                   21289247.9414
 -20328094.59047 -15627950.18444  22901994.1644                   22901990.3834
 -38970918.03147 -30325817.89144  22427433.7344                   22427428.0594
   9040865.13747   7250818.26644  22248868.2504                   22248865.9184
 -23550526.47747 -18309814.42246  21236710.4844                   21236707.0864
  -8729323.95747  -6761621.85545  22083467.4774   22083466.3634   19458585.54346
  15204910.55944                  23027567.0944                   23027564.3714
  28939617.57045                  22677442.64542  24689051.4534   24689048.6914
 11  8 14  3 26 30.0000000  0  8G29G12G02G26G05G25G15G21
  -1710777.41047  -1249121.36345  21260239.2034                   21260235.8874
 -20325282.73047 -15625759.15644  22902528.7424                   22902525.7504
 -39011031.49247 -30357075.13344  22419799.7664                   22419795.0084
   8878740.35547   7124487.26244  22218017.5784                   22218014.4614
 -23573346.35947 -18327596.14145  21232367.8444                   21232364.6454
  -8768036.96947  -6791787.82045  22076100.1724   22076099.9064   19277017.70747
  15063429.18844                  22993016.4774                   22993013.5634
  28795027.90246                  22564775.55142  24661536.6334   24661534.3164
 11  8 14  3 27  0.0000000  0  9G29G12G02G26G18G05G25G15G21
  -1862953.36747  -1367700.00445  21231280.7584                   21231278.1414
 -20322310.58647 -15623443.20344  22903094.4304                   22903091.5944
 -39051046.30547 -30388255.48044  22412184.9064                   22412180.2424
   8717008.44147   6998462.40644  22187240.5944                   22187237.7074
  35844388.77015                  24673197.523
 -23595844.60947 -18345127.23446  21228087.1334                   21228083.2074
  -8806316.05947  -6821615.68045  22068815.9924   22068815.2194   19095578.85247
  14922048.29744                  22958489.6484                   22958485.7584
  28650424.45745                  22452097.65642  24634018.9534   24634017.1214
 11  8 14  3 27 30.0000000  0  9G29G12G02G26G18G05G25G15G21
  -2014842.02047  -1486054.76645  21202377.1174                   21202374.0554
 -20319178.37947 -15621002.54344  22903690.8134                   22903688.1214
 -39090958.78147 -30419356.07044  22404590.3594                   22404585.0004
   8555676.19947   6872748.98444  22156540.4534                   22156537.6724
  35667260.758 5                  24639490.734
 -23618020.59047 -18362407.21545  21223866.7114                   21223863.8204
  -8844160.72347  -6851105.02345  22061614.3204   22061613.8054   18914275.08647
  14780772.71544                  22923988.1174                   22923985.3954
  28505810.28945                  22339411.42242  24606499.5164   24606498.2114
 11  8 14  3 28  0.0000000  0  9G29G12G02G26G18G05G25G15G21
  -2166445.65247  -1604187.43746  21173528.3524                   21173525.0984
 -20315894.25447 -15618443.51244  22904315.5944                   22904312.3404
 -39130773.82047 -30450380.76644  22397013.7974                   22397008.5234
   8394742.16047   6747345.87144  22125915.5784                   22125912.5984
  35490294.879 5                  24605814.633
 -23639881.75447 -18379441.88746  21219706.9384                   21219703.2504
  -8881578.36347  -6880261.62545  22054494.3594   22054493.4534   18733104.80547
  14639601.11344                  22889512.2424                   22889509.7704
  28361178.47746                  22226711.48442  24578977.6094   24578975.1214
 11  8 14  3 28 30.0000000  0  9G29G12G02G26G18G05G25G15G21
  -2317760.49647  -1722095.07446  21144733.6804                   21144731.0474
 -20312459.56647 -15615767.13744  22904969.3754                   22904965.7734
 -39170489.64847 -30481328.14144  22389456.1804                   22389450.6764
   8234211.36347   6622256.96944  22095367.2974                   22095364.0204
  35313494.219 5                  24572170.563
 -23661428.98847 -18396231.92646  21215606.6644                   21215603.4224
  -8918569.83247  -6909086.14845  22047454.7114   22047454.1804   18552072.59846
  14498537.12544                  22855063.2734                   22855060.6804
  28216530.73046                  22113999.02742  24551452.2114   24551449.4534
 11  8 14  3 29  0.0000000  0  9G29G12G02G26G18G05G25G15G21
  -2468781.15647  -1839773.49646  21115995.6174                   21115991.7934
 -20308874.08647 -15612973.27344  22905650.8054                   22905648.2154
 -39210102.66846 -30512195.43044  22381917.8134                   22381912.0274
   8074090.61747   6497487.55944  22064897.8834                   22064894.4064
  35136862.746 5                  24538558.609
 -23682661.48447 -18412776.72346  21211566.1724                   21211562.5864
  -8955134.59847  -6937578.15645  22040497.0864   22040495.9884   18371184.74647
  14357585.60544                  22820641.4384                   22820638.7624
  28071869.80146                  22001276.35243  24523923.3984   24523921.8284
 11  8 14  3 29 30.0000000  0  9G29G12G02G26G18G05G25G15G21
  -2619506.16447  -1957221.53145  21087313.3524                   21087310.1914
 -20305142.08647 -15610065.23844  22906362.0394                   22906358.4304
 -39249613.53947 -30542983.12944  22374399.0704                   22374393.4224
   7914382.11747   6373039.39544  22034506.1484                   22034502.6884
  34960401.102 5                  24504978.367
 -23703583.04747 -18429079.23046  21207585.1954                   21207581.7664
  -8991276.25847  -6965740.49245  22033619.1414   22033618.6454   18190443.18847
  14216748.08244                  22786247.2344                   22786244.7424
  27927194.25046                  21888542.21142  24496392.3364   24496389.5474
 11  8 14  3 30  0.0000000  0  9G29G12G02G26G18G05G25G15G21
  -2769932.03147  -2074436.47746  21058688.1254                   21058685.1844
 -20301265.42647 -15607044.48444  22907099.3914                   22907097.0204
 -39289020.85547 -30573690.14544  22366900.7974                   22366895.4064
   7755090.77047   6248916.28144  22004193.8284                   22004190.9694
  34784111.797 5                  24471431.125
 -23724194.59447 -18445140.16446  21203663.0394                   21203659.1414
  -9026996.17247  -6993574.19945  22026821.8444   22026821.1764   18009852.31347
  14076027.94944                  22751882.1564                   22751879.1564
  27782504.78146                  21775797.24243  24468858.8754   24468855.9104
 11  8 14  3 30 30.0000000  0  9G29G12G02G26G18G05G25G15G21
  -2920057.13747  -2191417.07446  21030120.1884                   21030117.5704
 -20297247.92247 -15603913.94944  22907863.6254                   22907860.8014
 -39328325.04347 -30604316.76244  22359421.1254                   22359415.7154
   7596219.12947   6125120.22344  21973962.0944                   21973959.0434
  34607995.012 5                  24437918.156
 -23744499.50847 -18460962.16446  21199799.3054                   21199795.5274
  -9062297.66447  -7021081.85245  22020104.7664   22020103.3984   17829414.57047
  13935427.16844                  22717546.3134                   22717542.9804
  27637800.25446                  21663040.59042  24441323.0474   24441320.2194
 11  8 14  3 31  0.0000000  0  9G29G12G02G26G18G05G25G15G21
  -3069878.46947  -2308160.95346  21001610.2194                   21001607.3954
 -20293091.90247 -15600675.50044  22908654.7194                   22908651.5394
 -39367524.50447 -30634861.80944  22351961.0474                   22351956.3594
   7437771.57847   6001654.61744  21943810.6174                   21943806.9844
  34432053.309 5                  24404437.727
 -23764499.64847 -18476546.68446  21195993.0944                   21195989.3954
  -9097182.61747  -7048264.93445  22013466.0084   22013464.9224   17649133.67247
  13794948.59444                  22683239.8054                   22683236.5784
  27493080.85946                  21550272.28942  24413783.7894   24413780.3984
 11  8 14  3 31 30.0000000  0  9G29G12G02G26G18G05G25G15G21
  -3219391.44147  -2424664.55946  20973158.7114                   20973155.9304
 -20288798.39847 -15597329.90644  22909471.9844                   22909468.6764
 -39406617.33647 -30665323.73844  22344522.4534                   22344517.0234
   7279753.43447   5878523.61344  21913740.4844                   21913737.5904
  34256289.313 5                  24370991.219
 -23784195.24647 -18491893.89546  21192244.7734                   21192241.7114
  -9131651.65247  -7075123.91845  22006906.7814   22006905.6294   17469014.94147
  13654596.35944                  22648964.2974                   22648960.8014
  27348348.26646                  21437493.75043  24386242.1254   24386238.2934
 11  8 14  3 32  0.0000000  0  9G29G12G02G26G18G05G25G15G21
  -1793172.22347  -1313324.89846  21244559.8754                   21244556.4184
 -18708954.17246 -14366282.44944  23210105.9774                   23210102.7854
 -37870185.05947 -29468103.78144  22636895.5554                   22636890.1764
   8697589.87147   6983331.26244  22183545.4534                   22183542.6914
  35656126.996 5                  24637370.383
 -22228171.77347 -17279408.06646  21488346.5314                   21488343.1484
  -7590289.70347  -5874062.65645  22300218.0314   22300217.2114   18864483.84847
  14741974.75844                  22914512.9774                   22914510.5124
  28779023.11346                  22552305.39843  24658489.0084   24658487.2074
 11  8 14  3 32 30.0000000  0  9G29G12G02G26G18G05G25G15G21
  -1942066.92647  -1429346.73846  21216225.9224                   21216222.3524
 -18704400.32447 -14362734.02044  23210972.7584                   23210969.1954
 -37909068.55147 -29498402.59444  22629496.0554                   22629490.9884
   8540435.43047   6860873.27044  22153639.6414                   22153637.0944
  35480717.184 5                  24603990.453
 -22247271.28147 -17294290.79346  21484712.1564                   21484708.7154
  -7623940.00847  -5900283.68745  22293814.8524   22293814.1644   18684693.23447
  14601878.23444                  22880300.2504                   22880297.0594
  28634256.32456                  22439500.01653  24630942.5394   24630939.1684
 11  8 14  3 33  0.0000000  0  9G29G12G02G26G18G05G25G15G21
  -2090647.91447  -1545124.11745  21187951.4694                   21187948.2934
 -18699719.71146 -14359086.78544  23211863.6804                   23211859.9024
 -37947845.82847 -29528618.65644  22622117.3134                   22622112.0084
   8383719.28147   6738756.79744  22123817.6414                   22123814.6134
  35305487.613 5                  24570645.258
 -22266075.37947 -17308943.33245  21481133.7034                   21481130.3714
  -7657183.79747  -5926187.93745  22287488.6254   22287487.9304   18505072.50047
  14461914.07044                  22846118.5704                   22846116.0634
  28489474.53546                  22326683.09043  24603390.4454   24603387.5474
 11  8 14  3 33 30.0000000  0  9G29G12G02G26G18G05G25G15G21
  -2238912.63747  -1660655.06246  21159738.0474                   21159735.0514
 -18694915.40247 -14355343.18744  23212777.7664                   23212774.1804
 -37986516.27747 -29558751.48844  22614759.2664                   22614753.4614
   8227444.90647   6616984.57844  22094080.3674                   22094076.8244
  35130439.512 5                  24537334.531
 -22284586.19147 -17323367.32846  21477611.2504                   21477607.6484
  -7690023.57847  -5951777.39145  22281239.1334   22281238.5904   18325624.89147
  14322084.80544                  22811971.1804                   22811968.0594
  28344676.36746                  22213853.46942  24575835.8134   24575833.1214
 11  8 14  3 34  0.0000000  0  9G29G12G02G26G18G05G25G15G21
  -2386857.97747  -1775937.11746  21131584.4534                   21131582.0274
 -18689989.32846 -14351504.71144  23213715.2034                   23213712.0434
 -38025078.73047 -29588800.18444  22607420.9304                   22607414.6844
   8071616.43047   6495559.81644  22064427.2274                   22064423.6214
  34955574.906 5                  24504059.500
 -22302805.60547 -17337564.27746  21474143.6094                   21474140.4024
  -7722461.34847  -5977053.57845  22275066.5474   22275065.8164   18146354.15647
  14182393.36344                  22777857.0704                   22777853.7234
  28199861.73045                  22101010.96943  24548279.1724   24548276.0664
 11  8 14  3 34 30.0000000  0  9G29G12G02G26G18G05G25G15G21
  -2534480.19147  -1890967.39545  21103493.4144                   21103489.7344
 -18684943.40646 -14347572.84844  23214674.7814                   23214672.2584
 -38063531.66447 -29618763.53944  22600103.4064                   22600098.0084
   7916238.51247   6374486.13744  22034859.1884                   22034856.0944
  34780896.582 5                  24470818.250
 -22320734.76247 -17351535.03946  21470732.6414                   21470728.6724
  -7754498.40647  -6002017.53545  22268970.4384   22268969.5434   17967264.80947
  14042843.25044                  22743778.0164                   22743774.9574
  28055031.93046                  21988156.64543  24520718.3674   24520716.1994
 11  8 14  3 35  0.0000000  0  9G29G12G02G26G18G05G25G15G21
  -2681777.79347  -2005744.71946  21075463.4534                   21075460.3634
 -18679781.65646 -14343550.72744  23215657.2664                   23215655.1414
 -38101875.33647 -29648641.70744  22592806.3754                   22592801.2424
   7761313.68847   6253765.50444  22005377.8444                   22005374.9024
  34606404.578 5                  24437613.156
 -22338376.98047 -17365282.20746  21467375.1414                   21467371.9884
  -7786138.26247  -6026671.97745  22262949.4844   22262948.5354   17788359.11346
  13903436.27344                  22709733.3054                   22709729.7814
  27910185.71146                  21875289.57443  24493155.4844   24493152.7544
 11  8 14  3 35 30.0000000  0  9G29G12G02G26G18G05G25G15G21
  -2828748.28947  -2120267.15645  21047495.4534                   21047492.4534
 -18674506.63746 -14339440.33244  23216661.2894                   23216658.4064
 -38140109.09447 -29678434.25444  22585530.9224                   22585526.0084
   7606845.46147   6133400.68844  21975984.0944                   21975980.8674
  34432100.28945  29427218.45352  24404444.2424                   24404441.6644
 -22355734.19547 -17378807.31645  21464071.7584                   21464068.5984
  -7817383.49247  -6051018.91045  22257003.8054   22257002.8204   17609640.55946
  13764175.09844                  22675723.3524                   22675720.6844
  27765322.82846                  21762409.44543  24465588.7814   24465585.5984
 11  8 14  3 36  0.0000000  0  9G29G12G02G26G18G05G25G15G21
  -2975391.09047  -2234534.25046  21019590.4064                   21019587.5664
 -18669123.33246 -14335245.57044  23217685.4304                   23217682.9304
 -38178234.46547 -29708142.32844  22578276.3674                   22578271.1294
   7452835.84047   6013393.21144  21946677.1644                   21946673.5314
  34257983.15646  29291542.93042  24371311.3754                   24371308.9964
 -22372810.86747 -17392113.80545  21460821.8284                   21460819.1174
  -7848238.40247  -6075061.69145  22251132.2894   22251131.4534   17431110.87147
  13625061.08644                  22641750.7504                   22641747.3914
  27620441.22746                  21649514.79343  24438019.3674   24438015.8954
 11  8 14  3 36 30.0000000  0  9G29G12G02G26G18G05G25G15G21
  -3121702.27047  -2348542.92246  20991748.7734                   20991745.4844
 -18663633.45747 -14330967.75844  23218730.3984                   23218727.4614
 -38216249.68047 -29737764.60244  22571042.6804                   22571036.5744
   7299289.03947   5893746.36744  21917457.8364                   21917454.4694
  34084056.04346  29156015.40642  24338213.5634                   24338211.4064
 -22389608.00447 -17405202.48445  21457626.0164                   21457622.5274
  -7878704.45347  -6098801.48445  22245334.6414   22245333.6604   17252773.94147
  13486097.28544                  22607814.1644                   22607811.4804
  27475541.42646                  21536605.95342  24410445.0004   24410442.5474
 11  8 14  3 37  0.0000000  0  9G29G12G02G26G18G05G25G15G21
  -3267678.18447  -2462290.35546  20963970.0634                   20963966.7344
 -18658038.81646 -14326608.30144  23219795.0704                   23219792.5394
 -38254153.07847 -29767299.72344  22563829.3834                   22563823.7814
   7146210.03147   5774464.02745  21888327.5704                   21888324.3324
  33910321.15246  29020637.75042  24305153.3914                   24305150.7304
 -22406126.81647 -17418074.28145  21454482.7194                   21454479.2424
  -7908783.19547  -6122239.48045  22239611.0164   22239609.6914   17074634.09847
  13347287.07444                  22573916.1804                   22573912.4574
  27330624.56646                  21423683.80142  24382867.2664   24382865.0634
 11  8 14  3 37 30.0000000  0  9G29G12G02G26G18G05G25G15G21
  -3413318.93447  -2575776.62546  20936255.5554                   20936252.4104
 -18652344.59846 -14322171.27744  23220879.1644                   23220876.3244
 -38291946.54747 -29796749.20344  22556637.3984                   22556631.9734
   6993599.48047   5655546.73045  21859286.9534                   21859283.5824
  33736777.18446  28885408.75842  24272128.3754                   24272126.2384
 -22422372.27047 -17430733.07445  21451391.4614                   21451387.7854
  -7938479.69147  -6145379.60945  22233960.3674   22233959.0784   16896692.43847
  13208631.25844                  22540054.6174                   22540050.8324
  27185687.93846                  21310746.21542  24355287.6174   24355285.5554
 11  8 14  3 38  0.0000000  0  9G29G12G02G26G18G05G25G15G21
  -3558623.37947  -2689000.84046  20908605.3984                   20908602.3364
 -18646554.82046 -14317659.75444  23221980.2504                   23221977.9024
 -38329630.59446 -29826113.40244  22549466.6884                   22549460.9104
   6841459.98047   5536996.47744  21830335.9384                   21830332.1024
  33563424.59446  28750328.91442  24239140.5704                   24239138.4614
 -22438347.58647 -17443181.36345  21448351.1484                   21448347.5204
  -7967797.57847  -6168224.69945  22228381.2894   22228380.3054   16718951.09847
  13070131.54744                  22506231.5634                   22506227.5824
  27040730.23846                  21197792.25042  24327703.4064   24327700.5234
 11  8 14  3 38 30.0000000  0  9G29G12G02G26G18G05G25G15G21
  -3703588.27747  -2801960.45346  20881019.3674                   20881016.5084
 -18640671.34047 -14313075.23044  23223100.3594                   23223096.8524
 -38367204.03947 -29855391.41844  22542316.3834                   22542311.0594
   6689795.63747   5418816.49644  21801474.8984                   21801472.0514
  33390265.36746  28615399.82442  24206188.7814                   24206187.5044
 -22454054.23847 -17455420.30945  21445362.0004                   21445358.5944
  -7996738.74647  -6190776.26645  22222873.3284   22222872.5394   16541414.20347
  12931791.14144                  22472446.9144                   22472443.8484
  26895751.99246                  21084822.26642  24300114.6334   24300112.0514
 11  8 14  3 39  0.0000000  0  9G29G12G02G26G18G05G25G15G21
  -3848209.97747  -2914652.66046  20853498.6644                   20853495.1254
 -18634696.27346 -14308419.35544  23224237.1724                   23224234.1484
 -38404665.32446 -29884582.04344  22535187.4534                   22535182.2274
   6538610.78147   5301010.12145  21772705.4454                   21772702.7034
  33217301.73046  28480623.04742  24173274.6724                   24173273.2894
 -22469493.62947 -17467451.01645  21442424.0394                   21442420.6994
  -8025304.81647  -6213035.55945  22217437.7814   22217436.5204   16364085.67247
  12793613.10945                  22438702.6024                   22438699.8284
  26750753.94546                  20971836.87542  24272522.1644   24272519.5554
 11  8 14  3 39 30.0000000  0  9G29G12G02G26G18G05G25G15G21
  -3992486.82047  -3027076.14546  20826043.8594                   20826040.3244
 -18628633.73046 -14303695.32443  23225391.0004                   23225387.9494
 -38442014.88347 -29913685.60244  22528079.9454                   22528075.2894
   6387907.81347   5183579.26244  21744026.6484                   21744024.9734
  33044533.84046  28345998.87542  24140398.8204                   24140397.1024
 -22484669.11347 -17479276.05145  21439536.7894                   21439532.7734
  -8053499.57447  -6235005.50445  22212072.2274   22212071.5554   16186968.32447
  12655599.63344                  22404998.2814                   22404995.3014
  26605734.74646                  20858834.96543  24244925.4844   24244922.9304
 11  8 14  3 40  0.0000000  0  9G29G12G02G26G18G05G25G15G21
  -4136416.50047  -3139229.12146  20798654.8054                   20798651.5864
 -18622486.33646 -14298905.14143  23226559.9304                   23226557.1954
 -38479252.07847 -29942701.61744  22520994.4774                   22520988.8874
   6237690.14147   5066526.54744  21715442.1804                   21715439.0514
  32871963.17246  28211528.32442  24107558.9614                   24107557.9344
 -22499582.73447 -17490897.05145  21436698.5554                   21436694.5944
  -8081325.59447  -6256688.10545  22206777.5554   22206776.3244   16010065.03947
  12517752.94544                  22371334.8204                   22371331.1884
  26460694.30946                  20745816.52743  24217325.3834   24217322.5824
 11  8 14  3 40 30.0000000  0  9G29G12G02G26G18G05G25G15G21
  -4279995.64147  -3251108.93446  20771332.1954                   20771329.3554
 -18616255.96546 -14294050.31243  23227746.2894                   23227742.6684
 -38516375.47346 -29971628.94944  22513929.6644                   22513924.5824
   6087962.13747   4949855.39545  21686949.6024                   21686946.8674
  32699591.98446  28077213.21142  24074758.0474                   24074755.9574
 -22514236.07447 -17502315.24245  21433910.3754                   21433906.3444
  -8108784.59047  -6278084.72745  22201552.2344   22201551.2704   15833380.23447
  12380076.50044                  22337712.4144                   22337710.1334
  26315633.00046                  20632781.82843  24189721.8914   24189718.0784
 11  8 14  3 41  0.0000000  0  9G29G12G02G26G18G05G25G15G21
  -2847796.38747  -2135109.50046  21043871.0474                   21043867.5634
 -17034525.03146 -13061532.72343  23528740.1724                   23528736.2304
 -36977962.62546 -28772865.68744  22806679.5234                   22806675.2734
   7514152.60546   6061172.66045  21958344.7734                   21958341.9924
  34102847.95746  29170659.54342  24341788.9224                   24341786.6374
 -20953210.58247 -16285931.73445  21730963.7274                   21730959.6094
  -6560457.80147  -5071596.32845  22496188.6484   22496187.8914   17232343.28947
  13470177.62144                  22603926.2274                   22603923.6954
  27745976.17646                  21747334.98043  24461905.6724   24461903.0824
 11  8 14  3 41 30.0000000  0  9G29G12G02G26G18G05G25G15G21
  -2990669.00447  -2246438.80546  21016683.3914                   21016680.3014
 -17028139.57846 -13056557.08244  23529954.7814                   23529951.2194
 -37014858.85546 -28801615.99244  22799659.1094                   22799653.9384
   7365411.91847   5945270.85544  21930039.8284                   21930037.3134
  33930877.20346  29036656.44542  24309063.4064                   24309061.2464
 -20967352.39147 -16296951.32445  21728272.3594                   21728268.6414
  -6587192.96147  -5092428.91045  22491101.4534   22491100.9774   17056102.87947
  13332847.46144                  22570388.8914                   22570385.9534
  27600870.94546                  21634266.03143  24434293.7814   24434290.6094
